Time,TemperatureF,DewpointF,PressureIn,WindDirection,WindDirectionDegrees,WindSpeedMPH,WindSpeedGustMPH,Humidity,HourlyPrecipIn,Conditions,Clouds,dailyrainin,SolarRadiationWatts/m^2,SoftwareType,DateUTC
2013-11-10 00:00:00,37.6,34.7,30.10,WSW,256,0.0,0.0,89,0.00,,,0.00,0.00,VWS V14.01,2013-11-10 05:00:00,
2013-11-10 00:01:00,37.8,34.9,30.10,WSW,257,0.0,0.0,89,0.00,,,0.00,0.00,VWS V14.01,2013-11-10 05:01:00,
2013-11-10 00:02:00,37.6,34.7,30.10,WSW,257,0.0,0.0,89,0.00,,,0.00,0.00,VWS V14.01,2013-11-10 05:02:00,
2013-11-10 00:03:00,37.6,34.7,30.10,WSW,257,0.0,0.0,89,0.00,,,0.00,0.00,VWS V14.01,2013-11-10 05:03:00,
2013-11-10 00:04:00,37.6,34.7,30.10,WSW,257,0.0,0.0,89,0.00,,,0.00,0.00,VWS V14.01,2013-11-10 05:04:00,
2013-11-10 00:05:00,37.6,34.7,30.10,WSW,257,0.0,0.0,89,0.00,,,0.00,0.00,VWS V14.01,2013-11-10 05:05:00,
2013-11-10 00:06:00,37.6,34.7,30.10,WSW,257,0.0,0.0,89,0.00,,,0.00,0.00,VWS V14.01,2013-11-10 05:06:00,
2013-11-10 00:07:00,37.6,34.7,30.10,WSW,257,0.0,0.0,89,0.00,,,0.00,0.00,VWS V14.01,2013-11-10 05:07:00,
2013-11-10 00:08:00,37.6,34.7,30.10,WSW,256,0.0,0.0,89,0.00,,,0.00,0.00,VWS V14.01,2013-11-10 05:08:00,
2013-11-10 00:09:00,37.5,34.6,30.10,WSW,257,0.0,0.0,89,0.00,,,0.00,0.00,VWS V14.01,2013-11-10 05:09:00,
2013-11-10 00:10:00,37.5,34.6,30.10,WSW,257,0.0,0.0,89,0.00,,,0.00,0.00,VWS V14.01,2013-11-10 05:10:00,
2013-11-10 00:11:00,37.5,34.6,30.10,WSW,257,0.0,0.0,89,0.00,,,0.00,0.00,VWS V14.01,2013-11-10 05:11:00,
2013-11-10 00:12:00,37.5,34.6,30.10,WSW,257,0.0,0.0,89,0.00,,,0.00,0.00,VWS V14.01,2013-11-10 05:12:00,
2013-11-10 00:13:00,37.6,34.7,30.10,WSW,257,0.0,0.0,89,0.00,,,0.00,0.00,VWS V14.01,2013-11-10 05:13:00,
2013-11-10 00:14:00,37.3,34.4,30.10,WSW,257,0.0,0.0,89,0.00,,,0.00,0.00,VWS V14.01,2013-11-10 05:14:00,
2013-11-10 00:15:00,37.3,34.4,30.09,WSW,257,0.0,0.0,89,0.00,,,0.00,0.00,VWS V14.01,2013-11-10 05:15:00,
2013-11-10 00:16:00,37.3,34.4,30.09,WSW,256,0.0,0.0,89,0.00,,,0.00,0.00,VWS V14.01,2013-11-10 05:16:00,
2013-11-10 00:17:00,37.3,34.4,30.09,WSW,256,0.0,0.0,89,0.00,,,0.00,0.00,VWS V14.01,2013-11-10 05:17:00,
2013-11-10 00:18:00,37.5,34.6,30.10,WSW,257,0.0,0.0,89,0.00,,,0.00,0.00,VWS V14.01,2013-11-10 05:18:00,
2013-11-10 00:19:00,37.3,34.4,30.09,WSW,257,0.0,0.0,89,0.00,,,0.00,0.00,VWS V14.01,2013-11-10 05:19:00,
2013-11-10 00:20:00,37.3,34.4,30.09,WSW,257,0.0,0.0,89,0.00,,,0.00,0.00,VWS V14.01,2013-11-10 05:20:00,
2013-11-10 00:21:00,37.3,34.4,30.09,WSW,257,0.0,0.0,89,0.00,,,0.00,0.00,VWS V14.01,2013-11-10 05:21:00,
2013-11-10 00:22:00,37.2,34.3,30.09,WSW,257,0.0,0.0,89,0.00,,,0.00,0.00,VWS V14.01,2013-11-10 05:22:00,
2013-11-10 00:23:00,37.3,34.4,30.09,WSW,257,0.0,0.0,89,0.00,,,0.00,0.00,VWS V14.01,2013-11-10 05:23:00,
2013-11-10 00:24:00,37.2,34.3,30.09,WSW,257,0.0,0.0,89,0.00,,,0.00,0.00,VWS V14.01,2013-11-10 05:24:00,
2013-11-10 00:25:00,37.2,34.5,30.09,WSW,257,0.0,0.0,90,0.00,,,0.00,0.00,VWS V14.01,2013-11-10 05:25:00,
2013-11-10 00:26:00,37.2,34.5,30.09,WSW,257,0.0,0.0,90,0.00,,,0.00,0.00,VWS V14.01,2013-11-10 05:26:00,
2013-11-10 00:27:00,37.3,34.6,30.09,WSW,257,0.0,0.0,90,0.00,,,0.00,0.00,VWS V14.01,2013-11-10 05:27:00,
2013-11-10 00:28:00,37.2,34.3,30.09,WSW,257,0.0,0.0,89,0.00,,,0.00,0.00,VWS V14.01,2013-11-10 05:28:00,
2013-11-10 00:29:00,37.3,34.6,30.09,WSW,257,0.0,0.0,90,0.00,,,0.00,0.00,VWS V14.01,2013-11-10 05:29:00,
2013-11-10 00:30:00,37.3,34.6,30.09,WSW,257,0.0,0.0,90,0.00,,,0.00,0.00,VWS V14.01,2013-11-10 05:30:00,
2013-11-10 00:31:00,37.2,34.5,30.09,WSW,257,0.0,0.0,90,0.00,,,0.00,0.00,VWS V14.01,2013-11-10 05:31:00,
2013-11-10 00:32:00,37.2,34.5,30.09,WSW,257,0.0,0.0,90,0.00,,,0.00,0.00,VWS V14.01,2013-11-10 05:32:00,
2013-11-10 00:33:00,37.3,34.6,30.09,WSW,257,0.0,0.0,90,0.00,,,0.00,0.00,VWS V14.01,2013-11-10 05:33:00,
2013-11-10 00:34:00,37.2,34.5,30.09,WSW,257,0.0,0.0,90,0.00,,,0.00,0.00,VWS V14.01,2013-11-10 05:34:00,
2013-11-10 00:35:00,37.2,34.5,30.09,WSW,257,0.0,0.0,90,0.00,,,0.00,0.00,VWS V14.01,2013-11-10 05:35:00,
2013-11-10 00:36:00,37.2,34.5,30.09,WSW,257,0.0,0.0,90,0.00,,,0.00,0.00,VWS V14.01,2013-11-10 05:36:00,
2013-11-10 00:37:00,37.2,34.5,30.09,WSW,257,0.0,0.0,90,0.00,,,0.00,0.00,VWS V14.01,2013-11-10 05:37:00,
2013-11-10 00:38:00,37.2,34.5,30.09,WSW,257,0.0,0.0,90,0.00,,,0.00,0.00,VWS V14.01,2013-11-10 05:38:00,
2013-11-10 00:39:00,37.2,34.5,30.09,WSW,257,0.0,0.0,90,0.00,,,0.00,0.00,VWS V14.01,2013-11-10 05:39:00,
2013-11-10 00:40:00,37.2,34.5,30.09,WSW,257,0.0,0.0,90,0.00,,,0.00,0.00,VWS V14.01,2013-11-10 05:40:00,
2013-11-10 00:41:00,37.2,34.5,30.09,WSW,256,0.0,0.0,90,0.00,,,0.00,0.00,VWS V14.01,2013-11-10 05:41:00,
2013-11-10 00:42:00,37.2,34.5,30.09,WSW,257,0.0,0.0,90,0.00,,,0.00,0.00,VWS V14.01,2013-11-10 05:42:00,
2013-11-10 00:43:00,37.2,34.5,30.09,WSW,257,0.0,0.0,90,0.00,,,0.00,0.00,VWS V14.01,2013-11-10 05:43:00,
2013-11-10 00:44:00,37.2,34.5,30.09,WSW,257,0.0,0.0,90,0.00,,,0.00,0.00,VWS V14.01,2013-11-10 05:44:00,
2013-11-10 00:45:00,37.2,34.5,30.09,WSW,256,0.0,0.0,90,0.00,,,0.00,0.00,VWS V14.01,2013-11-10 05:45:00,
2013-11-10 00:46:00,37.2,34.5,30.09,WSW,257,0.0,0.0,90,0.00,,,0.00,0.00,VWS V14.01,2013-11-10 05:46:00,
2013-11-10 00:47:00,37.2,34.5,30.09,WSW,257,0.0,0.0,90,0.00,,,0.00,0.00,VWS V14.01,2013-11-10 05:47:00,
2013-11-10 00:48:00,37.2,34.5,30.09,WSW,257,0.0,0.0,90,0.00,,,0.00,0.00,VWS V14.01,2013-11-10 05:48:00,
2013-11-10 00:49:00,37.2,34.5,30.09,WSW,257,0.0,0.0,90,0.00,,,0.00,0.00,VWS V14.01,2013-11-10 05:49:00,
2013-11-10 00:50:00,37.0,34.3,30.09,WSW,257,0.0,0.0,90,0.00,,,0.00,0.00,VWS V14.01,2013-11-10 05:50:00,
2013-11-10 00:51:00,37.0,34.3,30.09,WSW,257,0.0,0.0,90,0.00,,,0.00,0.00,VWS V14.01,2013-11-10 05:51:00,
2013-11-10 00:52:00,37.0,34.3,30.09,WSW,257,0.0,0.0,90,0.00,,,0.00,0.00,VWS V14.01,2013-11-10 05:52:00,
2013-11-10 00:53:00,37.2,34.5,30.09,WSW,257,0.0,0.0,90,0.00,,,0.00,0.00,VWS V14.01,2013-11-10 05:53:00,
2013-11-10 00:54:00,37.0,34.3,30.09,WSW,257,0.0,0.0,90,0.00,,,0.00,0.00,VWS V14.01,2013-11-10 05:54:00,
2013-11-10 00:55:00,36.9,34.2,30.09,WSW,257,0.0,0.0,90,0.00,,,0.00,0.00,VWS V14.01,2013-11-10 05:55:00,
2013-11-10 00:56:00,36.9,34.2,30.09,WSW,257,0.0,0.0,90,0.00,,,0.00,0.00,VWS V14.01,2013-11-10 05:56:00,
2013-11-10 00:57:00,36.9,34.2,30.09,WSW,256,0.0,0.0,90,0.00,,,0.00,0.00,VWS V14.01,2013-11-10 05:57:00,
2013-11-10 00:58:00,37.0,34.3,30.09,WSW,257,0.0,0.0,90,0.00,,,0.00,0.00,VWS V14.01,2013-11-10 05:58:00,
2013-11-10 00:59:00,36.9,34.2,30.09,WSW,256,0.0,0.0,90,0.00,,,0.00,0.00,VWS V14.01,2013-11-10 05:59:00,
2013-11-10 01:00:00,36.8,34.2,30.08,WSW,257,0.0,0.0,90,0.00,,,0.00,0.00,VWS V14.01,2013-11-10 06:00:00,
2013-11-10 01:01:00,36.8,34.2,30.08,WSW,257,0.0,0.0,90,0.00,,,0.00,0.00,VWS V14.01,2013-11-10 06:01:00,
2013-11-10 01:02:00,36.8,34.2,30.08,WSW,257,0.0,0.0,90,0.00,,,0.00,0.00,VWS V14.01,2013-11-10 06:02:00,
2013-11-10 01:03:00,36.9,34.2,30.09,WSW,257,0.0,0.0,90,0.00,,,0.00,0.00,VWS V14.01,2013-11-10 06:03:00,
2013-11-10 01:04:00,36.8,34.4,30.08,WSW,257,0.0,0.0,91,0.00,,,0.00,0.00,VWS V14.01,2013-11-10 06:04:00,
2013-11-10 01:05:00,36.6,34.2,30.08,WSW,256,0.0,0.0,91,0.00,,,0.00,0.00,VWS V14.01,2013-11-10 06:05:00,
2013-11-10 01:06:00,36.6,34.2,30.08,WSW,257,0.0,0.0,91,0.00,,,0.00,0.00,VWS V14.01,2013-11-10 06:06:00,
2013-11-10 01:07:00,36.6,34.2,30.08,WSW,256,0.0,0.0,91,0.00,,,0.00,0.00,VWS V14.01,2013-11-10 06:07:00,
2013-11-10 01:08:00,36.8,34.2,30.08,WSW,257,0.0,0.0,90,0.00,,,0.00,0.00,VWS V14.01,2013-11-10 06:08:00,
2013-11-10 01:09:00,36.6,34.2,30.08,WSW,257,0.0,0.0,91,0.00,,,0.00,0.00,VWS V14.01,2013-11-10 06:09:00,
2013-11-10 01:10:00,36.6,34.2,30.08,WSW,257,0.0,0.0,91,0.00,,,0.00,0.00,VWS V14.01,2013-11-10 06:10:00,
2013-11-10 01:11:00,36.6,34.2,30.08,WSW,257,0.0,0.0,91,0.00,,,0.00,0.00,VWS V14.01,2013-11-10 06:11:00,
2013-11-10 01:12:00,36.6,34.2,30.08,WSW,257,0.0,0.0,91,0.00,,,0.00,0.00,VWS V14.01,2013-11-10 06:12:00,
2013-11-10 01:13:00,36.6,34.2,30.08,WSW,256,0.0,0.0,91,0.00,,,0.00,0.00,VWS V14.01,2013-11-10 06:13:00,
2013-11-10 01:14:00,36.6,34.2,30.08,WSW,257,0.0,0.0,91,0.00,,,0.00,0.00,VWS V14.01,2013-11-10 06:14:00,
2013-11-10 01:15:00,36.6,34.2,30.08,WSW,257,0.0,0.0,91,0.00,,,0.00,0.00,VWS V14.01,2013-11-10 06:15:00,
2013-11-10 01:16:00,36.6,34.2,30.08,WSW,257,0.0,0.0,91,0.00,,,0.00,0.00,VWS V14.01,2013-11-10 06:16:00,
2013-11-10 01:17:00,36.6,34.2,30.08,WSW,257,0.0,0.0,91,0.00,,,0.00,0.00,VWS V14.01,2013-11-10 06:17:00,
2013-11-10 01:18:00,36.6,34.2,30.08,WSW,257,0.0,0.0,91,0.00,,,0.00,0.00,VWS V14.01,2013-11-10 06:18:00,
2013-11-10 01:19:00,36.5,34.1,30.08,WSW,257,0.0,0.0,91,0.00,,,0.00,0.00,VWS V14.01,2013-11-10 06:19:00,
2013-11-10 01:20:00,36.5,34.1,30.08,WSW,257,0.0,0.0,91,0.00,,,0.00,0.00,VWS V14.01,2013-11-10 06:20:00,
2013-11-10 01:21:00,36.5,34.1,30.08,WSW,257,0.0,0.0,91,0.00,,,0.00,0.00,VWS V14.01,2013-11-10 06:21:00,
2013-11-10 01:22:00,36.5,34.1,30.08,WSW,257,0.0,0.0,91,0.00,,,0.00,0.00,VWS V14.01,2013-11-10 06:22:00,
2013-11-10 01:23:00,36.6,34.2,30.08,WSW,257,0.0,0.0,91,0.00,,,0.00,0.00,VWS V14.01,2013-11-10 06:23:00,
2013-11-10 01:24:00,36.3,33.9,30.08,WSW,257,0.0,0.0,91,0.00,,,0.00,0.00,VWS V14.01,2013-11-10 06:24:00,
2013-11-10 01:25:00,36.3,33.9,30.08,WSW,257,0.0,0.0,91,0.00,,,0.00,0.00,VWS V14.01,2013-11-10 06:25:00,
2013-11-10 01:26:00,36.3,33.9,30.08,WSW,257,0.0,0.0,91,0.00,,,0.00,0.00,VWS V14.01,2013-11-10 06:26:00,
2013-11-10 01:27:00,36.3,33.9,30.08,WSW,257,0.0,0.0,91,0.00,,,0.00,0.00,VWS V14.01,2013-11-10 06:27:00,
2013-11-10 01:28:00,36.5,34.1,30.08,WSW,257,0.0,0.0,91,0.00,,,0.00,0.00,VWS V14.01,2013-11-10 06:28:00,
2013-11-10 01:29:00,36.3,33.9,30.08,WSW,257,0.0,0.0,91,0.00,,,0.00,0.00,VWS V14.01,2013-11-10 06:29:00,
2013-11-10 01:30:00,36.3,33.9,30.08,WSW,257,0.0,0.0,91,0.00,,,0.00,0.00,VWS V14.01,2013-11-10 06:30:00,
2013-11-10 01:31:00,36.3,33.9,30.08,WSW,257,0.0,0.0,91,0.00,,,0.00,0.00,VWS V14.01,2013-11-10 06:31:00,
2013-11-10 01:32:00,36.3,33.9,30.08,WSW,257,0.0,0.0,91,0.00,,,0.00,0.00,VWS V14.01,2013-11-10 06:32:00,
2013-11-10 01:33:00,36.2,33.8,30.08,WSW,257,0.0,0.0,91,0.00,,,0.00,0.00,VWS V14.01,2013-11-10 06:33:00,
2013-11-10 01:34:00,36.2,33.8,30.08,WSW,257,0.0,0.0,91,0.00,,,0.00,0.00,VWS V14.01,2013-11-10 06:34:00,
2013-11-10 01:35:00,36.2,33.8,30.08,WSW,257,0.0,0.0,91,0.00,,,0.00,0.00,VWS V14.01,2013-11-10 06:35:00,
2013-11-10 01:36:00,36.0,33.6,30.08,WSW,257,0.0,0.0,91,0.00,,,0.00,0.00,VWS V14.01,2013-11-10 06:36:00,
2013-11-10 01:37:00,36.2,33.8,30.08,WSW,257,0.0,0.0,91,0.00,,,0.00,0.00,VWS V14.01,2013-11-10 06:37:00,
2013-11-10 01:38:00,36.0,33.6,30.08,WSW,257,0.0,0.0,91,0.00,,,0.00,0.00,VWS V14.01,2013-11-10 06:38:00,
2013-11-10 01:39:00,36.0,33.6,30.08,WSW,257,0.0,0.0,91,0.00,,,0.00,0.00,VWS V14.01,2013-11-10 06:39:00,
2013-11-10 01:40:00,36.0,33.6,30.08,WSW,257,0.0,0.0,91,0.00,,,0.00,0.00,VWS V14.01,2013-11-10 06:40:00,
2013-11-10 01:41:00,36.0,33.6,30.08,WSW,257,0.0,0.0,91,0.00,,,0.00,0.00,VWS V14.01,2013-11-10 06:41:00,
2013-11-10 01:42:00,36.0,33.6,30.08,WSW,257,0.0,0.0,91,0.00,,,0.00,0.00,VWS V14.01,2013-11-10 06:42:00,
2013-11-10 01:43:00,36.0,33.6,30.08,WSW,257,0.0,0.0,91,0.00,,,0.00,0.00,VWS V14.01,2013-11-10 06:43:00,
2013-11-10 01:44:00,36.0,33.6,30.08,WSW,257,0.0,0.0,91,0.00,,,0.00,0.00,VWS V14.01,2013-11-10 06:44:00,
2013-11-10 01:45:00,36.0,33.6,30.08,WSW,257,0.0,0.0,91,0.00,,,0.00,0.00,VWS V14.01,2013-11-10 06:45:00,
2013-11-10 01:46:00,35.9,33.5,30.08,WSW,257,0.0,0.0,91,0.00,,,0.00,0.00,VWS V14.01,2013-11-10 06:46:00,
2013-11-10 01:47:00,36.0,33.6,30.08,WSW,257,0.0,0.0,91,0.00,,,0.00,0.00,VWS V14.01,2013-11-10 06:47:00,
2013-11-10 01:48:00,35.9,33.5,30.08,WSW,257,0.0,0.0,91,0.00,,,0.00,0.00,VWS V14.01,2013-11-10 06:48:00,
2013-11-10 01:49:00,35.9,33.5,30.08,WSW,257,0.0,0.0,91,0.00,,,0.00,0.00,VWS V14.01,2013-11-10 06:49:00,
2013-11-10 01:50:00,35.9,33.5,30.08,WSW,257,0.0,0.0,91,0.00,,,0.00,0.00,VWS V14.01,2013-11-10 06:50:00,
2013-11-10 01:51:00,35.9,33.5,30.08,WSW,257,0.0,0.0,91,0.00,,,0.00,0.00,VWS V14.01,2013-11-10 06:51:00,
2013-11-10 01:52:00,35.9,33.5,30.08,WSW,257,0.0,0.0,91,0.00,,,0.00,0.00,VWS V14.01,2013-11-10 06:52:00,
2013-11-10 01:53:00,35.9,33.5,30.08,WSW,257,0.0,0.0,91,0.00,,,0.00,0.00,VWS V14.01,2013-11-10 06:53:00,
2013-11-10 01:54:00,35.9,33.5,30.08,WSW,257,0.0,0.0,91,0.00,,,0.00,0.00,VWS V14.01,2013-11-10 06:54:00,
2013-11-10 01:55:00,35.9,33.5,30.08,WSW,257,0.0,0.0,91,0.00,,,0.00,0.00,VWS V14.01,2013-11-10 06:55:00,
2013-11-10 01:56:00,35.9,33.5,30.08,WSW,257,0.0,0.0,91,0.00,,,0.00,0.00,VWS V14.01,2013-11-10 06:56:00,
2013-11-10 01:57:00,35.9,33.5,30.08,WSW,257,0.0,0.0,91,0.00,,,0.00,0.00,VWS V14.01,2013-11-10 06:57:00,
2013-11-10 01:58:00,35.9,33.5,30.08,WSW,257,0.0,0.0,91,0.00,,,0.00,0.00,VWS V14.01,2013-11-10 06:58:00,
2013-11-10 01:59:00,35.9,33.5,30.08,WSW,257,0.0,0.0,91,0.00,,,0.00,0.00,VWS V14.01,2013-11-10 06:59:00,
2013-11-10 02:00:00,35.9,33.5,30.08,WSW,257,0.0,0.0,91,0.00,,,0.00,0.00,VWS V14.01,2013-11-10 07:00:00,
2013-11-10 02:01:00,35.9,33.8,30.08,WSW,257,0.0,0.0,92,0.00,,,0.00,0.00,VWS V14.01,2013-11-10 07:01:00,
2013-11-10 02:02:00,35.9,33.5,30.08,WSW,257,0.0,0.0,91,0.00,,,0.00,0.00,VWS V14.01,2013-11-10 07:02:00,
2013-11-10 02:03:00,35.9,33.5,30.08,WSW,256,0.0,0.0,91,0.00,,,0.00,0.00,VWS V14.01,2013-11-10 07:03:00,
2013-11-10 02:04:00,35.9,33.5,30.08,WSW,257,0.0,0.0,91,0.00,,,0.00,0.00,VWS V14.01,2013-11-10 07:04:00,
2013-11-10 02:05:00,35.9,33.5,30.08,WSW,257,0.0,0.0,91,0.00,,,0.00,0.00,VWS V14.01,2013-11-10 07:05:00,
2013-11-10 02:06:00,35.8,33.4,30.08,WSW,256,0.0,0.0,91,0.00,,,0.00,0.00,VWS V14.01,2013-11-10 07:06:00,
2013-11-10 02:07:00,35.9,33.8,30.08,WSW,257,0.0,0.0,92,0.00,,,0.00,0.00,VWS V14.01,2013-11-10 07:07:00,
2013-11-10 02:08:00,35.8,33.4,30.08,WSW,256,0.0,0.0,91,0.00,,,0.00,0.00,VWS V14.01,2013-11-10 07:08:00,
2013-11-10 02:09:00,35.8,33.4,30.08,WSW,257,0.0,0.0,91,0.00,,,0.00,0.00,VWS V14.01,2013-11-10 07:09:00,
2013-11-10 02:10:00,35.8,33.4,30.08,WSW,257,0.0,0.0,91,0.00,,,0.00,0.00,VWS V14.01,2013-11-10 07:10:00,
2013-11-10 02:11:00,35.8,33.4,30.08,WSW,257,0.0,0.0,91,0.00,,,0.00,0.00,VWS V14.01,2013-11-10 07:11:00,
2013-11-10 02:12:00,35.8,33.4,30.08,WSW,257,0.0,0.0,91,0.00,,,0.00,0.00,VWS V14.01,2013-11-10 07:12:00,
2013-11-10 02:13:00,35.8,33.7,30.08,WSW,257,0.0,0.0,92,0.00,,,0.00,0.00,VWS V14.01,2013-11-10 07:13:00,
2013-11-10 02:14:00,35.8,33.7,30.08,WSW,257,0.0,0.0,92,0.00,,,0.00,0.00,VWS V14.01,2013-11-10 07:14:00,
2013-11-10 02:15:00,35.8,33.7,30.08,WSW,257,0.0,0.0,92,0.00,,,0.00,0.00,VWS V14.01,2013-11-10 07:15:00,
2013-11-10 02:16:00,35.8,33.7,30.08,WSW,257,0.0,0.0,92,0.00,,,0.00,0.00,VWS V14.01,2013-11-10 07:16:00,
2013-11-10 02:17:00,35.8,33.7,30.08,WSW,257,0.0,0.0,92,0.00,,,0.00,0.00,VWS V14.01,2013-11-10 07:17:00,
2013-11-10 02:18:00,35.6,33.5,30.08,WSW,256,0.0,0.0,92,0.00,,,0.00,0.00,VWS V14.01,2013-11-10 07:18:00,
2013-11-10 02:19:00,35.6,33.5,30.08,WSW,257,0.0,0.0,92,0.00,,,0.00,0.00,VWS V14.01,2013-11-10 07:19:00,
2013-11-10 02:20:00,35.6,33.5,30.08,WSW,257,0.0,0.0,92,0.00,,,0.00,0.00,VWS V14.01,2013-11-10 07:20:00,
2013-11-10 02:21:00,35.6,33.5,30.08,WSW,257,0.0,0.0,92,0.00,,,0.00,0.00,VWS V14.01,2013-11-10 07:21:00,
2013-11-10 02:22:00,35.8,33.7,30.08,WSW,257,0.0,0.0,92,0.00,,,0.00,0.00,VWS V14.01,2013-11-10 07:22:00,
2013-11-10 02:23:00,35.6,33.5,30.08,WSW,256,0.0,0.0,92,0.00,,,0.00,0.00,VWS V14.01,2013-11-10 07:23:00,
2013-11-10 02:24:00,35.6,33.5,30.08,WSW,257,0.0,0.0,92,0.00,,,0.00,0.00,VWS V14.01,2013-11-10 07:24:00,
2013-11-10 02:25:00,35.6,33.5,30.08,WSW,257,0.0,0.0,92,0.00,,,0.00,0.00,VWS V14.01,2013-11-10 07:25:00,
2013-11-10 02:26:00,35.5,33.4,30.08,WSW,257,0.0,0.0,92,0.00,,,0.00,0.00,VWS V14.01,2013-11-10 07:26:00,
2013-11-10 02:27:00,35.6,33.5,30.08,WSW,257,0.0,0.0,92,0.00,,,0.00,0.00,VWS V14.01,2013-11-10 07:27:00,
2013-11-10 02:28:00,35.5,33.4,30.08,WSW,257,0.0,0.0,92,0.00,,,0.00,0.00,VWS V14.01,2013-11-10 07:28:00,
2013-11-10 02:29:00,35.5,33.4,30.08,WSW,257,0.0,0.0,92,0.00,,,0.00,0.00,VWS V14.01,2013-11-10 07:29:00,
2013-11-10 02:30:00,35.5,33.4,30.08,WSW,257,0.0,0.0,92,0.00,,,0.00,0.00,VWS V14.01,2013-11-10 07:30:00,
2013-11-10 02:31:00,35.5,33.4,30.08,WSW,257,0.0,0.0,92,0.00,,,0.00,0.00,VWS V14.01,2013-11-10 07:31:00,
2013-11-10 02:32:00,35.5,33.4,30.08,WSW,257,0.0,0.0,92,0.00,,,0.00,0.00,VWS V14.01,2013-11-10 07:32:00,
2013-11-10 02:33:00,35.5,33.4,30.08,WSW,257,0.0,0.0,92,0.00,,,0.00,0.00,VWS V14.01,2013-11-10 07:33:00,
2013-11-10 02:34:00,35.5,33.4,30.08,WSW,257,0.0,0.0,92,0.00,,,0.00,0.00,VWS V14.01,2013-11-10 07:34:00,
2013-11-10 02:35:00,35.5,33.4,30.08,WSW,257,0.0,0.0,92,0.00,,,0.00,0.00,VWS V14.01,2013-11-10 07:35:00,
2013-11-10 02:36:00,35.5,33.4,30.08,WSW,257,0.0,0.0,92,0.00,,,0.00,0.00,VWS V14.01,2013-11-10 07:36:00,
2013-11-10 02:37:00,35.5,33.4,30.08,WSW,257,0.0,0.0,92,0.00,,,0.00,0.00,VWS V14.01,2013-11-10 07:37:00,
2013-11-10 02:38:00,35.5,33.4,30.08,WSW,257,0.0,0.0,92,0.00,,,0.00,0.00,VWS V14.01,2013-11-10 07:38:00,
2013-11-10 02:39:00,35.5,33.4,30.08,WSW,257,0.0,0.0,92,0.00,,,0.00,0.00,VWS V14.01,2013-11-10 07:39:00,
2013-11-10 02:40:00,35.5,33.4,30.08,WSW,257,0.0,0.0,92,0.00,,,0.00,0.00,VWS V14.01,2013-11-10 07:40:00,
2013-11-10 02:41:00,35.5,33.4,30.08,WSW,257,0.0,0.0,92,0.00,,,0.00,0.00,VWS V14.01,2013-11-10 07:41:00,
2013-11-10 02:42:00,35.5,33.4,30.08,WSW,257,0.0,0.0,92,0.00,,,0.00,0.00,VWS V14.01,2013-11-10 07:42:00,
2013-11-10 02:43:00,35.5,33.4,30.08,WSW,257,0.0,0.0,92,0.00,,,0.00,0.00,VWS V14.01,2013-11-10 07:43:00,
2013-11-10 02:44:00,35.5,33.4,30.08,WSW,257,0.0,0.0,92,0.00,,,0.00,0.00,VWS V14.01,2013-11-10 07:44:00,
2013-11-10 02:45:00,35.6,33.5,30.07,WSW,257,0.0,0.0,92,0.00,,,0.00,0.00,VWS V14.01,2013-11-10 07:45:00,
2013-11-10 02:46:00,35.6,33.5,30.07,WSW,257,0.0,0.0,92,0.00,,,0.00,0.00,VWS V14.01,2013-11-10 07:46:00,
2013-11-10 02:47:00,35.5,33.4,30.08,WSW,257,0.0,0.0,92,0.00,,,0.00,0.00,VWS V14.01,2013-11-10 07:47:00,
2013-11-10 02:48:00,35.6,33.5,30.07,WSW,257,0.0,0.0,92,0.00,,,0.00,0.00,VWS V14.01,2013-11-10 07:48:00,
2013-11-10 02:49:00,35.6,33.5,30.07,WSW,257,0.0,0.0,92,0.00,,,0.00,0.00,VWS V14.01,2013-11-10 07:49:00,
2013-11-10 02:50:00,35.6,33.5,30.07,WSW,256,0.0,0.0,92,0.00,,,0.00,0.00,VWS V14.01,2013-11-10 07:50:00,
2013-11-10 02:51:00,35.6,33.5,30.07,WSW,257,0.0,0.0,92,0.00,,,0.00,0.00,VWS V14.01,2013-11-10 07:51:00,
2013-11-10 02:52:00,35.6,33.5,30.07,WSW,257,0.0,0.0,92,0.00,,,0.00,0.00,VWS V14.01,2013-11-10 07:52:00,
2013-11-10 02:53:00,35.6,33.5,30.07,WSW,257,0.0,0.0,92,0.00,,,0.00,0.00,VWS V14.01,2013-11-10 07:53:00,
2013-11-10 02:54:00,35.6,33.5,30.07,WSW,257,0.0,0.0,92,0.00,,,0.00,0.00,VWS V14.01,2013-11-10 07:54:00,
2013-11-10 02:55:00,35.6,33.5,30.07,WSW,257,0.0,0.0,92,0.00,,,0.00,0.00,VWS V14.01,2013-11-10 07:55:00,
2013-11-10 02:56:00,35.6,33.5,30.07,WSW,257,0.0,0.0,92,0.00,,,0.00,0.00,VWS V14.01,2013-11-10 07:56:00,
2013-11-10 02:57:00,35.6,33.5,30.07,WSW,257,0.0,0.0,92,0.00,,,0.00,0.00,VWS V14.01,2013-11-10 07:57:00,
2013-11-10 02:58:00,35.6,33.5,30.07,WSW,257,0.0,0.0,92,0.00,,,0.00,0.00,VWS V14.01,2013-11-10 07:58:00,
2013-11-10 02:59:00,35.6,33.5,30.07,WSW,257,0.0,0.0,92,0.00,,,0.00,0.00,VWS V14.01,2013-11-10 07:59:00,
2013-11-10 03:00:00,35.6,33.5,30.07,WSW,257,0.0,0.0,92,0.00,,,0.00,0.00,VWS V14.01,2013-11-10 08:00:00,
2013-11-10 03:01:00,35.6,33.5,30.07,WSW,257,0.0,0.0,92,0.00,,,0.00,0.00,VWS V14.01,2013-11-10 08:01:00,
2013-11-10 03:02:00,35.6,33.5,30.07,WSW,257,0.0,0.0,92,0.00,,,0.00,0.00,VWS V14.01,2013-11-10 08:02:00,
2013-11-10 03:03:00,35.6,33.5,30.07,WSW,257,0.0,0.0,92,0.00,,,0.00,0.00,VWS V14.01,2013-11-10 08:03:00,
2013-11-10 03:04:00,35.6,33.5,30.07,WSW,257,0.0,0.0,92,0.00,,,0.00,0.00,VWS V14.01,2013-11-10 08:04:00,
2013-11-10 03:05:00,35.6,33.5,30.07,WSW,257,0.0,0.0,92,0.00,,,0.00,0.00,VWS V14.01,2013-11-10 08:05:00,
2013-11-10 03:06:00,35.6,33.5,30.07,WSW,257,0.0,0.0,92,0.00,,,0.00,0.00,VWS V14.01,2013-11-10 08:06:00,
2013-11-10 03:07:00,35.6,33.5,30.07,WSW,257,0.0,0.0,92,0.00,,,0.00,0.00,VWS V14.01,2013-11-10 08:07:00,
2013-11-10 03:08:00,35.6,33.5,30.07,WSW,257,0.0,0.0,92,0.00,,,0.00,0.00,VWS V14.01,2013-11-10 08:08:00,
2013-11-10 03:09:00,35.6,33.5,30.07,WSW,257,0.0,0.0,92,0.00,,,0.00,0.00,VWS V14.01,2013-11-10 08:09:00,
2013-11-10 03:10:00,35.6,33.5,30.07,WSW,257,0.0,0.0,92,0.00,,,0.00,0.00,VWS V14.01,2013-11-10 08:10:00,
2013-11-10 03:11:00,35.8,33.7,30.07,WSW,257,0.0,0.0,92,0.00,,,0.00,0.00,VWS V14.01,2013-11-10 08:11:00,
2013-11-10 03:12:00,35.6,33.5,30.07,WSW,257,0.0,0.0,92,0.00,,,0.00,0.00,VWS V14.01,2013-11-10 08:12:00,
2013-11-10 03:13:00,35.8,33.7,30.07,WSW,257,0.0,0.0,92,0.00,,,0.00,0.00,VWS V14.01,2013-11-10 08:13:00,
2013-11-10 03:14:00,35.8,33.7,30.07,WSW,257,0.0,0.0,92,0.00,,,0.00,0.00,VWS V14.01,2013-11-10 08:14:00,
2013-11-10 03:15:00,35.8,33.7,30.07,WSW,257,0.0,0.0,92,0.00,,,0.00,0.00,VWS V14.01,2013-11-10 08:15:00,
2013-11-10 03:16:00,35.8,33.7,30.07,WSW,257,0.0,0.0,92,0.00,,,0.00,0.00,VWS V14.01,2013-11-10 08:16:00,
2013-11-10 03:17:00,35.8,33.7,30.07,WSW,257,0.0,0.0,92,0.00,,,0.00,0.00,VWS V14.01,2013-11-10 08:17:00,
2013-11-10 03:18:00,35.8,33.7,30.07,WSW,257,0.0,0.0,92,0.00,,,0.00,0.00,VWS V14.01,2013-11-10 08:18:00,
2013-11-10 03:19:00,35.8,33.7,30.07,WSW,257,0.0,0.0,92,0.00,,,0.00,0.00,VWS V14.01,2013-11-10 08:19:00,
2013-11-10 03:20:00,35.8,33.7,30.07,WSW,257,0.0,0.0,92,0.00,,,0.00,0.00,VWS V14.01,2013-11-10 08:20:00,
2013-11-10 03:21:00,35.8,33.7,30.07,WSW,257,0.0,0.0,92,0.00,,,0.00,0.00,VWS V14.01,2013-11-10 08:21:00,
2013-11-10 03:22:00,35.8,33.7,30.07,WSW,256,0.0,0.0,92,0.00,,,0.00,0.00,VWS V14.01,2013-11-10 08:22:00,
2013-11-10 03:23:00,35.8,33.7,30.07,WSW,257,0.0,0.0,92,0.00,,,0.00,0.00,VWS V14.01,2013-11-10 08:23:00,
2013-11-10 03:24:00,35.8,33.7,30.07,WSW,257,0.0,0.0,92,0.00,,,0.00,0.00,VWS V14.01,2013-11-10 08:24:00,
2013-11-10 03:25:00,35.8,33.7,30.07,WSW,257,0.0,0.0,92,0.00,,,0.00,0.00,VWS V14.01,2013-11-10 08:25:00,
2013-11-10 03:26:00,35.8,33.7,30.07,WSW,257,0.0,0.0,92,0.00,,,0.00,0.00,VWS V14.01,2013-11-10 08:26:00,
2013-11-10 03:27:00,35.8,33.7,30.07,WSW,256,0.0,0.0,92,0.00,,,0.00,0.00,VWS V14.01,2013-11-10 08:27:00,
2013-11-10 03:28:00,35.8,33.7,30.07,WSW,257,0.0,0.0,92,0.00,,,0.00,0.00,VWS V14.01,2013-11-10 08:28:00,
2013-11-10 03:29:00,35.8,33.7,30.07,WSW,257,0.0,0.0,92,0.00,,,0.00,0.00,VWS V14.01,2013-11-10 08:29:00,
2013-11-10 03:30:00,35.8,33.7,30.07,WSW,257,0.0,0.0,92,0.00,,,0.00,0.00,VWS V14.01,2013-11-10 08:30:00,
2013-11-10 03:31:00,35.8,33.7,30.07,WSW,257,0.0,0.0,92,0.00,,,0.00,0.00,VWS V14.01,2013-11-10 08:31:00,
2013-11-10 03:32:00,35.8,33.7,30.07,WSW,256,0.0,0.0,92,0.00,,,0.00,0.00,VWS V14.01,2013-11-10 08:32:00,
2013-11-10 03:33:00,35.8,33.7,30.07,WSW,257,0.0,0.0,92,0.00,,,0.00,0.00,VWS V14.01,2013-11-10 08:33:00,
2013-11-10 03:34:00,35.8,33.7,30.07,WSW,257,0.0,0.0,92,0.00,,,0.00,0.00,VWS V14.01,2013-11-10 08:34:00,
2013-11-10 03:35:00,35.8,33.7,30.07,WSW,257,0.0,0.0,92,0.00,,,0.00,0.00,VWS V14.01,2013-11-10 08:35:00,
2013-11-10 03:36:00,35.6,33.5,30.07,WSW,256,0.0,0.0,92,0.00,,,0.00,0.00,VWS V14.01,2013-11-10 08:36:00,
2013-11-10 03:37:00,35.8,33.7,30.07,WSW,257,0.0,0.0,92,0.00,,,0.00,0.00,VWS V14.01,2013-11-10 08:37:00,
2013-11-10 03:38:00,35.6,33.5,30.07,WSW,257,0.0,0.0,92,0.00,,,0.00,0.00,VWS V14.01,2013-11-10 08:38:00,
2013-11-10 03:39:00,35.6,33.5,30.07,WSW,257,0.0,0.0,92,0.00,,,0.00,0.00,VWS V14.01,2013-11-10 08:39:00,
2013-11-10 03:40:00,35.6,33.5,30.07,WSW,257,0.0,0.0,92,0.00,,,0.00,0.00,VWS V14.01,2013-11-10 08:40:00,
2013-11-10 03:41:00,35.6,33.5,30.07,WSW,257,0.0,0.0,92,0.00,,,0.00,0.00,VWS V14.01,2013-11-10 08:41:00,
2013-11-10 03:42:00,35.6,33.5,30.07,WSW,257,0.0,0.0,92,0.00,,,0.00,0.00,VWS V14.01,2013-11-10 08:42:00,
2013-11-10 03:43:00,35.6,33.5,30.07,WSW,256,0.0,0.0,92,0.00,,,0.00,0.00,VWS V14.01,2013-11-10 08:43:00,
2013-11-10 03:44:00,35.6,33.5,30.07,WSW,257,0.0,0.0,92,0.00,,,0.00,0.00,VWS V14.01,2013-11-10 08:44:00,
2013-11-10 03:45:00,35.8,33.7,30.07,WSW,257,0.0,0.0,92,0.00,,,0.00,0.00,VWS V14.01,2013-11-10 08:45:00,
2013-11-10 03:46:00,35.8,34.0,30.07,WSW,257,0.0,0.0,93,0.00,,,0.00,0.00,VWS V14.01,2013-11-10 08:46:00,
2013-11-10 03:47:00,35.6,33.5,30.07,WSW,257,0.0,0.0,92,0.00,,,0.00,0.00,VWS V14.01,2013-11-10 08:47:00,
2013-11-10 03:48:00,35.8,34.0,30.07,WSW,257,0.0,0.0,93,0.00,,,0.00,0.00,VWS V14.01,2013-11-10 08:48:00,
2013-11-10 03:49:00,35.8,34.0,30.07,WSW,257,0.0,0.0,93,0.00,,,0.00,0.00,VWS V14.01,2013-11-10 08:49:00,
2013-11-10 03:50:00,35.8,34.0,30.07,WSW,257,0.0,0.0,93,0.00,,,0.00,0.00,VWS V14.01,2013-11-10 08:50:00,
2013-11-10 03:51:00,35.8,33.7,30.07,WSW,256,0.0,0.0,92,0.00,,,0.00,0.00,VWS V14.01,2013-11-10 08:51:00,
2013-11-10 03:52:00,35.8,34.0,30.07,WSW,256,0.0,0.0,93,0.00,,,0.00,0.00,VWS V14.01,2013-11-10 08:52:00,
2013-11-10 03:53:00,35.8,34.0,30.07,WSW,257,0.0,0.0,93,0.00,,,0.00,0.00,VWS V14.01,2013-11-10 08:53:00,
2013-11-10 03:54:00,35.8,34.0,30.07,WSW,257,0.0,0.0,93,0.00,,,0.00,0.00,VWS V14.01,2013-11-10 08:54:00,
2013-11-10 03:55:00,35.8,34.0,30.07,WSW,257,0.0,0.0,93,0.00,,,0.00,0.00,VWS V14.01,2013-11-10 08:55:00,
2013-11-10 03:56:00,35.6,33.8,30.07,WSW,257,0.0,0.0,93,0.00,,,0.00,0.00,VWS V14.01,2013-11-10 08:56:00,
2013-11-10 03:57:00,35.8,34.0,30.07,WSW,257,0.0,0.0,93,0.00,,,0.00,0.00,VWS V14.01,2013-11-10 08:57:00,
2013-11-10 03:58:00,35.6,33.8,30.07,WSW,257,0.0,0.0,93,0.00,,,0.00,0.00,VWS V14.01,2013-11-10 08:58:00,
2013-11-10 03:59:00,35.6,33.8,30.07,WSW,257,0.0,0.0,93,0.00,,,0.00,0.00,VWS V14.01,2013-11-10 08:59:00,
2013-11-10 04:00:00,35.6,33.8,30.08,WSW,257,0.0,0.0,93,0.00,,,0.00,0.00,VWS V14.01,2013-11-10 09:00:00,
2013-11-10 04:01:00,35.6,33.8,30.08,WSW,257,0.0,0.0,93,0.00,,,0.00,0.00,VWS V14.01,2013-11-10 09:01:00,
2013-11-10 04:02:00,35.6,33.8,30.07,WSW,257,0.0,0.0,93,0.00,,,0.00,0.00,VWS V14.01,2013-11-10 09:02:00,
2013-11-10 04:03:00,35.6,33.8,30.08,WSW,257,0.0,0.0,93,0.00,,,0.00,0.00,VWS V14.01,2013-11-10 09:03:00,
2013-11-10 04:04:00,35.6,33.8,30.08,WSW,257,0.0,0.0,93,0.00,,,0.00,0.00,VWS V14.01,2013-11-10 09:04:00,
2013-11-10 04:05:00,35.6,33.8,30.08,WSW,257,0.0,0.0,93,0.00,,,0.00,0.00,VWS V14.01,2013-11-10 09:05:00,
2013-11-10 04:06:00,35.6,33.8,30.08,WSW,257,0.0,0.0,93,0.00,,,0.00,0.00,VWS V14.01,2013-11-10 09:06:00,
2013-11-10 04:07:00,35.6,33.8,30.08,WSW,257,0.0,0.0,93,0.00,,,0.00,0.00,VWS V14.01,2013-11-10 09:07:00,
2013-11-10 04:08:00,35.6,33.8,30.08,WSW,257,0.0,0.0,93,0.00,,,0.00,0.00,VWS V14.01,2013-11-10 09:08:00,
2013-11-10 04:09:00,35.6,33.8,30.08,WSW,257,0.0,0.0,93,0.00,,,0.00,0.00,VWS V14.01,2013-11-10 09:09:00,
2013-11-10 04:10:00,35.6,33.8,30.08,WSW,257,0.0,0.0,93,0.00,,,0.00,0.00,VWS V14.01,2013-11-10 09:10:00,
2013-11-10 04:11:00,35.6,33.8,30.08,WSW,257,0.0,0.0,93,0.00,,,0.00,0.00,VWS V14.01,2013-11-10 09:11:00,
2013-11-10 04:12:00,35.6,33.8,30.08,WSW,257,0.0,0.0,93,0.00,,,0.00,0.00,VWS V14.01,2013-11-10 09:12:00,
2013-11-10 04:13:00,35.5,33.7,30.08,WSW,257,0.0,0.0,93,0.00,,,0.00,0.00,VWS V14.01,2013-11-10 09:13:00,
2013-11-10 04:14:00,35.5,33.7,30.08,WSW,256,0.0,0.0,93,0.00,,,0.00,0.00,VWS V14.01,2013-11-10 09:14:00,
2013-11-10 04:15:00,35.5,33.7,30.07,WSW,257,0.0,0.0,93,0.00,,,0.00,0.00,VWS V14.01,2013-11-10 09:15:00,
2013-11-10 04:16:00,35.5,33.7,30.07,WSW,257,0.0,0.0,93,0.00,,,0.00,0.00,VWS V14.01,2013-11-10 09:16:00,
2013-11-10 04:17:00,35.6,33.8,30.08,WSW,257,0.0,0.0,93,0.00,,,0.00,0.00,VWS V14.01,2013-11-10 09:17:00,
2013-11-10 04:18:00,35.5,33.7,30.07,WSW,257,0.0,0.0,93,0.00,,,0.00,0.00,VWS V14.01,2013-11-10 09:18:00,
2013-11-10 04:19:00,35.5,33.7,30.07,WSW,257,0.0,0.0,93,0.00,,,0.00,0.00,VWS V14.01,2013-11-10 09:19:00,
2013-11-10 04:20:00,35.5,33.7,30.07,WSW,257,0.0,0.0,93,0.00,,,0.00,0.00,VWS V14.01,2013-11-10 09:20:00,
2013-11-10 04:21:00,35.5,33.7,30.07,WSW,257,0.0,0.0,93,0.00,,,0.00,0.00,VWS V14.01,2013-11-10 09:21:00,
2013-11-10 04:22:00,35.5,33.7,30.08,WSW,257,0.0,0.0,93,0.00,,,0.00,0.00,VWS V14.01,2013-11-10 09:22:00,
2013-11-10 04:23:00,35.5,33.7,30.07,WSW,257,0.0,0.0,93,0.00,,,0.00,0.00,VWS V14.01,2013-11-10 09:23:00,
2013-11-10 04:24:00,35.6,33.8,30.07,WSW,257,0.0,0.0,93,0.00,,,0.00,0.00,VWS V14.01,2013-11-10 09:24:00,
2013-11-10 04:25:00,35.6,33.8,30.07,WSW,257,0.0,0.0,93,0.00,,,0.00,0.00,VWS V14.01,2013-11-10 09:25:00,
2013-11-10 04:26:00,35.6,33.8,30.07,WSW,257,0.0,0.0,93,0.00,,,0.00,0.00,VWS V14.01,2013-11-10 09:26:00,
2013-11-10 04:27:00,35.5,33.7,30.08,WSW,257,0.0,0.0,93,0.00,,,0.00,0.00,VWS V14.01,2013-11-10 09:27:00,
2013-11-10 04:28:00,35.6,33.8,30.07,WSW,256,0.0,0.0,93,0.00,,,0.00,0.00,VWS V14.01,2013-11-10 09:28:00,
2013-11-10 04:29:00,35.6,33.8,30.07,WSW,256,0.0,0.0,93,0.00,,,0.00,0.00,VWS V14.01,2013-11-10 09:29:00,
2013-11-10 04:30:00,35.6,33.8,30.07,WSW,256,0.0,0.0,93,0.00,,,0.00,0.00,VWS V14.01,2013-11-10 09:30:00,
2013-11-10 04:31:00,35.6,33.8,30.07,WSW,257,0.0,0.0,93,0.00,,,0.00,0.00,VWS V14.01,2013-11-10 09:31:00,
2013-11-10 04:32:00,35.6,33.8,30.08,WSW,257,0.0,0.0,93,0.00,,,0.00,0.00,VWS V14.01,2013-11-10 09:32:00,
2013-11-10 04:33:00,35.6,33.8,30.07,WSW,257,0.0,0.0,93,0.00,,,0.00,0.00,VWS V14.01,2013-11-10 09:33:00,
2013-11-10 04:34:00,35.6,33.8,30.07,WSW,257,0.0,0.0,93,0.00,,,0.00,0.00,VWS V14.01,2013-11-10 09:34:00,
2013-11-10 04:35:00,35.6,33.8,30.07,WSW,257,0.0,0.0,93,0.00,,,0.00,0.00,VWS V14.01,2013-11-10 09:35:00,
2013-11-10 04:36:00,35.6,33.8,30.07,WSW,257,0.0,0.0,93,0.00,,,0.00,0.00,VWS V14.01,2013-11-10 09:36:00,
2013-11-10 04:37:00,35.6,33.8,30.07,WSW,257,0.0,0.0,93,0.00,,,0.00,0.00,VWS V14.01,2013-11-10 09:37:00,
2013-11-10 04:38:00,35.6,33.8,30.07,WSW,257,0.0,0.0,93,0.00,,,0.00,0.00,VWS V14.01,2013-11-10 09:38:00,
2013-11-10 04:39:00,35.6,33.8,30.07,WSW,257,0.0,0.0,93,0.00,,,0.00,0.00,VWS V14.01,2013-11-10 09:39:00,
2013-11-10 04:40:00,35.5,33.7,30.07,WSW,257,0.0,0.0,93,0.00,,,0.00,0.00,VWS V14.01,2013-11-10 09:40:00,
2013-11-10 04:41:00,35.5,33.7,30.07,WSW,257,0.0,0.0,93,0.00,,,0.00,0.00,VWS V14.01,2013-11-10 09:41:00,
2013-11-10 04:42:00,35.6,33.8,30.07,WSW,257,0.0,0.0,93,0.00,,,0.00,0.00,VWS V14.01,2013-11-10 09:42:00,
2013-11-10 04:43:00,35.5,33.7,30.07,WSW,257,0.0,0.0,93,0.00,,,0.00,0.00,VWS V14.01,2013-11-10 09:43:00,
2013-11-10 04:44:00,35.5,33.7,30.07,WSW,257,0.0,0.0,93,0.00,,,0.00,0.00,VWS V14.01,2013-11-10 09:44:00,
2013-11-10 04:45:00,35.5,33.7,30.08,WSW,256,0.0,0.0,93,0.00,,,0.00,0.00,VWS V14.01,2013-11-10 09:45:00,
2013-11-10 04:46:00,35.5,33.7,30.08,WSW,257,0.0,0.0,93,0.00,,,0.00,0.00,VWS V14.01,2013-11-10 09:46:00,
2013-11-10 04:47:00,35.5,33.7,30.07,WSW,256,0.0,0.0,93,0.00,,,0.00,0.00,VWS V14.01,2013-11-10 09:47:00,
2013-11-10 04:48:00,35.5,33.7,30.08,WSW,257,0.0,0.0,93,0.00,,,0.00,0.00,VWS V14.01,2013-11-10 09:48:00,
2013-11-10 04:49:00,35.5,33.7,30.08,WSW,257,0.0,0.0,93,0.00,,,0.00,0.00,VWS V14.01,2013-11-10 09:49:00,
2013-11-10 04:50:00,35.5,33.7,30.08,WSW,257,0.0,0.0,93,0.00,,,0.00,0.00,VWS V14.01,2013-11-10 09:50:00,
2013-11-10 04:51:00,35.5,33.7,30.08,WSW,257,0.0,0.0,93,0.00,,,0.00,0.00,VWS V14.01,2013-11-10 09:51:00,
2013-11-10 04:52:00,35.5,33.7,30.08,WSW,257,0.0,0.0,93,0.00,,,0.00,0.00,VWS V14.01,2013-11-10 09:52:00,
2013-11-10 04:53:00,35.5,33.7,30.08,WSW,257,0.0,0.0,93,0.00,,,0.00,0.00,VWS V14.01,2013-11-10 09:53:00,
2013-11-10 04:54:00,35.3,33.5,30.08,WSW,257,0.0,0.0,93,0.00,,,0.00,0.00,VWS V14.01,2013-11-10 09:54:00,
2013-11-10 04:55:00,35.3,33.5,30.08,WSW,257,0.0,0.0,93,0.00,,,0.00,0.00,VWS V14.01,2013-11-10 09:55:00,
2013-11-10 04:56:00,35.3,33.5,30.08,WSW,257,0.0,0.0,93,0.00,,,0.00,0.00,VWS V14.01,2013-11-10 09:56:00,
2013-11-10 04:57:00,35.5,33.7,30.08,WSW,257,0.0,0.0,93,0.00,,,0.00,0.00,VWS V14.01,2013-11-10 09:57:00,
2013-11-10 04:58:00,35.3,33.5,30.08,WSW,257,0.0,0.0,93,0.00,,,0.00,0.00,VWS V14.01,2013-11-10 09:58:00,
2013-11-10 04:59:00,35.3,33.5,30.08,WSW,257,0.0,0.0,93,0.00,,,0.00,0.00,VWS V14.01,2013-11-10 09:59:00,
2013-11-10 05:00:00,35.3,33.5,30.08,WSW,257,0.0,0.0,93,0.00,,,0.00,0.00,VWS V14.01,2013-11-10 10:00:00,
2013-11-10 05:01:00,35.3,33.5,30.08,WSW,257,0.0,0.0,93,0.00,,,0.00,0.00,VWS V14.01,2013-11-10 10:01:00,
2013-11-10 05:02:00,35.3,33.5,30.08,WSW,257,0.0,0.0,93,0.00,,,0.00,0.00,VWS V14.01,2013-11-10 10:02:00,
2013-11-10 05:03:00,35.2,33.4,30.08,WSW,257,0.0,0.0,93,0.00,,,0.00,0.00,VWS V14.01,2013-11-10 10:03:00,
2013-11-10 05:04:00,35.2,33.4,30.08,WSW,257,0.0,0.0,93,0.00,,,0.00,0.00,VWS V14.01,2013-11-10 10:04:00,
2013-11-10 05:05:00,35.2,33.4,30.08,WSW,257,0.0,0.0,93,0.00,,,0.00,0.00,VWS V14.01,2013-11-10 10:05:00,
2013-11-10 05:06:00,35.2,33.4,30.08,WSW,257,0.0,0.0,93,0.00,,,0.00,0.00,VWS V14.01,2013-11-10 10:06:00,
2013-11-10 05:07:00,35.3,33.5,30.08,WSW,257,0.0,0.0,93,0.00,,,0.00,0.00,VWS V14.01,2013-11-10 10:07:00,
2013-11-10 05:08:00,35.2,33.4,30.08,WSW,257,0.0,0.0,93,0.00,,,0.00,0.00,VWS V14.01,2013-11-10 10:08:00,
2013-11-10 05:09:00,35.2,33.4,30.08,WSW,257,0.0,0.0,93,0.00,,,0.00,0.00,VWS V14.01,2013-11-10 10:09:00,
2013-11-10 05:10:00,35.0,33.2,30.08,WSW,257,0.0,0.0,93,0.00,,,0.00,0.00,VWS V14.01,2013-11-10 10:10:00,
2013-11-10 05:11:00,35.0,33.2,30.08,WSW,257,0.0,0.0,93,0.00,,,0.00,0.00,VWS V14.01,2013-11-10 10:11:00,
2013-11-10 05:12:00,35.2,33.4,30.08,WSW,257,0.0,0.0,93,0.00,,,0.00,0.00,VWS V14.01,2013-11-10 10:12:00,
2013-11-10 05:13:00,35.0,33.2,30.08,WSW,257,0.0,0.0,93,0.00,,,0.00,0.00,VWS V14.01,2013-11-10 10:13:00,
2013-11-10 05:14:00,35.0,33.2,30.08,WSW,257,0.0,0.0,93,0.00,,,0.00,0.00,VWS V14.01,2013-11-10 10:14:00,
2013-11-10 05:15:00,35.0,33.2,30.08,WSW,257,0.0,0.0,93,0.00,,,0.00,0.00,VWS V14.01,2013-11-10 10:15:00,
2013-11-10 05:16:00,35.0,33.2,30.08,WSW,257,0.0,0.0,93,0.00,,,0.00,0.00,VWS V14.01,2013-11-10 10:16:00,
2013-11-10 05:17:00,35.0,33.2,30.08,WSW,257,0.0,0.0,93,0.00,,,0.00,0.00,VWS V14.01,2013-11-10 10:17:00,
2013-11-10 05:18:00,34.9,33.1,30.08,WSW,257,0.0,0.0,93,0.00,,,0.00,0.00,VWS V14.01,2013-11-10 10:18:00,
2013-11-10 05:19:00,34.9,33.1,30.08,WSW,256,0.0,0.0,93,0.00,,,0.00,0.00,VWS V14.01,2013-11-10 10:19:00,
2013-11-10 05:20:00,34.9,33.1,30.08,WSW,257,0.0,0.0,93,0.00,,,0.00,0.00,VWS V14.01,2013-11-10 10:20:00,
2013-11-10 05:21:00,34.9,33.1,30.08,WSW,257,0.0,0.0,93,0.00,,,0.00,0.00,VWS V14.01,2013-11-10 10:21:00,
2013-11-10 05:22:00,35.0,33.2,30.08,WSW,257,0.0,0.0,93,0.00,,,0.00,0.00,VWS V14.01,2013-11-10 10:22:00,
2013-11-10 05:23:00,34.9,33.1,30.08,WSW,257,0.0,0.0,93,0.00,,,0.00,0.00,VWS V14.01,2013-11-10 10:23:00,
2013-11-10 05:24:00,34.9,33.1,30.08,WSW,257,0.0,0.0,93,0.00,,,0.00,0.00,VWS V14.01,2013-11-10 10:24:00,
2013-11-10 05:25:00,34.9,33.1,30.08,WSW,257,0.0,0.0,93,0.00,,,0.00,0.00,VWS V14.01,2013-11-10 10:25:00,
2013-11-10 05:26:00,34.9,33.1,30.08,WSW,257,0.0,0.0,93,0.00,,,0.00,0.00,VWS V14.01,2013-11-10 10:26:00,
2013-11-10 05:27:00,34.9,33.1,30.08,WSW,257,0.0,0.0,93,0.00,,,0.00,0.00,VWS V14.01,2013-11-10 10:27:00,
2013-11-10 05:28:00,34.9,33.1,30.08,WSW,257,0.0,0.0,93,0.00,,,0.00,0.00,VWS V14.01,2013-11-10 10:28:00,
2013-11-10 05:29:00,34.9,33.1,30.08,WSW,257,0.0,0.0,93,0.00,,,0.00,0.00,VWS V14.01,2013-11-10 10:29:00,
2013-11-10 05:30:00,34.9,33.1,30.08,WSW,257,0.0,0.0,93,0.00,,,0.00,0.00,VWS V14.01,2013-11-10 10:30:00,
2013-11-10 05:31:00,34.9,33.1,30.08,WSW,257,0.0,0.0,93,0.00,,,0.00,0.00,VWS V14.01,2013-11-10 10:31:00,
2013-11-10 05:32:00,34.9,33.1,30.08,WSW,257,0.0,0.0,93,0.00,,,0.00,0.00,VWS V14.01,2013-11-10 10:32:00,
2013-11-10 05:33:00,34.9,33.1,30.08,WSW,257,0.0,0.0,93,0.00,,,0.00,0.00,VWS V14.01,2013-11-10 10:33:00,
2013-11-10 05:34:00,34.9,33.1,30.08,WSW,256,0.0,0.0,93,0.00,,,0.00,0.00,VWS V14.01,2013-11-10 10:34:00,
2013-11-10 05:35:00,34.9,33.1,30.08,WSW,256,0.0,0.0,93,0.00,,,0.00,0.00,VWS V14.01,2013-11-10 10:35:00,
2013-11-10 05:36:00,34.9,33.1,30.08,WSW,257,0.0,0.0,93,0.00,,,0.00,0.00,VWS V14.01,2013-11-10 10:36:00,
2013-11-10 05:37:00,34.9,33.1,30.08,WSW,257,0.0,0.0,93,0.00,,,0.00,0.00,VWS V14.01,2013-11-10 10:37:00,
2013-11-10 05:38:00,34.9,33.1,30.08,WSW,256,0.0,0.0,93,0.00,,,0.00,0.00,VWS V14.01,2013-11-10 10:38:00,
2013-11-10 05:39:00,34.9,33.1,30.08,WSW,257,0.0,0.0,93,0.00,,,0.00,0.00,VWS V14.01,2013-11-10 10:39:00,
2013-11-10 05:40:00,34.9,33.1,30.08,WSW,257,0.0,0.0,93,0.00,,,0.00,0.00,VWS V14.01,2013-11-10 10:40:00,
2013-11-10 05:41:00,34.9,33.1,30.08,WSW,257,0.0,0.0,93,0.00,,,0.00,0.00,VWS V14.01,2013-11-10 10:41:00,
2013-11-10 05:42:00,34.9,33.1,30.08,WSW,257,0.0,0.0,93,0.00,,,0.00,0.00,VWS V14.01,2013-11-10 10:42:00,
2013-11-10 05:43:00,34.9,33.1,30.08,WSW,256,0.0,0.0,93,0.00,,,0.00,0.00,VWS V14.01,2013-11-10 10:43:00,
2013-11-10 05:44:00,34.9,33.1,30.08,WSW,257,0.0,0.0,93,0.00,,,0.00,0.00,VWS V14.01,2013-11-10 10:44:00,
2013-11-10 05:45:00,34.9,33.1,30.08,WSW,257,0.0,0.0,93,0.00,,,0.00,0.00,VWS V14.01,2013-11-10 10:45:00,
2013-11-10 05:46:00,34.9,33.1,30.08,WSW,257,0.0,0.0,93,0.00,,,0.00,0.00,VWS V14.01,2013-11-10 10:46:00,
2013-11-10 05:47:00,34.7,32.9,30.08,WSW,257,0.0,0.0,93,0.00,,,0.00,0.00,VWS V14.01,2013-11-10 10:47:00,
2013-11-10 05:48:00,34.7,32.9,30.08,WSW,257,0.0,0.0,93,0.00,,,0.00,0.00,VWS V14.01,2013-11-10 10:48:00,
2013-11-10 05:49:00,34.7,32.9,30.08,WSW,257,0.0,0.0,93,0.00,,,0.00,0.00,VWS V14.01,2013-11-10 10:49:00,
2013-11-10 05:50:00,34.7,32.9,30.08,WSW,257,0.0,0.0,93,0.00,,,0.00,0.00,VWS V14.01,2013-11-10 10:50:00,
2013-11-10 05:51:00,34.9,33.1,30.08,WSW,257,0.0,0.0,93,0.00,,,0.00,0.00,VWS V14.01,2013-11-10 10:51:00,
2013-11-10 05:52:00,34.7,32.9,30.08,WSW,256,0.0,0.0,93,0.00,,,0.00,0.00,VWS V14.01,2013-11-10 10:52:00,
2013-11-10 05:53:00,34.7,32.9,30.08,WSW,257,0.0,0.0,93,0.00,,,0.00,0.00,VWS V14.01,2013-11-10 10:53:00,
2013-11-10 05:54:00,34.7,32.9,30.08,WSW,257,0.0,0.0,93,0.00,,,0.00,0.00,VWS V14.01,2013-11-10 10:54:00,
2013-11-10 05:55:00,34.7,32.9,30.08,WSW,257,0.0,0.0,93,0.00,,,0.00,0.00,VWS V14.01,2013-11-10 10:55:00,
2013-11-10 05:56:00,34.7,32.9,30.08,WSW,257,0.0,0.0,93,0.00,,,0.00,0.00,VWS V14.01,2013-11-10 10:56:00,
2013-11-10 05:57:00,34.7,32.9,30.08,WSW,257,0.0,0.0,93,0.00,,,0.00,0.00,VWS V14.01,2013-11-10 10:57:00,
2013-11-10 05:58:00,34.6,32.8,30.08,WSW,257,0.0,0.0,93,0.00,,,0.00,0.00,VWS V14.01,2013-11-10 10:58:00,
2013-11-10 05:59:00,34.6,32.8,30.08,WSW,257,0.0,0.0,93,0.00,,,0.00,0.00,VWS V14.01,2013-11-10 10:59:00,
2013-11-10 06:00:00,34.6,32.8,30.08,WSW,257,0.0,0.0,93,0.00,,,0.00,0.00,VWS V14.01,2013-11-10 11:00:00,
2013-11-10 06:01:00,34.7,32.9,30.08,WSW,257,0.0,0.0,93,0.00,,,0.00,0.00,VWS V14.01,2013-11-10 11:01:00,
2013-11-10 06:02:00,34.6,32.8,30.08,WSW,257,0.0,0.0,93,0.00,,,0.00,0.00,VWS V14.01,2013-11-10 11:02:00,
2013-11-10 06:03:00,34.6,32.8,30.08,WSW,257,0.0,0.0,93,0.00,,,0.00,0.00,VWS V14.01,2013-11-10 11:03:00,
2013-11-10 06:04:00,34.6,32.8,30.08,WSW,257,0.0,0.0,93,0.00,,,0.00,0.00,VWS V14.01,2013-11-10 11:04:00,
2013-11-10 06:05:00,34.6,32.8,30.08,WSW,257,0.0,0.0,93,0.00,,,0.00,0.00,VWS V14.01,2013-11-10 11:05:00,
2013-11-10 06:06:00,34.6,32.8,30.08,WSW,257,0.0,0.0,93,0.00,,,0.00,0.00,VWS V14.01,2013-11-10 11:06:00,
2013-11-10 06:07:00,34.6,32.8,30.08,WSW,257,0.0,0.0,93,0.00,,,0.00,0.00,VWS V14.01,2013-11-10 11:07:00,
2013-11-10 06:08:00,34.4,32.6,30.08,WSW,257,0.0,0.0,93,0.00,,,0.00,0.00,VWS V14.01,2013-11-10 11:08:00,
2013-11-10 06:09:00,34.4,32.6,30.08,WSW,257,0.0,0.0,93,0.00,,,0.00,0.00,VWS V14.01,2013-11-10 11:09:00,
2013-11-10 06:10:00,34.4,32.6,30.08,WSW,257,0.0,0.0,93,0.00,,,0.00,0.00,VWS V14.01,2013-11-10 11:10:00,
2013-11-10 06:11:00,34.6,32.8,30.08,WSW,257,0.0,0.0,93,0.00,,,0.00,0.00,VWS V14.01,2013-11-10 11:11:00,
2013-11-10 06:12:00,34.4,32.6,30.08,WSW,257,0.0,0.0,93,0.00,,,0.00,0.00,VWS V14.01,2013-11-10 11:12:00,
2013-11-10 06:13:00,34.4,32.6,30.08,WSW,256,0.0,0.0,93,0.00,,,0.00,0.00,VWS V14.01,2013-11-10 11:13:00,
2013-11-10 06:14:00,34.4,32.6,30.08,WSW,257,0.0,0.0,93,0.00,,,0.00,0.00,VWS V14.01,2013-11-10 11:14:00,
2013-11-10 06:15:00,34.4,32.6,30.09,WSW,257,0.0,0.0,93,0.00,,,0.00,0.00,VWS V14.01,2013-11-10 11:15:00,
2013-11-10 06:16:00,34.4,32.6,30.08,WSW,257,0.0,0.0,93,0.00,,,0.00,0.00,VWS V14.01,2013-11-10 11:16:00,
2013-11-10 06:17:00,34.4,32.6,30.09,WSW,257,0.0,0.0,93,0.00,,,0.00,0.00,VWS V14.01,2013-11-10 11:17:00,
2013-11-10 06:18:00,34.4,32.6,30.09,WSW,257,0.0,0.0,93,0.00,,,0.00,0.00,VWS V14.01,2013-11-10 11:18:00,
2013-11-10 06:19:00,34.3,32.5,30.09,WSW,257,0.0,0.0,93,0.00,,,0.00,0.00,VWS V14.01,2013-11-10 11:19:00,
2013-11-10 06:20:00,34.3,32.5,30.09,WSW,257,0.0,0.0,93,0.00,,,0.00,0.00,VWS V14.01,2013-11-10 11:20:00,
2013-11-10 06:21:00,34.4,32.6,30.09,WSW,257,0.0,0.0,93,0.00,,,0.00,0.00,VWS V14.01,2013-11-10 11:21:00,
2013-11-10 06:22:00,34.3,32.5,30.09,WSW,256,0.0,0.0,93,0.00,,,0.00,0.00,VWS V14.01,2013-11-10 11:22:00,
2013-11-10 06:23:00,34.3,32.5,30.09,WSW,257,0.0,0.0,93,0.00,,,0.00,0.00,VWS V14.01,2013-11-10 11:23:00,
2013-11-10 06:24:00,34.3,32.5,30.09,WSW,257,0.0,0.0,93,0.00,,,0.00,0.00,VWS V14.01,2013-11-10 11:24:00,
2013-11-10 06:25:00,34.3,32.5,30.09,WSW,257,0.0,0.0,93,0.00,,,0.00,0.00,VWS V14.01,2013-11-10 11:25:00,
2013-11-10 06:26:00,34.3,32.5,30.09,WSW,256,0.0,0.0,93,0.00,,,0.00,0.00,VWS V14.01,2013-11-10 11:26:00,
2013-11-10 06:27:00,34.3,32.5,30.09,WSW,257,0.0,0.0,93,0.00,,,0.00,0.00,VWS V14.01,2013-11-10 11:27:00,
2013-11-10 06:28:00,34.1,32.3,30.09,WSW,257,0.0,0.0,93,0.00,,,0.00,0.00,VWS V14.01,2013-11-10 11:28:00,
2013-11-10 06:29:00,34.1,32.3,30.09,WSW,257,0.0,0.0,93,0.00,,,0.00,0.00,VWS V14.01,2013-11-10 11:29:00,
2013-11-10 06:30:00,34.1,32.3,30.08,WSW,257,0.0,0.0,93,0.00,,,0.00,0.00,VWS V14.01,2013-11-10 11:30:00,
2013-11-10 06:31:00,34.3,32.5,30.09,WSW,257,0.0,0.0,93,0.00,,,0.00,0.00,VWS V14.01,2013-11-10 11:31:00,
2013-11-10 06:32:00,34.1,32.3,30.08,WSW,257,0.0,0.0,93,0.00,,,0.00,0.00,VWS V14.01,2013-11-10 11:32:00,
2013-11-10 06:33:00,34.1,32.3,30.08,WSW,257,0.0,0.0,93,0.00,,,0.00,0.00,VWS V14.01,2013-11-10 11:33:00,
2013-11-10 06:34:00,34.1,32.3,30.08,WSW,257,0.0,0.0,93,0.00,,,0.00,0.00,VWS V14.01,2013-11-10 11:34:00,
2013-11-10 06:35:00,34.1,32.3,30.08,WSW,257,0.0,0.0,93,0.00,,,0.00,0.00,VWS V14.01,2013-11-10 11:35:00,
2013-11-10 06:36:00,34.1,32.3,30.08,WSW,257,0.0,0.0,93,0.00,,,0.00,0.00,VWS V14.01,2013-11-10 11:36:00,
2013-11-10 06:37:00,34.1,32.3,30.08,WSW,257,0.0,0.0,93,0.00,,,0.00,0.00,VWS V14.01,2013-11-10 11:37:00,
2013-11-10 06:38:00,34.1,32.3,30.08,WSW,257,0.0,0.0,93,0.00,,,0.00,0.00,VWS V14.01,2013-11-10 11:38:00,
2013-11-10 06:39:00,34.1,32.3,30.08,WSW,257,0.0,0.0,93,0.00,,,0.00,0.00,VWS V14.01,2013-11-10 11:39:00,
2013-11-10 06:40:00,34.1,32.3,30.08,WSW,256,0.0,0.0,93,0.00,,,0.00,0.00,VWS V14.01,2013-11-10 11:40:00,
2013-11-10 06:41:00,34.1,32.3,30.08,WSW,257,0.0,0.0,93,0.00,,,0.00,0.00,VWS V14.01,2013-11-10 11:41:00,
2013-11-10 06:42:00,34.0,32.2,30.08,WSW,256,0.0,0.0,93,0.00,,,0.00,0.00,VWS V14.01,2013-11-10 11:42:00,
2013-11-10 06:43:00,34.0,32.2,30.08,WSW,257,0.0,0.0,93,0.00,,,0.00,0.00,VWS V14.01,2013-11-10 11:43:00,
2013-11-10 06:44:00,34.0,32.2,30.08,WSW,257,0.0,0.0,93,0.00,,,0.00,0.00,VWS V14.01,2013-11-10 11:44:00,
2013-11-10 06:45:00,34.0,32.2,30.09,WSW,257,0.0,0.0,93,0.00,,,0.00,5.00,VWS V14.01,2013-11-10 11:45:00,
2013-11-10 06:46:00,34.1,32.3,30.08,WSW,257,0.0,0.0,93,0.00,,,0.00,0.00,VWS V14.01,2013-11-10 11:46:00,
2013-11-10 06:47:00,34.0,32.2,30.09,WSW,257,0.0,0.0,93,0.00,,,0.00,5.00,VWS V14.01,2013-11-10 11:47:00,
2013-11-10 06:48:00,34.0,32.2,30.09,WSW,257,0.0,0.0,93,0.00,,,0.00,5.00,VWS V14.01,2013-11-10 11:48:00,
2013-11-10 06:49:00,34.0,32.2,30.09,WSW,257,0.0,0.0,93,0.00,,,0.00,7.00,VWS V14.01,2013-11-10 11:49:00,
2013-11-10 06:50:00,34.0,32.2,30.09,WSW,257,0.0,0.0,93,0.00,,,0.00,7.00,VWS V14.01,2013-11-10 11:50:00,
2013-11-10 06:51:00,34.0,32.2,30.09,WSW,257,0.0,0.0,93,0.00,,,0.00,5.00,VWS V14.01,2013-11-10 11:51:00,
2013-11-10 06:52:00,33.8,32.0,30.09,WSW,257,0.0,0.0,93,0.00,,,0.00,7.00,VWS V14.01,2013-11-10 11:52:00,
2013-11-10 06:53:00,33.8,32.0,30.09,WSW,257,0.0,0.0,93,0.00,,,0.00,9.00,VWS V14.01,2013-11-10 11:53:00,
2013-11-10 06:54:00,33.8,32.0,30.09,WSW,256,0.0,0.0,93,0.00,,,0.00,9.00,VWS V14.01,2013-11-10 11:54:00,
2013-11-10 06:55:00,33.8,32.0,30.09,WSW,257,0.0,0.0,93,0.00,,,0.00,9.00,VWS V14.01,2013-11-10 11:55:00,
2013-11-10 06:56:00,34.0,32.2,30.09,WSW,257,0.0,0.0,93,0.00,,,0.00,7.00,VWS V14.01,2013-11-10 11:56:00,
2013-11-10 06:57:00,33.8,32.0,30.09,WSW,257,0.0,0.0,93,0.00,,,0.00,11.00,VWS V14.01,2013-11-10 11:57:00,
2013-11-10 06:58:00,33.8,32.0,30.09,WSW,256,0.0,0.0,93,0.00,,,0.00,11.00,VWS V14.01,2013-11-10 11:58:00,
2013-11-10 06:59:00,33.8,32.0,30.09,WSW,257,0.0,0.0,93,0.00,,,0.00,11.00,VWS V14.01,2013-11-10 11:59:00,
2013-11-10 07:00:00,33.8,32.0,30.09,WSW,257,0.0,0.0,93,0.00,,,0.00,11.00,VWS V14.01,2013-11-10 12:00:00,
2013-11-10 07:01:00,33.8,32.0,30.09,WSW,257,0.0,0.0,93,0.00,,,0.00,9.00,VWS V14.01,2013-11-10 12:01:00,
2013-11-10 07:02:00,33.8,32.3,30.09,WSW,257,0.0,0.0,94,0.00,,,0.00,11.00,VWS V14.01,2013-11-10 12:02:00,
2013-11-10 07:03:00,34.0,32.5,30.09,WSW,257,0.0,0.0,94,0.00,,,0.00,12.00,VWS V14.01,2013-11-10 12:03:00,
2013-11-10 07:04:00,34.0,32.5,30.09,WSW,257,0.0,0.0,94,0.00,,,0.00,12.00,VWS V14.01,2013-11-10 12:04:00,
2013-11-10 07:05:00,34.0,32.5,30.09,WSW,257,0.0,0.0,94,0.00,,,0.00,12.00,VWS V14.01,2013-11-10 12:05:00,
2013-11-10 07:06:00,33.8,32.0,30.09,WSW,257,0.0,0.0,93,0.00,,,0.00,11.00,VWS V14.01,2013-11-10 12:06:00,
2013-11-10 07:07:00,34.0,32.5,30.09,WSW,257,0.0,0.0,94,0.00,,,0.00,14.00,VWS V14.01,2013-11-10 12:07:00,
2013-11-10 07:08:00,34.0,32.5,30.09,WSW,257,0.0,0.0,94,0.00,,,0.00,14.00,VWS V14.01,2013-11-10 12:08:00,
2013-11-10 07:09:00,34.0,32.5,30.09,WSW,257,0.0,0.0,94,0.00,,,0.00,14.00,VWS V14.01,2013-11-10 12:09:00,
2013-11-10 07:10:00,34.0,32.5,30.09,WSW,257,0.0,0.0,94,0.00,,,0.00,14.00,VWS V14.01,2013-11-10 12:10:00,
2013-11-10 07:11:00,34.0,32.5,30.09,WSW,257,0.0,0.0,94,0.00,,,0.00,12.00,VWS V14.01,2013-11-10 12:11:00,
2013-11-10 07:12:00,34.1,32.6,30.09,WSW,257,0.0,0.0,94,0.00,,,0.00,16.00,VWS V14.01,2013-11-10 12:12:00,
2013-11-10 07:13:00,34.1,32.6,30.09,WSW,257,0.0,0.0,94,0.00,,,0.00,16.00,VWS V14.01,2013-11-10 12:13:00,
2013-11-10 07:14:00,34.1,32.6,30.09,WSW,257,0.0,0.0,94,0.00,,,0.00,18.00,VWS V14.01,2013-11-10 12:14:00,
2013-11-10 07:15:00,34.1,32.6,30.09,WSW,257,0.0,0.0,94,0.00,,,0.00,18.00,VWS V14.01,2013-11-10 12:15:00,
2013-11-10 07:16:00,34.0,32.5,30.09,WSW,257,0.0,0.0,94,0.00,,,0.00,14.00,VWS V14.01,2013-11-10 12:16:00,
2013-11-10 07:17:00,34.3,32.8,30.09,WSW,257,0.0,0.0,94,0.00,,,0.00,18.00,VWS V14.01,2013-11-10 12:17:00,
2013-11-10 07:18:00,34.3,32.8,30.09,WSW,257,0.0,0.0,94,0.00,,,0.00,19.00,VWS V14.01,2013-11-10 12:18:00,
2013-11-10 07:19:00,34.4,32.9,30.09,WSW,257,0.0,0.0,94,0.00,,,0.00,19.00,VWS V14.01,2013-11-10 12:19:00,
2013-11-10 07:20:00,34.4,32.9,30.09,WSW,257,0.0,0.0,94,0.00,,,0.00,19.00,VWS V14.01,2013-11-10 12:20:00,
2013-11-10 07:21:00,34.1,32.6,30.09,WSW,257,0.0,0.0,94,0.00,,,0.00,18.00,VWS V14.01,2013-11-10 12:21:00,
2013-11-10 07:22:00,34.6,33.0,30.09,WSW,257,0.0,0.0,94,0.00,,,0.00,19.00,VWS V14.01,2013-11-10 12:22:00,
2013-11-10 07:23:00,34.7,33.2,30.09,WSW,257,0.0,0.0,94,0.00,,,0.00,19.00,VWS V14.01,2013-11-10 12:23:00,
2013-11-10 07:24:00,34.7,33.2,30.09,WSW,257,0.0,0.0,94,0.00,,,0.00,21.00,VWS V14.01,2013-11-10 12:24:00,
2013-11-10 07:25:00,34.9,33.3,30.09,WSW,257,0.0,0.0,94,0.00,,,0.00,21.00,VWS V14.01,2013-11-10 12:25:00,
2013-11-10 07:26:00,34.4,32.9,30.09,WSW,257,0.0,0.0,94,0.00,,,0.00,19.00,VWS V14.01,2013-11-10 12:26:00,
2013-11-10 07:27:00,35.0,33.5,30.09,WSW,257,0.0,0.0,94,0.00,,,0.00,21.00,VWS V14.01,2013-11-10 12:27:00,
2013-11-10 07:28:00,35.0,33.5,30.09,WSW,257,0.0,0.0,94,0.00,,,0.00,21.00,VWS V14.01,2013-11-10 12:28:00,
2013-11-10 07:29:00,35.2,33.7,30.09,WSW,257,0.0,0.0,94,0.00,,,0.00,21.00,VWS V14.01,2013-11-10 12:29:00,
2013-11-10 07:30:00,35.2,33.7,30.10,WSW,257,0.0,0.0,94,0.00,,,0.00,21.00,VWS V14.01,2013-11-10 12:30:00,
2013-11-10 07:31:00,34.9,33.3,30.09,WSW,257,0.0,0.0,94,0.00,,,0.00,21.00,VWS V14.01,2013-11-10 12:31:00,
2013-11-10 07:32:00,35.3,33.8,30.10,WSW,257,0.0,0.0,94,0.00,,,0.00,21.00,VWS V14.01,2013-11-10 12:32:00,
2013-11-10 07:33:00,35.5,34.0,30.10,WSW,257,0.0,0.0,94,0.00,,,0.00,23.00,VWS V14.01,2013-11-10 12:33:00,
2013-11-10 07:34:00,35.5,34.0,30.10,WSW,257,0.0,0.0,94,0.00,,,0.00,23.00,VWS V14.01,2013-11-10 12:34:00,
2013-11-10 07:35:00,35.6,34.0,30.10,WSW,257,0.0,0.0,94,0.00,,,0.00,23.00,VWS V14.01,2013-11-10 12:35:00,
2013-11-10 07:36:00,35.2,33.7,30.10,WSW,257,0.0,0.0,94,0.00,,,0.00,21.00,VWS V14.01,2013-11-10 12:36:00,
2013-11-10 07:37:00,35.6,34.0,30.10,WSW,257,0.0,0.0,94,0.00,,,0.00,23.00,VWS V14.01,2013-11-10 12:37:00,
2013-11-10 07:38:00,35.8,34.2,30.10,WSW,257,0.0,0.0,94,0.00,,,0.00,23.00,VWS V14.01,2013-11-10 12:38:00,
2013-11-10 07:39:00,35.8,34.2,30.10,WSW,257,0.0,0.0,94,0.00,,,0.00,23.00,VWS V14.01,2013-11-10 12:39:00,
2013-11-10 07:40:00,35.8,34.2,30.10,WSW,257,0.0,0.0,94,0.00,,,0.00,23.00,VWS V14.01,2013-11-10 12:40:00,
2013-11-10 07:41:00,35.6,34.0,30.10,WSW,257,0.0,0.0,94,0.00,,,0.00,23.00,VWS V14.01,2013-11-10 12:41:00,
2013-11-10 07:42:00,35.9,34.3,30.10,WSW,257,0.0,0.0,94,0.00,,,0.00,23.00,VWS V14.01,2013-11-10 12:42:00,
2013-11-10 07:43:00,36.0,34.7,30.10,WSW,257,0.0,0.0,95,0.00,,,0.00,25.00,VWS V14.01,2013-11-10 12:43:00,
2013-11-10 07:44:00,36.0,34.7,30.10,WSW,257,0.0,0.0,95,0.00,,,0.00,25.00,VWS V14.01,2013-11-10 12:44:00,
2013-11-10 07:45:00,36.2,34.9,30.11,WSW,257,0.0,0.0,95,0.00,,,0.00,25.00,VWS V14.01,2013-11-10 12:45:00,
2013-11-10 07:46:00,35.8,34.2,30.10,WSW,257,0.0,0.0,94,0.00,,,0.00,23.00,VWS V14.01,2013-11-10 12:46:00,
2013-11-10 07:47:00,36.3,35.0,30.11,WSW,257,0.0,0.0,95,0.00,,,0.00,25.00,VWS V14.01,2013-11-10 12:47:00,
2013-11-10 07:48:00,36.5,35.2,30.11,WSW,257,0.0,0.0,95,0.00,,,0.00,25.00,VWS V14.01,2013-11-10 12:48:00,
2013-11-10 07:49:00,36.6,35.3,30.11,WSW,257,0.0,0.0,95,0.00,,,0.00,25.00,VWS V14.01,2013-11-10 12:49:00,
2013-11-10 07:50:00,36.6,35.3,30.11,WSW,257,0.0,0.0,95,0.00,,,0.00,25.00,VWS V14.01,2013-11-10 12:50:00,
2013-11-10 07:51:00,36.2,34.9,30.11,WSW,257,0.0,0.0,95,0.00,,,0.00,25.00,VWS V14.01,2013-11-10 12:51:00,
2013-11-10 07:52:00,36.9,35.6,30.11,WSW,257,0.0,0.0,95,0.00,,,0.00,25.00,VWS V14.01,2013-11-10 12:52:00,
2013-11-10 07:53:00,37.0,35.7,30.11,WSW,257,0.0,0.0,95,0.00,,,0.00,25.00,VWS V14.01,2013-11-10 12:53:00,
2013-11-10 07:54:00,37.0,35.7,30.11,WSW,257,0.0,0.0,95,0.00,,,0.00,26.00,VWS V14.01,2013-11-10 12:54:00,
2013-11-10 07:55:00,37.2,35.9,30.11,WSW,257,0.0,0.0,95,0.00,,,0.00,26.00,VWS V14.01,2013-11-10 12:55:00,
2013-11-10 07:56:00,36.6,35.3,30.11,WSW,257,0.0,0.0,95,0.00,,,0.00,25.00,VWS V14.01,2013-11-10 12:56:00,
2013-11-10 07:57:00,37.3,36.0,30.11,WSW,257,0.0,0.0,95,0.00,,,0.00,26.00,VWS V14.01,2013-11-10 12:57:00,
2013-11-10 07:58:00,37.5,36.2,30.11,WSW,257,0.0,0.0,95,0.00,,,0.00,26.00,VWS V14.01,2013-11-10 12:58:00,
2013-11-10 07:59:00,37.5,36.2,30.11,WSW,257,0.0,0.0,95,0.00,,,0.00,26.00,VWS V14.01,2013-11-10 12:59:00,
2013-11-10 08:00:00,37.6,36.3,30.11,WSW,257,0.0,0.0,95,0.00,,,0.00,26.00,VWS V14.01,2013-11-10 13:00:00,
2013-11-10 08:01:00,37.2,35.9,30.11,WSW,257,0.0,0.0,95,0.00,,,0.00,26.00,VWS V14.01,2013-11-10 13:01:00,
2013-11-10 08:02:00,37.8,36.5,30.11,WSW,257,0.0,0.0,95,0.00,,,0.00,26.00,VWS V14.01,2013-11-10 13:02:00,
2013-11-10 08:03:00,37.9,36.6,30.11,WSW,257,0.0,0.0,95,0.00,,,0.00,26.00,VWS V14.01,2013-11-10 13:03:00,
2013-11-10 08:04:00,38.0,36.7,30.11,WSW,257,0.0,0.0,95,0.00,,,0.00,26.00,VWS V14.01,2013-11-10 13:04:00,
2013-11-10 08:05:00,38.2,36.9,30.11,WSW,257,0.0,0.0,95,0.00,,,0.00,26.00,VWS V14.01,2013-11-10 13:05:00,
2013-11-10 08:06:00,37.6,36.3,30.11,WSW,257,0.0,0.0,95,0.00,,,0.00,26.00,VWS V14.01,2013-11-10 13:06:00,
2013-11-10 08:07:00,38.3,37.0,30.11,WSW,257,0.0,0.0,95,0.00,,,0.00,28.00,VWS V14.01,2013-11-10 13:07:00,
2013-11-10 08:08:00,38.5,37.2,30.11,WSW,257,0.0,0.0,95,0.00,,,0.00,28.00,VWS V14.01,2013-11-10 13:08:00,
2013-11-10 08:09:00,38.6,37.3,30.11,WSW,257,0.0,0.0,95,0.00,,,0.00,28.00,VWS V14.01,2013-11-10 13:09:00,
2013-11-10 08:10:00,38.8,37.5,30.11,WSW,257,0.0,0.0,95,0.00,,,0.00,79.00,VWS V14.01,2013-11-10 13:10:00,
2013-11-10 08:11:00,38.2,36.9,30.11,WSW,257,0.0,0.0,95,0.00,,,0.00,26.00,VWS V14.01,2013-11-10 13:11:00,
2013-11-10 08:12:00,38.9,37.6,30.11,WSW,257,0.0,0.0,95,0.00,,,0.00,225.00,VWS V14.01,2013-11-10 13:12:00,
2013-11-10 08:13:00,39.1,37.8,30.11,WSW,257,0.0,0.0,95,0.00,,,0.00,227.00,VWS V14.01,2013-11-10 13:13:00,
2013-11-10 08:14:00,39.2,37.9,30.11,WSW,257,0.0,0.0,95,0.00,,,0.00,230.00,VWS V14.01,2013-11-10 13:14:00,
2013-11-10 08:15:00,39.3,38.3,30.11,WSW,257,0.0,0.0,96,0.00,,,0.00,232.00,VWS V14.01,2013-11-10 13:15:00,
2013-11-10 08:16:00,38.6,37.3,30.11,WSW,257,0.0,0.0,95,0.00,,,0.00,79.00,VWS V14.01,2013-11-10 13:16:00,
2013-11-10 08:17:00,39.8,38.8,30.11,WSW,257,0.0,0.0,96,0.00,,,0.00,237.00,VWS V14.01,2013-11-10 13:17:00,
2013-11-10 08:18:00,40.1,39.0,30.11,WSW,257,0.0,0.0,96,0.00,,,0.00,243.00,VWS V14.01,2013-11-10 13:18:00,
2013-11-10 08:19:00,40.3,39.2,30.11,WSW,257,0.0,0.0,96,0.00,,,0.00,244.00,VWS V14.01,2013-11-10 13:19:00,
2013-11-10 08:20:00,40.5,39.5,30.11,WSW,257,0.0,0.0,96,0.00,,,0.00,248.00,VWS V14.01,2013-11-10 13:20:00,
2013-11-10 08:21:00,39.3,38.3,30.11,WSW,257,0.0,0.0,96,0.00,,,0.00,232.00,VWS V14.01,2013-11-10 13:21:00,
2013-11-10 08:22:00,41.1,40.0,30.11,WSW,257,0.0,0.0,96,0.00,,,0.00,253.00,VWS V14.01,2013-11-10 13:22:00,
2013-11-10 08:23:00,41.2,40.2,30.11,WSW,257,0.0,0.0,96,0.00,,,0.00,255.00,VWS V14.01,2013-11-10 13:23:00,
2013-11-10 08:24:00,41.5,40.5,30.11,WSW,257,0.0,0.0,96,0.00,,,0.00,260.00,VWS V14.01,2013-11-10 13:24:00,
2013-11-10 08:25:00,41.9,40.8,30.11,WSW,257,0.0,0.0,96,0.00,,,0.00,262.00,VWS V14.01,2013-11-10 13:25:00,
2013-11-10 08:26:00,40.5,39.5,30.11,WSW,257,0.0,0.0,96,0.00,,,0.00,244.00,VWS V14.01,2013-11-10 13:26:00,
2013-11-10 08:27:00,42.5,41.4,30.11,WSW,257,0.0,0.0,96,0.00,,,0.00,267.00,VWS V14.01,2013-11-10 13:27:00,
2013-11-10 08:28:00,42.8,41.7,30.11,WSW,257,0.0,0.0,96,0.00,,,0.00,269.00,VWS V14.01,2013-11-10 13:28:00,
2013-11-10 08:29:00,43.1,42.0,30.11,WSW,257,0.0,0.0,96,0.00,,,0.00,272.00,VWS V14.01,2013-11-10 13:29:00,
2013-11-10 08:30:00,43.3,42.2,30.11,WSW,257,0.0,0.0,96,0.00,,,0.00,276.00,VWS V14.01,2013-11-10 13:30:00,
2013-11-10 08:31:00,41.8,40.8,30.11,WSW,257,0.0,0.0,96,0.00,,,0.00,260.00,VWS V14.01,2013-11-10 13:31:00,
2013-11-10 08:32:00,43.8,42.7,30.11,WSW,257,0.0,0.0,96,0.00,,,0.00,281.00,VWS V14.01,2013-11-10 13:32:00,
2013-11-10 08:33:00,44.1,43.0,30.11,WSW,257,0.0,0.0,96,0.00,,,0.00,283.00,VWS V14.01,2013-11-10 13:33:00,
2013-11-10 08:34:00,44.2,43.1,30.11,WSW,257,0.0,0.0,96,0.00,,,0.00,287.00,VWS V14.01,2013-11-10 13:34:00,
2013-11-10 08:35:00,44.6,43.5,30.11,WSW,257,0.0,0.0,96,0.00,,,0.00,288.00,VWS V14.01,2013-11-10 13:35:00,
2013-11-10 08:36:00,43.3,42.2,30.11,WSW,257,0.0,0.0,96,0.00,,,0.00,274.00,VWS V14.01,2013-11-10 13:36:00,
2013-11-10 08:37:00,45.1,44.0,30.11,WSW,257,0.0,0.0,96,0.00,,,0.00,295.00,VWS V14.01,2013-11-10 13:37:00,
2013-11-10 08:38:00,45.2,44.1,30.11,WSW,257,0.0,0.0,96,0.00,,,0.00,297.00,VWS V14.01,2013-11-10 13:38:00,
2013-11-10 08:39:00,45.5,44.4,30.11,WSW,257,0.0,0.0,96,0.00,,,0.00,299.00,VWS V14.01,2013-11-10 13:39:00,
2013-11-10 08:40:00,45.7,44.6,30.11,WSW,257,0.0,0.0,96,0.00,,,0.00,302.00,VWS V14.01,2013-11-10 13:40:00,
2013-11-10 08:41:00,44.5,43.4,30.11,WSW,257,0.0,0.0,96,0.00,,,0.00,288.00,VWS V14.01,2013-11-10 13:41:00,
2013-11-10 08:42:00,46.1,45.0,30.11,WSW,257,0.0,0.0,96,0.00,,,0.00,308.00,VWS V14.01,2013-11-10 13:42:00,
2013-11-10 08:43:00,46.5,45.4,30.11,WSW,257,0.0,0.0,96,0.00,,,0.00,308.00,VWS V14.01,2013-11-10 13:43:00,
2013-11-10 08:44:00,46.7,45.6,30.11,WSW,257,0.0,0.0,96,0.00,,,0.00,315.00,VWS V14.01,2013-11-10 13:44:00,
2013-11-10 08:45:00,47.0,45.9,30.11,WSW,257,0.0,0.0,96,0.00,,,0.00,318.00,VWS V14.01,2013-11-10 13:45:00,
2013-11-10 08:46:00,45.7,44.6,30.11,WSW,257,0.0,0.0,96,0.00,,,0.00,302.00,VWS V14.01,2013-11-10 13:46:00,
2013-11-10 08:47:00,47.6,46.5,30.11,WSW,257,0.0,0.0,96,0.00,,,0.00,323.00,VWS V14.01,2013-11-10 13:47:00,
2013-11-10 08:48:00,47.7,46.6,30.11,WSW,257,0.0,0.0,96,0.00,,,0.00,329.00,VWS V14.01,2013-11-10 13:48:00,
2013-11-10 08:49:00,48.0,46.9,30.11,WSW,257,0.0,0.0,96,0.00,,,0.00,332.00,VWS V14.01,2013-11-10 13:49:00,
2013-11-10 08:50:00,48.3,47.2,30.11,WSW,257,0.0,0.0,96,0.00,,,0.00,338.00,VWS V14.01,2013-11-10 13:50:00,
2013-11-10 08:51:00,47.0,45.9,30.11,WSW,257,0.0,0.0,96,0.00,,,0.00,318.00,VWS V14.01,2013-11-10 13:51:00,
2013-11-10 08:52:00,48.8,47.7,30.11,WSW,257,0.0,0.0,96,0.00,,,0.00,346.00,VWS V14.01,2013-11-10 13:52:00,
2013-11-10 08:53:00,48.9,47.8,30.11,WSW,257,0.0,0.0,96,0.00,,,0.00,353.00,VWS V14.01,2013-11-10 13:53:00,
2013-11-10 08:54:00,49.2,47.8,30.11,WSW,257,0.0,0.0,95,0.00,,,0.00,359.00,VWS V14.01,2013-11-10 13:54:00,
2013-11-10 08:55:00,49.4,48.0,30.11,WSW,257,0.0,0.0,95,0.00,,,0.00,362.00,VWS V14.01,2013-11-10 13:55:00,
2013-11-10 08:56:00,48.2,47.1,30.11,WSW,257,0.0,0.0,96,0.00,,,0.00,338.00,VWS V14.01,2013-11-10 13:56:00,
2013-11-10 08:57:00,49.8,48.2,30.11,WSW,257,0.0,0.0,94,0.00,,,0.00,371.00,VWS V14.01,2013-11-10 13:57:00,
2013-11-10 08:58:00,49.9,48.0,30.11,WSW,257,0.0,0.0,93,0.00,,,0.00,373.00,VWS V14.01,2013-11-10 13:58:00,
2013-11-10 08:59:00,50.2,48.3,30.11,WSW,257,0.0,0.0,93,0.00,,,0.00,376.00,VWS V14.01,2013-11-10 13:59:00,
2013-11-10 09:00:00,50.4,48.2,30.10,WSW,257,0.0,0.0,92,0.00,,,0.00,380.00,VWS V14.01,2013-11-10 14:00:00,
2013-11-10 09:01:00,49.4,48.0,30.11,WSW,257,0.0,0.0,95,0.00,,,0.00,362.00,VWS V14.01,2013-11-10 14:01:00,
2013-11-10 09:02:00,50.8,48.3,30.10,WSW,257,0.0,0.0,91,0.00,,,0.00,387.00,VWS V14.01,2013-11-10 14:02:00,
2013-11-10 09:03:00,51.1,48.3,30.10,WSW,257,0.0,0.0,90,0.00,,,0.00,388.00,VWS V14.01,2013-11-10 14:03:00,
2013-11-10 09:04:00,51.3,47.6,30.10,WSW,257,2.0,2.0,87,0.00,,,0.00,392.00,VWS V14.01,2013-11-10 14:04:00,
2013-11-10 09:05:00,51.6,47.2,30.10,WSW,257,0.0,2.0,85,0.00,,,0.00,397.00,VWS V14.01,2013-11-10 14:05:00,
2013-11-10 09:06:00,50.2,48.0,30.10,WSW,257,0.0,0.0,92,0.00,,,0.00,380.00,VWS V14.01,2013-11-10 14:06:00,
2013-11-10 09:07:00,52.0,46.7,30.10,WSW,257,0.0,0.0,82,0.00,,,0.00,403.00,VWS V14.01,2013-11-10 14:07:00,
2013-11-10 09:08:00,52.3,46.7,30.10,WSW,257,0.0,0.0,81,0.00,,,0.00,403.00,VWS V14.01,2013-11-10 14:08:00,
2013-11-10 09:09:00,52.8,47.1,30.10,WSW,257,0.0,0.0,81,0.00,,,0.00,406.00,VWS V14.01,2013-11-10 14:09:00,
2013-11-10 09:10:00,52.9,45.9,30.10,WSW,257,0.0,0.0,77,0.00,,,0.00,408.00,VWS V14.01,2013-11-10 14:10:00,
2013-11-10 09:11:00,51.6,47.2,30.10,WSW,257,0.0,2.0,85,0.00,,,0.00,396.00,VWS V14.01,2013-11-10 14:11:00,
2013-11-10 09:12:00,53.3,46.3,30.10,WSW,257,0.0,0.0,77,0.00,,,0.00,418.00,VWS V14.01,2013-11-10 14:12:00,
2013-11-10 09:13:00,53.6,46.6,30.10,WSW,257,2.0,3.0,77,0.00,,,0.00,420.00,VWS V14.01,2013-11-10 14:13:00,
2013-11-10 09:14:00,53.6,42.9,30.10,West,273,0.0,5.0,67,0.00,,,0.00,422.00,VWS V14.01,2013-11-10 14:14:00,
2013-11-10 09:15:00,53.9,42.0,30.09,West,274,0.0,2.0,64,0.00,,,0.00,424.00,VWS V14.01,2013-11-10 14:15:00,
2013-11-10 09:16:00,52.9,46.6,30.10,WSW,257,0.0,0.0,79,0.00,,,0.00,408.00,VWS V14.01,2013-11-10 14:16:00,
2013-11-10 09:17:00,54.4,41.2,30.09,NW,323,1.0,4.0,61,0.00,,,0.00,431.00,VWS V14.01,2013-11-10 14:17:00,
2013-11-10 09:18:00,54.5,40.5,30.09,NNW,330,0.0,4.0,59,0.00,,,0.00,434.00,VWS V14.01,2013-11-10 14:18:00,
2013-11-10 09:19:00,54.7,40.7,30.09,NNW,342,3.0,6.0,59,0.00,,,0.00,436.00,VWS V14.01,2013-11-10 14:19:00,
2013-11-10 09:20:00,55.0,40.1,30.09,NNW,339,4.0,5.0,57,0.00,,,0.00,438.00,VWS V14.01,2013-11-10 14:20:00,
2013-11-10 09:21:00,53.9,42.0,30.09,West,274,0.0,2.0,64,0.00,,,0.00,424.00,VWS V14.01,2013-11-10 14:21:00,
2013-11-10 09:22:00,55.6,39.7,30.09,NNW,342,0.0,0.0,55,0.00,,,0.00,443.00,VWS V14.01,2013-11-10 14:22:00,
2013-11-10 09:23:00,55.7,38.8,30.09,NNW,342,0.0,0.0,53,0.00,,,0.00,446.00,VWS V14.01,2013-11-10 14:23:00,
2013-11-10 09:24:00,56.0,39.1,30.09,WNW,285,1.0,4.0,53,0.00,,,0.00,450.00,VWS V14.01,2013-11-10 14:24:00,
2013-11-10 09:25:00,56.2,38.3,30.09,NW,315,2.0,3.0,51,0.00,,,0.00,452.00,VWS V14.01,2013-11-10 14:25:00,
2013-11-10 09:26:00,55.0,40.1,30.09,NNW,339,4.0,5.0,57,0.00,,,0.00,438.00,VWS V14.01,2013-11-10 14:26:00,
2013-11-10 09:27:00,56.6,39.2,30.09,NW,318,2.0,2.0,52,0.00,,,0.00,455.00,VWS V14.01,2013-11-10 14:27:00,
2013-11-10 09:28:00,56.7,38.3,30.09,West,276,4.0,5.0,50,0.00,,,0.00,461.00,VWS V14.01,2013-11-10 14:28:00,
2013-11-10 09:29:00,57.0,38.0,30.09,West,280,0.0,4.0,49,0.00,,,0.00,462.00,VWS V14.01,2013-11-10 14:29:00,
2013-11-10 09:30:00,57.2,37.7,30.09,West,280,0.0,0.0,48,0.00,,,0.00,464.00,VWS V14.01,2013-11-10 14:30:00,
2013-11-10 09:31:00,56.2,38.3,30.09,NW,316,3.0,3.0,51,0.00,,,0.00,452.00,VWS V14.01,2013-11-10 14:31:00,
2013-11-10 09:32:00,57.6,38.6,30.09,West,280,0.0,0.0,49,0.00,,,0.00,469.00,VWS V14.01,2013-11-10 14:32:00,
2013-11-10 09:33:00,58.0,37.9,30.09,WNW,293,4.0,8.0,47,0.00,,,0.00,469.00,VWS V14.01,2013-11-10 14:33:00,
2013-11-10 09:34:00,58.1,37.5,30.09,NNW,343,6.0,7.0,46,0.00,,,0.00,473.00,VWS V14.01,2013-11-10 14:34:00,
2013-11-10 09:35:00,58.3,37.6,30.09,NNW,341,2.0,6.0,46,0.00,,,0.00,476.00,VWS V14.01,2013-11-10 14:35:00,
2013-11-10 09:36:00,57.2,37.7,30.09,West,280,0.0,0.0,48,0.00,,,0.00,464.00,VWS V14.01,2013-11-10 14:36:00,
2013-11-10 09:37:00,58.7,37.4,30.09,West,271,0.0,5.0,45,0.00,,,0.00,480.00,VWS V14.01,2013-11-10 14:37:00,
2013-11-10 09:38:00,59.0,37.7,30.09,West,272,2.0,2.0,45,0.00,,,0.00,483.00,VWS V14.01,2013-11-10 14:38:00,
2013-11-10 09:39:00,59.3,37.4,30.09,NW,316,0.0,7.0,44,0.00,,,0.00,485.00,VWS V14.01,2013-11-10 14:39:00,
2013-11-10 09:40:00,59.5,38.2,30.09,NW,316,0.0,0.0,45,0.00,,,0.00,487.00,VWS V14.01,2013-11-10 14:40:00,
2013-11-10 09:41:00,58.3,37.6,30.09,North,350,2.0,6.0,46,0.00,,,0.00,476.00,VWS V14.01,2013-11-10 14:41:00,
2013-11-10 09:42:00,59.9,37.4,30.09,WNW,282,0.0,3.0,43,0.00,,,0.00,492.00,VWS V14.01,2013-11-10 14:42:00,
2013-11-10 09:43:00,60.1,37.5,30.09,WNW,282,0.0,0.0,43,0.00,,,0.00,494.00,VWS V14.01,2013-11-10 14:43:00,
2013-11-10 09:44:00,60.4,38.4,30.09,WNW,282,0.0,0.0,44,0.00,,,0.00,497.00,VWS V14.01,2013-11-10 14:44:00,
2013-11-10 09:45:00,60.5,37.9,30.09,WNW,282,0.0,0.0,43,0.00,,,0.00,499.00,VWS V14.01,2013-11-10 14:45:00,
2013-11-10 09:46:00,59.5,37.6,30.09,NW,316,0.0,0.0,44,0.00,,,0.00,487.00,VWS V14.01,2013-11-10 14:46:00,
2013-11-10 09:47:00,61.0,38.4,30.09,NNW,328,0.0,3.0,43,0.00,,,0.00,504.00,VWS V14.01,2013-11-10 14:47:00,
2013-11-10 09:48:00,61.3,39.2,30.09,WNW,295,2.0,2.0,44,0.00,,,0.00,506.00,VWS V14.01,2013-11-10 14:48:00,
2013-11-10 09:49:00,61.5,38.2,30.09,NW,307,0.0,5.0,42,0.00,,,0.00,508.00,VWS V14.01,2013-11-10 14:49:00,
2013-11-10 09:50:00,61.6,37.7,30.09,WNW,284,6.0,9.0,41,0.00,,,0.00,512.00,VWS V14.01,2013-11-10 14:50:00,
2013-11-10 09:51:00,60.5,37.9,30.09,WNW,282,0.0,0.0,43,0.00,,,0.00,499.00,VWS V14.01,2013-11-10 14:51:00,
2013-11-10 09:52:00,62.0,38.0,30.09,West,266,2.0,4.0,41,0.00,,,0.00,515.00,VWS V14.01,2013-11-10 14:52:00,
2013-11-10 09:53:00,62.0,37.4,30.09,West,268,0.0,4.0,40,0.00,,,0.00,519.00,VWS V14.01,2013-11-10 14:53:00,
2013-11-10 09:54:00,62.1,36.9,30.09,NW,318,4.0,8.0,39,0.00,,,0.00,520.00,VWS V14.01,2013-11-10 14:54:00,
2013-11-10 09:55:00,62.1,37.5,30.09,WSW,257,5.0,6.0,40,0.00,,,0.00,522.00,VWS V14.01,2013-11-10 14:55:00,
2013-11-10 09:56:00,61.6,37.7,30.09,WNW,283,7.0,9.0,41,0.00,,,0.00,512.00,VWS V14.01,2013-11-10 14:56:00,
2013-11-10 09:57:00,62.4,37.8,30.09,North,358,0.0,6.0,40,0.00,,,0.00,526.00,VWS V14.01,2013-11-10 14:57:00,
2013-11-10 09:58:00,62.4,37.8,30.09,North,357,0.0,0.0,40,0.00,,,0.00,529.00,VWS V14.01,2013-11-10 14:58:00,
2013-11-10 09:59:00,62.6,38.0,30.09,WNW,289,0.0,6.0,40,0.00,,,0.00,533.00,VWS V14.01,2013-11-10 14:59:00,
2013-11-10 10:00:00,62.7,38.0,30.08,WNW,285,0.0,0.0,40,0.00,,,0.00,531.00,VWS V14.01,2013-11-10 15:00:00,
2013-11-10 10:01:00,62.1,37.5,30.09,WSW,250,6.0,6.0,40,0.00,,,0.00,522.00,VWS V14.01,2013-11-10 15:01:00,
2013-11-10 10:02:00,63.1,39.0,30.08,WNW,283,0.0,4.0,41,0.00,,,0.00,536.00,VWS V14.01,2013-11-10 15:02:00,
2013-11-10 10:03:00,63.2,37.2,30.08,West,263,5.0,6.0,38,0.00,,,0.00,538.00,VWS V14.01,2013-11-10 15:03:00,
2013-11-10 10:04:00,63.4,38.0,30.08,West,272,3.0,6.0,39,0.00,,,0.00,543.00,VWS V14.01,2013-11-10 15:04:00,
2013-11-10 10:05:00,63.5,37.5,30.08,WNW,293,7.0,10.0,38,0.00,,,0.00,543.00,VWS V14.01,2013-11-10 15:05:00,
2013-11-10 10:06:00,62.7,38.0,30.08,WNW,285,0.0,0.0,40,0.00,,,0.00,531.00,VWS V14.01,2013-11-10 15:06:00,
2013-11-10 10:07:00,63.5,37.5,30.08,WSW,249,3.0,3.0,38,0.00,,,0.00,547.00,VWS V14.01,2013-11-10 15:07:00,
2013-11-10 10:08:00,63.7,38.3,30.08,WNW,298,10.0,10.0,39,0.00,,,0.00,548.00,VWS V14.01,2013-11-10 15:08:00,
2013-11-10 10:09:00,63.7,37.6,30.08,West,278,6.0,10.0,38,0.00,,,0.00,550.00,VWS V14.01,2013-11-10 15:09:00,
2013-11-10 10:10:00,63.7,37.6,30.08,WNW,297,4.0,7.0,38,0.00,,,0.00,554.00,VWS V14.01,2013-11-10 15:10:00,
2013-11-10 10:11:00,63.5,37.5,30.08,WNW,297,10.0,10.0,38,0.00,,,0.00,543.00,VWS V14.01,2013-11-10 15:11:00,
2013-11-10 10:12:00,63.9,37.8,30.08,WNW,290,7.0,11.0,38,0.00,,,0.00,557.00,VWS V14.01,2013-11-10 15:12:00,
2013-11-10 10:13:00,63.9,37.8,30.08,West,274,5.0,7.0,38,0.00,,,0.00,559.00,VWS V14.01,2013-11-10 15:13:00,
2013-11-10 10:14:00,63.9,37.8,30.08,WNW,283,6.0,7.0,38,0.00,,,0.00,559.00,VWS V14.01,2013-11-10 15:14:00,
2013-11-10 10:15:00,63.9,37.1,30.07,WNW,285,7.0,9.0,37,0.00,,,0.00,564.00,VWS V14.01,2013-11-10 15:15:00,
2013-11-10 10:16:00,63.7,37.6,30.08,West,276,4.0,7.0,38,0.00,,,0.00,552.00,VWS V14.01,2013-11-10 15:16:00,
2013-11-10 10:17:00,63.9,38.5,30.07,NW,324,0.0,1.0,39,0.00,,,0.00,564.00,VWS V14.01,2013-11-10 15:17:00,
2013-11-10 10:18:00,64.0,38.6,30.07,West,281,3.0,6.0,39,0.00,,,0.00,566.00,VWS V14.01,2013-11-10 15:18:00,
2013-11-10 10:19:00,64.0,38.6,30.07,West,269,0.0,5.0,39,0.00,,,0.00,568.00,VWS V14.01,2013-11-10 15:19:00,
2013-11-10 10:20:00,64.2,38.8,30.07,West,259,6.0,6.0,39,0.00,,,0.00,570.00,VWS V14.01,2013-11-10 15:20:00,
2013-11-10 10:21:00,63.9,37.8,30.08,WNW,283,1.0,9.0,38,0.00,,,0.00,561.00,VWS V14.01,2013-11-10 15:21:00,
2013-11-10 10:22:00,64.3,38.2,30.07,WSW,255,3.0,7.0,38,0.00,,,0.00,575.00,VWS V14.01,2013-11-10 15:22:00,
2013-11-10 10:23:00,64.5,39.0,30.07,West,269,0.0,3.0,39,0.00,,,0.00,577.00,VWS V14.01,2013-11-10 15:23:00,
2013-11-10 10:24:00,64.5,39.0,30.07,NW,309,5.0,6.0,39,0.00,,,0.00,577.00,VWS V14.01,2013-11-10 15:24:00,
2013-11-10 10:25:00,64.7,39.2,30.07,WNW,288,6.0,6.0,39,0.00,,,0.00,578.00,VWS V14.01,2013-11-10 15:25:00,
2013-11-10 10:26:00,64.2,38.8,30.08,NW,314,2.0,3.0,39,0.00,,,0.00,570.00,VWS V14.01,2013-11-10 15:26:00,
2013-11-10 10:27:00,64.8,37.9,30.07,West,278,3.0,5.0,37,0.00,,,0.00,584.00,VWS V14.01,2013-11-10 15:27:00,
2013-11-10 10:28:00,65.0,38.1,30.07,WNW,288,4.0,4.0,37,0.00,,,0.00,584.00,VWS V14.01,2013-11-10 15:28:00,
2013-11-10 10:29:00,65.0,38.1,30.07,WNW,293,0.0,5.0,37,0.00,,,0.00,585.00,VWS V14.01,2013-11-10 15:29:00,
2013-11-10 10:30:00,65.2,38.3,30.07,West,277,4.0,4.0,37,0.00,,,0.00,587.00,VWS V14.01,2013-11-10 15:30:00,
2013-11-10 10:31:00,64.7,39.2,30.08,WNW,301,0.0,5.0,39,0.00,,,0.00,578.00,VWS V14.01,2013-11-10 15:31:00,
2013-11-10 10:32:00,65.3,38.4,30.07,North,357,6.0,11.0,37,0.00,,,0.00,589.00,VWS V14.01,2013-11-10 15:32:00,
2013-11-10 10:33:00,65.5,37.9,30.07,NW,318,5.0,9.0,36,0.00,,,0.00,594.00,VWS V14.01,2013-11-10 15:33:00,
2013-11-10 10:34:00,65.5,37.9,30.07,SW,234,1.0,10.0,36,0.00,,,0.00,596.00,VWS V14.01,2013-11-10 15:34:00,
2013-11-10 10:35:00,65.5,37.9,30.07,North,8,8.0,9.0,36,0.00,,,0.00,594.00,VWS V14.01,2013-11-10 15:35:00,
2013-11-10 10:36:00,65.2,38.3,30.07,WNW,291,3.0,3.0,37,0.00,,,0.00,587.00,VWS V14.01,2013-11-10 15:36:00,
2013-11-10 10:37:00,65.6,38.0,30.07,NNW,337,6.0,12.0,36,0.00,,,0.00,598.00,VWS V14.01,2013-11-10 15:37:00,
2013-11-10 10:38:00,65.6,37.2,30.07,NNW,333,7.0,10.0,35,0.00,,,0.00,596.00,VWS V14.01,2013-11-10 15:38:00,
2013-11-10 10:39:00,65.6,37.2,30.07,WNW,300,7.0,12.0,35,0.00,,,0.00,598.00,VWS V14.01,2013-11-10 15:39:00,
2013-11-10 10:40:00,65.6,36.5,30.07,WNW,300,7.0,9.0,34,0.00,,,0.00,603.00,VWS V14.01,2013-11-10 15:40:00,
2013-11-10 10:41:00,65.5,37.9,30.07,North,358,9.0,9.0,36,0.00,,,0.00,594.00,VWS V14.01,2013-11-10 15:41:00,
2013-11-10 10:42:00,65.6,37.2,30.07,WNW,302,7.0,11.0,35,0.00,,,0.00,601.00,VWS V14.01,2013-11-10 15:42:00,
2013-11-10 10:43:00,65.6,37.2,30.07,NW,324,6.0,12.0,35,0.00,,,0.00,603.00,VWS V14.01,2013-11-10 15:43:00,
2013-11-10 10:44:00,65.5,37.2,30.07,NNW,332,0.0,6.0,35,0.00,,,0.00,605.00,VWS V14.01,2013-11-10 15:44:00,
2013-11-10 10:45:00,65.6,37.2,30.07,WNW,297,0.0,9.0,35,0.00,,,0.00,608.00,VWS V14.01,2013-11-10 15:45:00,
2013-11-10 10:46:00,65.6,36.5,30.07,WNW,299,7.0,8.0,34,0.00,,,0.00,598.00,VWS V14.01,2013-11-10 15:46:00,
2013-11-10 10:47:00,65.6,38.0,30.07,WNW,290,0.0,6.0,36,0.00,,,0.00,610.00,VWS V14.01,2013-11-10 15:47:00,
2013-11-10 10:48:00,65.6,39.3,30.07,WNW,290,0.0,2.0,38,0.00,,,0.00,610.00,VWS V14.01,2013-11-10 15:48:00,
2013-11-10 10:49:00,65.8,38.8,30.07,WNW,295,0.0,3.0,37,0.00,,,0.00,612.00,VWS V14.01,2013-11-10 15:49:00,
2013-11-10 10:50:00,65.8,38.8,30.07,NW,307,5.0,6.0,37,0.00,,,0.00,612.00,VWS V14.01,2013-11-10 15:50:00,
2013-11-10 10:51:00,65.5,37.2,30.07,WNW,303,5.0,9.0,35,0.00,,,0.00,606.00,VWS V14.01,2013-11-10 15:51:00,
2013-11-10 10:52:00,66.1,37.7,30.07,West,270,4.0,6.0,35,0.00,,,0.00,619.00,VWS V14.01,2013-11-10 15:52:00,
2013-11-10 10:53:00,66.1,37.7,30.07,NW,317,0.0,4.0,35,0.00,,,0.00,619.00,VWS V14.01,2013-11-10 15:53:00,
2013-11-10 10:54:00,66.3,37.8,30.07,South,172,2.0,5.0,35,0.00,,,0.00,619.00,VWS V14.01,2013-11-10 15:54:00,
2013-11-10 10:55:00,66.4,37.9,30.07,West,262,0.0,6.0,35,0.00,,,0.00,619.00,VWS V14.01,2013-11-10 15:55:00,
2013-11-10 10:56:00,65.8,38.8,30.07,WNW,284,4.0,4.0,37,0.00,,,0.00,612.00,VWS V14.01,2013-11-10 15:56:00,
2013-11-10 10:57:00,66.6,37.4,30.07,North,1,4.0,6.0,34,0.00,,,0.00,626.00,VWS V14.01,2013-11-10 15:57:00,
2013-11-10 10:58:00,66.6,36.6,30.07,WNW,294,0.0,4.0,33,0.00,,,0.00,626.00,VWS V14.01,2013-11-10 15:58:00,
2013-11-10 10:59:00,66.8,38.3,30.07,NW,320,5.0,6.0,35,0.00,,,0.00,626.00,VWS V14.01,2013-11-10 15:59:00,
2013-11-10 11:00:00,66.9,36.9,30.06,WNW,288,6.0,14.0,33,0.00,,,0.00,626.00,VWS V14.01,2013-11-10 16:00:00,
2013-11-10 11:01:00,66.3,37.1,30.07,West,262,0.0,6.0,34,0.00,,,0.00,619.00,VWS V14.01,2013-11-10 16:01:00,
2013-11-10 11:02:00,66.9,36.9,30.06,NNW,333,8.0,8.0,33,0.00,,,0.00,631.00,VWS V14.01,2013-11-10 16:02:00,
2013-11-10 11:03:00,66.9,36.9,30.06,West,268,7.0,10.0,33,0.00,,,0.00,631.00,VWS V14.01,2013-11-10 16:03:00,
2013-11-10 11:04:00,66.9,36.1,30.06,WNW,298,6.0,7.0,32,0.00,,,0.00,631.00,VWS V14.01,2013-11-10 16:04:00,
2013-11-10 11:05:00,66.9,36.9,30.06,West,276,3.0,8.0,33,0.00,,,0.00,631.00,VWS V14.01,2013-11-10 16:05:00,
2013-11-10 11:06:00,66.9,36.9,30.06,West,276,4.0,14.0,33,0.00,,,0.00,626.00,VWS V14.01,2013-11-10 16:06:00,
2013-11-10 11:07:00,66.9,38.4,30.06,NW,320,0.0,5.0,35,0.00,,,0.00,635.00,VWS V14.01,2013-11-10 16:07:00,
2013-11-10 11:08:00,66.9,37.7,30.06,WNW,294,7.0,7.0,34,0.00,,,0.00,631.00,VWS V14.01,2013-11-10 16:08:00,
2013-11-10 11:09:00,66.9,36.9,30.06,West,274,4.0,8.0,33,0.00,,,0.00,636.00,VWS V14.01,2013-11-10 16:09:00,
2013-11-10 11:10:00,66.9,36.9,30.06,West,276,2.0,4.0,33,0.00,,,0.00,640.00,VWS V14.01,2013-11-10 16:10:00,
2013-11-10 11:11:00,66.9,36.9,30.06,NW,304,5.0,8.0,33,0.00,,,0.00,631.00,VWS V14.01,2013-11-10 16:11:00,
2013-11-10 11:12:00,67.1,37.1,30.06,West,275,5.0,10.0,33,0.00,,,0.00,636.00,VWS V14.01,2013-11-10 16:12:00,
2013-11-10 11:13:00,67.1,36.3,30.06,West,270,6.0,8.0,32,0.00,,,0.00,640.00,VWS V14.01,2013-11-10 16:13:00,
2013-11-10 11:14:00,67.1,37.8,30.06,NW,315,2.0,6.0,34,0.00,,,0.00,640.00,VWS V14.01,2013-11-10 16:14:00,
2013-11-10 11:15:00,67.3,38.0,30.04,West,278,3.0,5.0,34,0.00,,,0.00,642.00,VWS V14.01,2013-11-10 16:15:00,
2013-11-10 11:16:00,66.9,36.9,30.06,West,276,0.0,4.0,33,0.00,,,0.00,640.00,VWS V14.01,2013-11-10 16:16:00,
2013-11-10 11:17:00,67.4,38.1,30.04,NW,320,2.0,2.0,34,0.00,,,0.00,643.00,VWS V14.01,2013-11-10 16:17:00,
2013-11-10 11:18:00,67.4,38.8,30.04,NNW,333,1.0,3.0,35,0.00,,,0.00,643.00,VWS V14.01,2013-11-10 16:18:00,
2013-11-10 11:19:00,67.6,38.3,30.04,North,357,4.0,7.0,34,0.00,,,0.00,645.00,VWS V14.01,2013-11-10 16:19:00,
2013-11-10 11:20:00,67.8,39.2,30.04,North,354,0.0,5.0,35,0.00,,,0.00,645.00,VWS V14.01,2013-11-10 16:20:00,
2013-11-10 11:21:00,67.1,37.8,30.04,NNW,328,0.0,2.0,34,0.00,,,0.00,640.00,VWS V14.01,2013-11-10 16:21:00,
2013-11-10 11:22:00,67.9,37.0,30.04,NW,309,5.0,10.0,32,0.00,,,0.00,647.00,VWS V14.01,2013-11-10 16:22:00,
2013-11-10 11:23:00,68.1,37.2,30.04,NW,304,3.0,5.0,32,0.00,,,0.00,647.00,VWS V14.01,2013-11-10 16:23:00,
2013-11-10 11:24:00,68.3,37.3,30.04,North,0,6.0,10.0,32,0.00,,,0.00,647.00,VWS V14.01,2013-11-10 16:24:00,
2013-11-10 11:25:00,68.3,36.5,30.04,North,358,6.0,6.0,31,0.00,,,0.00,649.00,VWS V14.01,2013-11-10 16:25:00,
2013-11-10 11:26:00,67.8,38.4,30.04,North,358,0.0,5.0,34,0.00,,,0.00,643.00,VWS V14.01,2013-11-10 16:26:00,
2013-11-10 11:27:00,68.4,36.6,30.04,WNW,297,12.0,12.0,31,0.00,,,0.00,649.00,VWS V14.01,2013-11-10 16:27:00,
2013-11-10 11:28:00,68.6,36.8,30.04,WNW,284,9.0,12.0,31,0.00,,,0.00,650.00,VWS V14.01,2013-11-10 16:28:00,
2013-11-10 11:29:00,68.6,36.0,30.04,NNW,328,6.0,9.0,30,0.00,,,0.00,650.00,VWS V14.01,2013-11-10 16:29:00,
2013-11-10 11:30:00,68.6,36.8,30.04,NW,325,8.0,8.0,31,0.00,,,0.00,650.00,VWS V14.01,2013-11-10 16:30:00,
2013-11-10 11:31:00,68.3,36.5,30.04,NW,306,0.0,6.0,31,0.00,,,0.00,649.00,VWS V14.01,2013-11-10 16:31:00,
2013-11-10 11:32:00,68.8,37.8,30.04,WNW,301,5.0,8.0,32,0.00,,,0.00,650.00,VWS V14.01,2013-11-10 16:32:00,
2013-11-10 11:33:00,68.8,37.0,30.04,West,278,0.0,5.0,31,0.00,,,0.00,652.00,VWS V14.01,2013-11-10 16:33:00,
2013-11-10 11:34:00,68.8,36.1,30.04,WNW,283,1.0,4.0,30,0.00,,,0.00,652.00,VWS V14.01,2013-11-10 16:34:00,
2013-11-10 11:35:00,68.9,37.0,30.04,WNW,283,0.0,1.0,31,0.00,,,0.00,652.00,VWS V14.01,2013-11-10 16:35:00,
2013-11-10 11:36:00,68.6,36.0,30.04,WNW,291,4.0,6.0,30,0.00,,,0.00,650.00,VWS V14.01,2013-11-10 16:36:00,
2013-11-10 11:37:00,69.1,38.8,30.04,North,351,6.0,7.0,33,0.00,,,0.00,656.00,VWS V14.01,2013-11-10 16:37:00,
2013-11-10 11:38:00,69.1,38.8,30.04,North,351,6.0,6.0,33,0.00,,,0.00,656.00,VWS V14.01,2013-11-10 16:38:00,
2013-11-10 11:39:00,69.1,36.4,30.04,North,354,4.0,9.0,30,0.00,,,0.00,654.00,VWS V14.01,2013-11-10 16:39:00,
2013-11-10 11:40:00,69.3,37.4,30.04,NW,322,0.0,5.0,31,0.00,,,0.00,656.00,VWS V14.01,2013-11-10 16:40:00,
2013-11-10 11:41:00,68.9,37.0,30.04,WNW,283,0.0,1.0,31,0.00,,,0.00,652.00,VWS V14.01,2013-11-10 16:41:00,
2013-11-10 11:42:00,69.4,37.5,30.04,West,271,6.0,6.0,31,0.00,,,0.00,656.00,VWS V14.01,2013-11-10 16:42:00,
2013-11-10 11:43:00,69.6,36.8,30.04,West,272,0.0,9.0,30,0.00,,,0.00,659.00,VWS V14.01,2013-11-10 16:43:00,
2013-11-10 11:44:00,69.6,36.8,30.04,WNW,294,6.0,6.0,30,0.00,,,0.00,659.00,VWS V14.01,2013-11-10 16:44:00,
2013-11-10 11:45:00,69.6,36.8,30.03,West,278,0.0,10.0,30,0.00,,,0.00,659.00,VWS V14.01,2013-11-10 16:45:00,
2013-11-10 11:46:00,69.3,37.4,30.04,NW,322,0.0,5.0,31,0.00,,,0.00,656.00,VWS V14.01,2013-11-10 16:46:00,
2013-11-10 11:47:00,69.8,36.1,30.03,North,358,11.0,11.0,29,0.00,,,0.00,661.00,VWS V14.01,2013-11-10 16:47:00,
2013-11-10 11:48:00,69.9,37.9,30.03,WNW,300,3.0,11.0,31,0.00,,,0.00,657.00,VWS V14.01,2013-11-10 16:48:00,
2013-11-10 11:49:00,69.9,36.2,30.03,West,261,4.0,5.0,29,0.00,,,0.00,661.00,VWS V14.01,2013-11-10 16:49:00,
2013-11-10 11:50:00,70.1,37.3,30.03,NW,305,6.0,10.0,30,0.00,,,0.00,659.00,VWS V14.01,2013-11-10 16:50:00,
2013-11-10 11:51:00,69.6,36.8,30.03,West,278,1.0,10.0,30,0.00,,,0.00,659.00,VWS V14.01,2013-11-10 16:51:00,
2013-11-10 11:52:00,70.1,35.5,30.03,WNW,290,5.0,11.0,28,0.00,,,0.00,659.00,VWS V14.01,2013-11-10 16:52:00,
2013-11-10 11:53:00,70.1,35.5,30.03,West,266,4.0,6.0,28,0.00,,,0.00,661.00,VWS V14.01,2013-11-10 16:53:00,
2013-11-10 11:54:00,70.1,35.5,30.03,WNW,294,3.0,7.0,28,0.00,,,0.00,661.00,VWS V14.01,2013-11-10 16:54:00,
2013-11-10 11:55:00,70.1,36.4,30.03,West,275,6.0,12.0,29,0.00,,,0.00,657.00,VWS V14.01,2013-11-10 16:55:00,
2013-11-10 11:56:00,70.1,37.3,30.03,WNW,296,10.0,10.0,30,0.00,,,0.00,659.00,VWS V14.01,2013-11-10 16:56:00,
2013-11-10 11:57:00,70.1,35.5,30.03,WSW,255,5.0,6.0,28,0.00,,,0.00,657.00,VWS V14.01,2013-11-10 16:57:00,
2013-11-10 11:58:00,70.1,36.4,30.03,WSW,253,5.0,7.0,29,0.00,,,0.00,657.00,VWS V14.01,2013-11-10 16:58:00,
2013-11-10 11:59:00,70.3,35.7,30.03,WSW,247,0.0,6.0,28,0.00,,,0.00,657.00,VWS V14.01,2013-11-10 16:59:00,
2013-11-10 12:00:00,70.3,36.6,30.01,NW,307,6.0,7.0,29,0.00,,,0.00,659.00,VWS V14.01,2013-11-10 17:00:00,
2013-11-10 12:01:00,70.1,35.5,30.03,WNW,287,12.0,12.0,28,0.00,,,0.00,661.00,VWS V14.01,2013-11-10 17:01:00,
2013-11-10 12:02:00,70.4,36.7,30.01,West,271,5.0,5.0,29,0.00,,,0.00,659.00,VWS V14.01,2013-11-10 17:02:00,
2013-11-10 12:03:00,70.4,35.8,30.01,WSW,258,7.0,11.0,28,0.00,,,0.00,661.00,VWS V14.01,2013-11-10 17:03:00,
2013-11-10 12:04:00,70.4,36.7,30.01,WNW,299,10.0,10.0,29,0.00,,,0.00,659.00,VWS V14.01,2013-11-10 17:04:00,
2013-11-10 12:05:00,70.4,34.9,30.01,West,274,10.0,14.0,27,0.00,,,0.00,659.00,VWS V14.01,2013-11-10 17:05:00,
2013-11-10 12:06:00,70.3,35.7,30.01,WNW,300,6.0,7.0,28,0.00,,,0.00,659.00,VWS V14.01,2013-11-10 17:06:00,
2013-11-10 12:07:00,70.4,35.8,30.01,WNW,295,5.0,6.0,28,0.00,,,0.00,657.00,VWS V14.01,2013-11-10 17:07:00,
2013-11-10 12:08:00,70.6,36.8,30.01,West,271,1.0,5.0,29,0.00,,,0.00,657.00,VWS V14.01,2013-11-10 17:08:00,
2013-11-10 12:09:00,70.6,37.7,30.01,West,260,12.0,12.0,30,0.00,,,0.00,657.00,VWS V14.01,2013-11-10 17:09:00,
2013-11-10 12:10:00,70.8,35.2,30.01,SW,231,12.0,12.0,27,0.00,,,0.00,657.00,VWS V14.01,2013-11-10 17:10:00,
2013-11-10 12:11:00,70.4,34.9,30.01,West,265,9.0,10.0,27,0.00,,,0.00,659.00,VWS V14.01,2013-11-10 17:11:00,
2013-11-10 12:12:00,70.8,35.2,30.01,West,265,6.0,13.0,27,0.00,,,0.00,656.00,VWS V14.01,2013-11-10 17:12:00,
2013-11-10 12:13:00,70.8,35.2,30.01,WSW,240,2.0,11.0,27,0.00,,,0.00,657.00,VWS V14.01,2013-11-10 17:13:00,
2013-11-10 12:14:00,70.8,35.2,30.01,SW,230,6.0,15.0,27,0.00,,,0.00,656.00,VWS V14.01,2013-11-10 17:14:00,
2013-11-10 12:15:00,70.6,35.0,30.01,West,281,9.0,12.0,27,0.00,,,0.00,657.00,VWS V14.01,2013-11-10 17:15:00,
2013-11-10 12:16:00,70.8,35.2,30.01,West,262,6.0,10.0,27,0.00,,,0.00,656.00,VWS V14.01,2013-11-10 17:16:00,
2013-11-10 12:17:00,70.8,34.2,30.01,West,276,11.0,13.0,26,0.00,,,0.00,654.00,VWS V14.01,2013-11-10 17:17:00,
2013-11-10 12:18:00,70.8,34.2,30.01,WSW,246,11.0,12.0,26,0.00,,,0.00,654.00,VWS V14.01,2013-11-10 17:18:00,
2013-11-10 12:19:00,70.8,34.2,30.01,WNW,289,13.0,14.0,26,0.00,,,0.00,654.00,VWS V14.01,2013-11-10 17:19:00,
2013-11-10 12:20:00,70.8,34.2,30.01,West,271,8.0,14.0,26,0.00,,,0.00,656.00,VWS V14.01,2013-11-10 17:20:00,
2013-11-10 12:21:00,70.6,34.1,30.01,WSW,251,9.0,12.0,26,0.00,,,0.00,652.00,VWS V14.01,2013-11-10 17:21:00,
2013-11-10 12:22:00,70.6,34.1,30.01,WSW,257,9.0,9.0,26,0.00,,,0.00,654.00,VWS V14.01,2013-11-10 17:22:00,
2013-11-10 12:23:00,70.6,34.1,30.01,West,265,4.0,10.0,26,0.00,,,0.00,652.00,VWS V14.01,2013-11-10 17:23:00,
2013-11-10 12:24:00,70.6,35.0,30.01,West,276,8.0,8.0,27,0.00,,,0.00,649.00,VWS V14.01,2013-11-10 17:24:00,
2013-11-10 12:25:00,70.6,34.1,30.01,NNW,331,10.0,13.0,26,0.00,,,0.00,654.00,VWS V14.01,2013-11-10 17:25:00,
2013-11-10 12:26:00,70.6,34.1,30.01,West,269,12.0,14.0,26,0.00,,,0.00,649.00,VWS V14.01,2013-11-10 17:26:00,
2013-11-10 12:27:00,70.8,34.2,30.01,WNW,298,7.0,13.0,26,0.00,,,0.00,650.00,VWS V14.01,2013-11-10 17:27:00,
2013-11-10 12:28:00,70.8,34.2,30.01,North,349,11.0,11.0,26,0.00,,,0.00,650.00,VWS V14.01,2013-11-10 17:28:00,
2013-11-10 12:29:00,70.8,34.2,30.01,NNW,330,0.0,14.0,26,0.00,,,0.00,649.00,VWS V14.01,2013-11-10 17:29:00,
2013-11-10 12:30:00,70.8,35.2,30.01,West,269,9.0,11.0,27,0.00,,,0.00,649.00,VWS V14.01,2013-11-10 17:30:00,
2013-11-10 12:31:00,71.1,34.5,30.00,West,269,2.0,7.0,26,0.00,,,0.00,649.00,VWS V14.01,2013-11-10 17:31:00,
2013-11-10 12:32:00,71.1,35.5,30.00,WNW,290,12.0,12.0,27,0.00,,,0.00,645.00,VWS V14.01,2013-11-10 17:32:00,
2013-11-10 12:33:00,71.3,34.7,30.00,WNW,294,4.0,12.0,26,0.00,,,0.00,647.00,VWS V14.01,2013-11-10 17:33:00,
2013-11-10 12:34:00,71.5,34.8,30.00,West,269,14.0,14.0,26,0.00,,,0.00,649.00,VWS V14.01,2013-11-10 17:34:00,
2013-11-10 12:35:00,70.9,34.3,30.00,North,358,0.0,2.0,26,0.00,,,0.00,649.00,VWS V14.01,2013-11-10 17:35:00,
2013-11-10 12:36:00,71.5,33.9,30.00,WNW,291,4.0,12.0,25,0.00,,,0.00,643.00,VWS V14.01,2013-11-10 17:36:00,
2013-11-10 12:37:00,71.5,33.9,30.00,West,281,6.0,13.0,25,0.00,,,0.00,643.00,VWS V14.01,2013-11-10 17:37:00,
2013-11-10 12:38:00,71.5,32.8,30.00,WNW,294,6.0,11.0,24,0.00,,,0.00,643.00,VWS V14.01,2013-11-10 17:38:00,
2013-11-10 12:39:00,71.5,33.9,30.00,West,281,6.0,12.0,25,0.00,,,0.00,642.00,VWS V14.01,2013-11-10 17:39:00,
2013-11-10 12:40:00,71.5,34.8,30.00,WNW,291,14.0,15.0,26,0.00,,,0.00,647.00,VWS V14.01,2013-11-10 17:40:00,
2013-11-10 12:41:00,71.5,32.8,30.00,WNW,301,12.0,17.0,24,0.00,,,0.00,642.00,VWS V14.01,2013-11-10 17:41:00,
2013-11-10 12:42:00,71.5,32.8,30.00,West,274,10.0,12.0,24,0.00,,,0.00,640.00,VWS V14.01,2013-11-10 17:42:00,
2013-11-10 12:43:00,71.5,33.9,30.00,WNW,292,5.0,10.0,25,0.00,,,0.00,638.00,VWS V14.01,2013-11-10 17:43:00,
2013-11-10 12:44:00,71.5,34.8,30.00,West,276,5.0,17.0,26,0.00,,,0.00,640.00,VWS V14.01,2013-11-10 17:44:00,
2013-11-10 12:45:00,71.5,34.8,30.00,West,272,13.0,13.0,26,0.00,,,0.00,642.00,VWS V14.01,2013-11-10 17:45:00,
2013-11-10 12:46:00,71.5,33.9,29.99,West,280,6.0,7.0,25,0.00,,,0.00,636.00,VWS V14.01,2013-11-10 17:46:00,
2013-11-10 12:47:00,71.5,33.9,29.99,WNW,286,8.0,17.0,25,0.00,,,0.00,638.00,VWS V14.01,2013-11-10 17:47:00,
2013-11-10 12:48:00,71.5,33.9,29.99,WSW,252,4.0,11.0,25,0.00,,,0.00,633.00,VWS V14.01,2013-11-10 17:48:00,
2013-11-10 12:49:00,71.5,33.9,29.99,WNW,282,9.0,9.0,25,0.00,,,0.00,633.00,VWS V14.01,2013-11-10 17:49:00,
2013-11-10 12:50:00,71.5,33.9,29.99,WNW,285,6.0,6.0,25,0.00,,,0.00,638.00,VWS V14.01,2013-11-10 17:50:00,
2013-11-10 12:51:00,71.5,33.9,29.99,WNW,288,4.0,10.0,25,0.00,,,0.00,631.00,VWS V14.01,2013-11-10 17:51:00,
2013-11-10 12:52:00,71.5,34.8,29.99,WSW,258,10.0,11.0,26,0.00,,,0.00,629.00,VWS V14.01,2013-11-10 17:52:00,
2013-11-10 12:53:00,71.6,34.9,29.99,NNW,347,1.0,10.0,26,0.00,,,0.00,629.00,VWS V14.01,2013-11-10 17:53:00,
2013-11-10 12:54:00,71.6,34.9,29.99,NW,312,12.0,12.0,26,0.00,,,0.00,629.00,VWS V14.01,2013-11-10 17:54:00,
2013-11-10 12:55:00,71.5,35.8,29.99,WNW,285,6.0,9.0,27,0.00,,,0.00,633.00,VWS V14.01,2013-11-10 17:55:00,
2013-11-10 12:56:00,71.8,36.0,29.99,West,268,6.0,12.0,27,0.00,,,0.00,626.00,VWS V14.01,2013-11-10 17:56:00,
2013-11-10 12:57:00,71.8,34.1,29.99,West,273,10.0,15.0,25,0.00,,,0.00,626.00,VWS V14.01,2013-11-10 17:57:00,
2013-11-10 12:58:00,71.6,34.0,29.99,West,278,12.0,14.0,25,0.00,,,0.00,624.00,VWS V14.01,2013-11-10 17:58:00,
2013-11-10 12:59:00,71.6,34.0,29.99,WNW,292,10.0,13.0,25,0.00,,,0.00,624.00,VWS V14.01,2013-11-10 17:59:00,
2013-11-10 13:00:00,71.6,34.9,29.99,NW,312,12.0,12.0,26,0.00,,,0.00,629.00,VWS V14.01,2013-11-10 18:00:00,
2013-11-10 13:01:00,71.5,33.9,29.99,WNW,284,9.0,13.0,25,0.00,,,0.00,622.00,VWS V14.01,2013-11-10 18:01:00,
2013-11-10 13:02:00,71.5,34.8,29.99,West,265,6.0,10.0,26,0.00,,,0.00,621.00,VWS V14.01,2013-11-10 18:02:00,
2013-11-10 13:03:00,71.5,34.8,29.99,NW,312,8.0,11.0,26,0.00,,,0.00,621.00,VWS V14.01,2013-11-10 18:03:00,
2013-11-10 13:04:00,71.5,34.8,29.99,West,278,2.0,8.0,26,0.00,,,0.00,617.00,VWS V14.01,2013-11-10 18:04:00,
2013-11-10 13:05:00,71.6,34.0,29.99,West,266,12.0,12.0,25,0.00,,,0.00,622.00,VWS V14.01,2013-11-10 18:05:00,
2013-11-10 13:06:00,71.6,35.9,29.99,WNW,286,14.0,15.0,27,0.00,,,0.00,617.00,VWS V14.01,2013-11-10 18:06:00,
2013-11-10 13:07:00,71.6,34.9,29.99,WNW,292,6.0,14.0,26,0.00,,,0.00,615.00,VWS V14.01,2013-11-10 18:07:00,
2013-11-10 13:08:00,71.6,34.9,29.99,WNW,289,12.0,12.0,26,0.00,,,0.00,613.00,VWS V14.01,2013-11-10 18:08:00,
2013-11-10 13:09:00,71.6,34.0,29.99,NW,309,5.0,13.0,25,0.00,,,0.00,612.00,VWS V14.01,2013-11-10 18:09:00,
2013-11-10 13:10:00,71.5,34.8,29.99,SSW,207,3.0,12.0,26,0.00,,,0.00,617.00,VWS V14.01,2013-11-10 18:10:00,
2013-11-10 13:11:00,71.8,35.1,29.99,WNW,286,3.0,11.0,26,0.00,,,0.00,606.00,VWS V14.01,2013-11-10 18:11:00,
2013-11-10 13:12:00,71.8,34.1,29.99,West,261,9.0,13.0,25,0.00,,,0.00,606.00,VWS V14.01,2013-11-10 18:12:00,
2013-11-10 13:13:00,71.8,34.1,29.99,West,277,8.0,12.0,25,0.00,,,0.00,605.00,VWS V14.01,2013-11-10 18:13:00,
2013-11-10 13:14:00,71.8,34.1,29.99,West,274,8.0,10.0,25,0.00,,,0.00,605.00,VWS V14.01,2013-11-10 18:14:00,
2013-11-10 13:15:00,71.6,34.0,29.99,WNW,303,1.0,5.0,25,0.00,,,0.00,610.00,VWS V14.01,2013-11-10 18:15:00,
2013-11-10 13:16:00,71.8,34.1,29.98,West,278,7.0,9.0,25,0.00,,,0.00,603.00,VWS V14.01,2013-11-10 18:16:00,
2013-11-10 13:17:00,71.8,35.1,29.98,WSW,252,6.0,9.0,26,0.00,,,0.00,598.00,VWS V14.01,2013-11-10 18:17:00,
2013-11-10 13:18:00,72.0,35.3,29.98,WNW,283,2.0,6.0,26,0.00,,,0.00,599.00,VWS V14.01,2013-11-10 18:18:00,
2013-11-10 13:19:00,72.0,35.3,29.98,NW,317,7.0,9.0,26,0.00,,,0.00,596.00,VWS V14.01,2013-11-10 18:19:00,
2013-11-10 13:20:00,71.8,35.1,29.98,West,274,14.0,14.0,26,0.00,,,0.00,603.00,VWS V14.01,2013-11-10 18:20:00,
2013-11-10 13:21:00,72.1,34.4,29.98,NW,323,10.0,12.0,25,0.00,,,0.00,596.00,VWS V14.01,2013-11-10 18:21:00,
2013-11-10 13:22:00,72.1,35.4,29.98,West,265,6.0,10.0,26,0.00,,,0.00,591.00,VWS V14.01,2013-11-10 18:22:00,
2013-11-10 13:23:00,72.1,34.4,29.98,West,265,13.0,16.0,25,0.00,,,0.00,591.00,VWS V14.01,2013-11-10 18:23:00,
2013-11-10 13:25:00,72.0,35.3,29.98,NW,326,10.0,10.0,26,0.00,,,0.00,596.00,VWS V14.01,2013-11-10 18:25:00,
2013-11-10 13:26:00,72.1,34.4,29.98,West,267,6.0,11.0,25,0.00,,,0.00,587.00,VWS V14.01,2013-11-10 18:26:00,
2013-11-10 13:27:00,72.1,33.3,29.98,WNW,300,4.0,11.0,24,0.00,,,0.00,587.00,VWS V14.01,2013-11-10 18:27:00,
2013-11-10 13:28:00,72.1,33.3,29.98,WNW,297,10.0,10.0,24,0.00,,,0.00,584.00,VWS V14.01,2013-11-10 18:28:00,
2013-11-10 13:29:00,72.1,34.4,29.98,West,262,7.0,10.0,25,0.00,,,0.00,580.00,VWS V14.01,2013-11-10 18:29:00,
2013-11-10 13:30:00,72.1,33.3,29.98,NW,315,14.0,14.0,24,0.00,,,0.00,591.00,VWS V14.01,2013-11-10 18:30:00,
2013-11-10 13:31:00,72.3,32.5,29.97,West,272,12.0,15.0,23,0.00,,,0.00,582.00,VWS V14.01,2013-11-10 18:31:00,
2013-11-10 13:32:00,72.3,34.5,29.97,NW,311,15.0,15.0,25,0.00,,,0.00,577.00,VWS V14.01,2013-11-10 18:32:00,
2013-11-10 13:33:00,72.3,33.5,29.97,WNW,285,7.0,16.0,24,0.00,,,0.00,575.00,VWS V14.01,2013-11-10 18:33:00,
2013-11-10 13:34:00,72.3,33.5,29.97,WSW,245,8.0,14.0,24,0.00,,,0.00,575.00,VWS V14.01,2013-11-10 18:34:00,
2013-11-10 13:35:00,72.1,34.4,29.97,WSW,253,5.0,12.0,25,0.00,,,0.00,580.00,VWS V14.01,2013-11-10 18:35:00,
2013-11-10 13:36:00,72.1,33.3,29.97,NNW,338,7.0,16.0,24,0.00,,,0.00,571.00,VWS V14.01,2013-11-10 18:36:00,
2013-11-10 13:37:00,72.3,34.5,29.97,WNW,287,10.0,15.0,25,0.00,,,0.00,571.00,VWS V14.01,2013-11-10 18:37:00,
2013-11-10 13:38:00,72.3,34.5,29.97,West,271,7.0,12.0,25,0.00,,,0.00,571.00,VWS V14.01,2013-11-10 18:38:00,
2013-11-10 13:39:00,72.3,34.5,29.97,West,276,7.0,11.0,25,0.00,,,0.00,571.00,VWS V14.01,2013-11-10 18:39:00,
2013-11-10 13:40:00,72.3,33.5,29.97,West,264,12.0,12.0,24,0.00,,,0.00,575.00,VWS V14.01,2013-11-10 18:40:00,
2013-11-10 13:41:00,72.3,34.5,29.97,WNW,300,6.0,16.0,25,0.00,,,0.00,566.00,VWS V14.01,2013-11-10 18:41:00,
2013-11-10 13:42:00,72.3,33.5,29.97,West,281,9.0,12.0,24,0.00,,,0.00,563.00,VWS V14.01,2013-11-10 18:42:00,
2013-11-10 13:43:00,72.5,33.7,29.97,West,276,6.0,14.0,24,0.00,,,0.00,561.00,VWS V14.01,2013-11-10 18:43:00,
2013-11-10 13:44:00,72.5,33.7,29.97,WNW,289,10.0,18.0,24,0.00,,,0.00,561.00,VWS V14.01,2013-11-10 18:44:00,
2013-11-10 13:45:00,72.3,34.5,29.97,NNW,338,5.0,7.0,25,0.00,,,0.00,568.00,VWS V14.01,2013-11-10 18:45:00,
2013-11-10 13:46:00,72.5,33.7,29.97,NW,312,11.0,15.0,24,0.00,,,0.00,554.00,VWS V14.01,2013-11-10 18:46:00,
2013-11-10 13:47:00,72.5,32.6,29.97,NNW,335,9.0,13.0,23,0.00,,,0.00,554.00,VWS V14.01,2013-11-10 18:47:00,
2013-11-10 13:48:00,72.5,33.7,29.97,NW,316,10.0,15.0,24,0.00,,,0.00,552.00,VWS V14.01,2013-11-10 18:48:00,
2013-11-10 13:49:00,72.5,33.7,29.97,NW,304,13.0,13.0,24,0.00,,,0.00,550.00,VWS V14.01,2013-11-10 18:49:00,
2013-11-10 13:50:00,72.5,33.7,29.97,WNW,297,7.0,14.0,24,0.00,,,0.00,559.00,VWS V14.01,2013-11-10 18:50:00,
2013-11-10 13:51:00,72.5,32.6,29.97,WSW,252,5.0,16.0,23,0.00,,,0.00,545.00,VWS V14.01,2013-11-10 18:51:00,
2013-11-10 13:52:00,72.5,32.6,29.97,WNW,293,3.0,10.0,23,0.00,,,0.00,543.00,VWS V14.01,2013-11-10 18:52:00,
2013-11-10 13:53:00,72.5,33.7,29.97,West,271,4.0,10.0,24,0.00,,,0.00,543.00,VWS V14.01,2013-11-10 18:53:00,
2013-11-10 13:54:00,72.5,33.7,29.97,North,357,13.0,18.0,24,0.00,,,0.00,540.00,VWS V14.01,2013-11-10 18:54:00,
2013-11-10 13:55:00,72.5,33.7,29.97,West,272,11.0,14.0,24,0.00,,,0.00,548.00,VWS V14.01,2013-11-10 18:55:00,
2013-11-10 13:56:00,72.5,32.6,29.97,WSW,239,4.0,13.0,23,0.00,,,0.00,538.00,VWS V14.01,2013-11-10 18:56:00,
2013-11-10 13:57:00,72.5,33.7,29.97,West,274,8.0,17.0,24,0.00,,,0.00,536.00,VWS V14.01,2013-11-10 18:57:00,
2013-11-10 13:58:00,72.5,32.6,29.97,NW,309,16.0,25.0,23,0.00,,,0.00,531.00,VWS V14.01,2013-11-10 18:58:00,
2013-11-10 13:59:00,72.5,31.5,29.97,West,274,9.0,21.0,22,0.00,,,0.00,531.00,VWS V14.01,2013-11-10 18:59:00,
2013-11-10 14:00:00,72.5,32.6,29.97,NNW,348,9.0,13.0,23,0.00,,,0.00,540.00,VWS V14.01,2013-11-10 19:00:00,
2013-11-10 14:01:00,72.5,32.6,29.97,WNW,288,18.0,28.0,23,0.00,,,0.00,527.00,VWS V14.01,2013-11-10 19:01:00,
2013-11-10 14:02:00,72.3,31.4,29.97,West,280,21.0,21.0,22,0.00,,,0.00,526.00,VWS V14.01,2013-11-10 19:02:00,
2013-11-10 14:03:00,72.3,31.4,29.97,NW,306,7.0,21.0,22,0.00,,,0.00,524.00,VWS V14.01,2013-11-10 19:03:00,
2013-11-10 14:04:00,72.3,32.5,29.97,WNW,285,13.0,18.0,23,0.00,,,0.00,520.00,VWS V14.01,2013-11-10 19:04:00,
2013-11-10 14:05:00,72.5,31.5,29.97,WNW,299,6.0,10.0,22,0.00,,,0.00,531.00,VWS V14.01,2013-11-10 19:05:00,
2013-11-10 14:06:00,72.1,32.3,29.97,West,269,15.0,16.0,23,0.00,,,0.00,517.00,VWS V14.01,2013-11-10 19:06:00,
2013-11-10 14:07:00,72.1,32.3,29.97,West,262,10.0,15.0,23,0.00,,,0.00,515.00,VWS V14.01,2013-11-10 19:07:00,
2013-11-10 14:08:00,72.1,32.3,29.97,WNW,283,8.0,15.0,23,0.00,,,0.00,512.00,VWS V14.01,2013-11-10 19:08:00,
2013-11-10 14:09:00,72.1,32.3,29.97,West,279,6.0,11.0,23,0.00,,,0.00,512.00,VWS V14.01,2013-11-10 19:09:00,
2013-11-10 14:10:00,72.1,32.3,29.97,NW,315,11.0,13.0,23,0.00,,,0.00,520.00,VWS V14.01,2013-11-10 19:10:00,
2013-11-10 14:11:00,72.3,33.5,29.97,West,276,4.0,12.0,24,0.00,,,0.00,504.00,VWS V14.01,2013-11-10 19:11:00,
2013-11-10 14:12:00,72.3,33.5,29.97,West,262,11.0,14.0,24,0.00,,,0.00,503.00,VWS V14.01,2013-11-10 19:12:00,
2013-11-10 14:13:00,72.3,32.5,29.97,WSW,257,11.0,13.0,23,0.00,,,0.00,503.00,VWS V14.01,2013-11-10 19:13:00,
2013-11-10 14:14:00,72.3,32.5,29.97,West,260,5.0,11.0,23,0.00,,,0.00,499.00,VWS V14.01,2013-11-10 19:14:00,
2013-11-10 14:15:00,72.1,32.3,29.97,WNW,289,3.0,8.0,23,0.00,,,0.00,510.00,VWS V14.01,2013-11-10 19:15:00,
2013-11-10 14:16:00,72.5,33.7,29.97,WNW,292,12.0,12.0,24,0.00,,,0.00,494.00,VWS V14.01,2013-11-10 19:16:00,
2013-11-10 14:18:00,72.5,32.6,29.97,West,260,3.0,8.0,23,0.00,,,0.00,490.00,VWS V14.01,2013-11-10 19:18:00,
2013-11-10 14:19:00,72.5,32.6,29.97,NW,304,3.0,10.0,23,0.00,,,0.00,489.00,VWS V14.01,2013-11-10 19:19:00,
2013-11-10 14:20:00,72.3,32.5,29.97,West,262,6.0,6.0,23,0.00,,,0.00,497.00,VWS V14.01,2013-11-10 19:20:00,
2013-11-10 14:21:00,72.7,33.9,29.97,NW,314,7.0,11.0,24,0.00,,,0.00,482.00,VWS V14.01,2013-11-10 19:21:00,
2013-11-10 14:22:00,72.8,32.9,29.97,WNW,300,8.0,10.0,23,0.00,,,0.00,480.00,VWS V14.01,2013-11-10 19:22:00,
2013-11-10 14:23:00,72.8,33.9,29.97,WNW,290,4.0,9.0,24,0.00,,,0.00,478.00,VWS V14.01,2013-11-10 19:23:00,
2013-11-10 14:24:00,72.8,32.9,29.97,WSW,248,0.0,5.0,23,0.00,,,0.00,476.00,VWS V14.01,2013-11-10 19:24:00,
2013-11-10 14:25:00,72.7,32.8,29.97,NW,304,0.0,3.0,23,0.00,,,0.00,487.00,VWS V14.01,2013-11-10 19:25:00,
2013-11-10 14:26:00,72.8,33.9,29.97,WSW,253,0.0,0.0,24,0.00,,,0.00,475.00,VWS V14.01,2013-11-10 19:26:00,
2013-11-10 14:27:00,73.0,34.1,29.97,NW,321,5.0,6.0,24,0.00,,,0.00,468.00,VWS V14.01,2013-11-10 19:27:00,
2013-11-10 14:28:00,73.2,34.3,29.97,NNW,333,0.0,5.0,24,0.00,,,0.00,466.00,VWS V14.01,2013-11-10 19:28:00,
2013-11-10 14:29:00,73.3,33.3,29.97,West,272,4.0,5.0,23,0.00,,,0.00,464.00,VWS V14.01,2013-11-10 19:29:00,
2013-11-10 14:30:00,72.8,33.9,29.97,WSW,253,0.0,0.0,24,0.00,,,0.00,475.00,VWS V14.01,2013-11-10 19:30:00,
2013-11-10 14:31:00,73.3,34.4,29.96,NW,305,4.0,10.0,24,0.00,,,0.00,469.00,VWS V14.01,2013-11-10 19:31:00,
2013-11-10 14:32:00,73.5,33.5,29.96,West,278,10.0,12.0,23,0.00,,,0.00,469.00,VWS V14.01,2013-11-10 19:32:00,
2013-11-10 14:33:00,73.5,33.5,29.96,WNW,286,12.0,12.0,23,0.00,,,0.00,462.00,VWS V14.01,2013-11-10 19:33:00,
2013-11-10 14:34:00,73.5,33.5,29.96,WNW,286,5.0,12.0,23,0.00,,,0.00,459.00,VWS V14.01,2013-11-10 19:34:00,
2013-11-10 14:35:00,73.3,34.4,29.96,West,276,3.0,5.0,24,0.00,,,0.00,464.00,VWS V14.01,2013-11-10 19:35:00,
2013-11-10 14:36:00,73.5,33.5,29.96,WSW,257,5.0,9.0,23,0.00,,,0.00,459.00,VWS V14.01,2013-11-10 19:36:00,
2013-11-10 14:37:00,73.3,32.2,29.96,West,280,5.0,11.0,22,0.00,,,0.00,452.00,VWS V14.01,2013-11-10 19:37:00,
2013-11-10 14:38:00,73.3,33.3,29.96,WNW,293,2.0,5.0,23,0.00,,,0.00,446.00,VWS V14.01,2013-11-10 19:38:00,
2013-11-10 14:39:00,73.3,33.3,29.96,West,268,9.0,9.0,23,0.00,,,0.00,443.00,VWS V14.01,2013-11-10 19:39:00,
2013-11-10 14:40:00,73.5,33.5,29.96,WSW,254,2.0,5.0,23,0.00,,,0.00,459.00,VWS V14.01,2013-11-10 19:40:00,
2013-11-10 14:41:00,73.3,33.3,29.96,NW,304,6.0,9.0,23,0.00,,,0.00,439.00,VWS V14.01,2013-11-10 19:41:00,
2013-11-10 14:42:00,73.2,33.2,29.96,West,266,9.0,9.0,23,0.00,,,0.00,436.00,VWS V14.01,2013-11-10 19:42:00,
2013-11-10 14:43:00,73.2,33.2,29.96,NW,305,6.0,10.0,23,0.00,,,0.00,436.00,VWS V14.01,2013-11-10 19:43:00,
2013-11-10 14:45:00,73.3,33.3,29.96,NW,314,6.0,9.0,23,0.00,,,0.00,443.00,VWS V14.01,2013-11-10 19:45:00,
2013-11-10 14:46:00,73.0,34.1,29.96,WNW,297,6.0,10.0,24,0.00,,,0.00,427.00,VWS V14.01,2013-11-10 19:46:00,
2013-11-10 14:47:00,73.0,34.1,29.96,WSW,246,10.0,10.0,24,0.00,,,0.00,425.00,VWS V14.01,2013-11-10 19:47:00,
2013-11-10 14:48:00,73.0,33.0,29.96,West,264,9.0,10.0,23,0.00,,,0.00,422.00,VWS V14.01,2013-11-10 19:48:00,
2013-11-10 14:49:00,72.8,32.9,29.96,West,276,5.0,14.0,23,0.00,,,0.00,422.00,VWS V14.01,2013-11-10 19:49:00,
2013-11-10 14:50:00,73.2,34.3,29.96,North,0,10.0,10.0,24,0.00,,,0.00,438.00,VWS V14.01,2013-11-10 19:50:00,
2013-11-10 14:51:00,72.7,32.8,29.96,WNW,294,6.0,17.0,23,0.00,,,0.00,411.00,VWS V14.01,2013-11-10 19:51:00,
2013-11-10 14:52:00,72.7,32.8,29.96,WNW,299,10.0,17.0,23,0.00,,,0.00,330.00,VWS V14.01,2013-11-10 19:52:00,
2013-11-10 14:53:00,72.5,32.6,29.96,WNW,296,5.0,12.0,23,0.00,,,0.00,330.00,VWS V14.01,2013-11-10 19:53:00,
2013-11-10 14:54:00,72.5,32.6,29.96,WNW,293,7.0,11.0,23,0.00,,,0.00,128.00,VWS V14.01,2013-11-10 19:54:00,
2013-11-10 14:55:00,72.8,32.9,29.96,West,271,15.0,15.0,23,0.00,,,0.00,418.00,VWS V14.01,2013-11-10 19:55:00,
2013-11-10 14:56:00,72.3,33.5,29.96,WNW,302,6.0,7.0,24,0.00,,,0.00,171.00,VWS V14.01,2013-11-10 19:56:00,
2013-11-10 14:57:00,72.3,33.5,29.96,NW,309,7.0,7.0,24,0.00,,,0.00,65.00,VWS V14.01,2013-11-10 19:57:00,
2013-11-10 14:58:00,72.3,33.5,29.96,WNW,284,7.0,11.0,24,0.00,,,0.00,74.00,VWS V14.01,2013-11-10 19:58:00,
2013-11-10 14:59:00,72.3,33.5,29.96,West,280,4.0,10.0,24,0.00,,,0.00,76.00,VWS V14.01,2013-11-10 19:59:00,
2013-11-10 15:00:00,72.5,33.7,29.96,West,278,11.0,14.0,24,0.00,,,0.00,172.00,VWS V14.01,2013-11-10 20:00:00,
2013-11-10 15:01:00,72.1,32.3,29.96,WNW,303,6.0,10.0,23,0.00,,,0.00,81.00,VWS V14.01,2013-11-10 20:01:00,
2013-11-10 15:02:00,72.1,33.3,29.96,WSW,238,7.0,11.0,24,0.00,,,0.00,60.00,VWS V14.01,2013-11-10 20:02:00,
2013-11-10 15:03:00,72.0,32.2,29.96,NW,313,11.0,20.0,23,0.00,,,0.00,60.00,VWS V14.01,2013-11-10 20:03:00,
2013-11-10 15:04:00,72.0,32.2,29.96,WNW,298,16.0,16.0,23,0.00,,,0.00,62.00,VWS V14.01,2013-11-10 20:04:00,
2013-11-10 15:05:00,72.1,33.3,29.96,West,278,2.0,4.0,24,0.00,,,0.00,76.00,VWS V14.01,2013-11-10 20:05:00,
2013-11-10 15:06:00,71.8,32.0,29.96,NNW,342,7.0,11.0,23,0.00,,,0.00,107.00,VWS V14.01,2013-11-10 20:06:00,
2013-11-10 15:07:00,71.6,31.9,29.96,WNW,289,5.0,10.0,23,0.00,,,0.00,81.00,VWS V14.01,2013-11-10 20:07:00,
2013-11-10 15:08:00,71.6,32.9,29.96,NW,309,10.0,14.0,24,0.00,,,0.00,53.00,VWS V14.01,2013-11-10 20:08:00,
2013-11-10 15:09:00,71.5,32.8,29.96,WNW,286,1.0,10.0,24,0.00,,,0.00,51.00,VWS V14.01,2013-11-10 20:09:00,
2013-11-10 15:10:00,72.0,32.2,29.96,West,276,11.0,16.0,23,0.00,,,0.00,62.00,VWS V14.01,2013-11-10 20:10:00,
2013-11-10 15:11:00,71.3,32.7,29.96,West,262,10.0,12.0,24,0.00,,,0.00,63.00,VWS V14.01,2013-11-10 20:11:00,
2013-11-10 15:12:00,71.3,32.7,29.96,NNW,334,5.0,10.0,24,0.00,,,0.00,56.00,VWS V14.01,2013-11-10 20:12:00,
2013-11-10 15:13:00,71.3,32.7,29.96,NW,311,5.0,11.0,24,0.00,,,0.00,51.00,VWS V14.01,2013-11-10 20:13:00,
2013-11-10 15:14:00,71.1,32.5,29.96,NW,306,0.0,7.0,24,0.00,,,0.00,51.00,VWS V14.01,2013-11-10 20:14:00,
2013-11-10 15:15:00,71.5,32.8,29.96,WNW,286,0.0,1.0,24,0.00,,,0.00,51.00,VWS V14.01,2013-11-10 20:15:00,
2013-11-10 15:16:00,71.1,33.5,29.97,NW,314,6.0,6.0,25,0.00,,,0.00,53.00,VWS V14.01,2013-11-10 20:16:00,
2013-11-10 15:17:00,71.1,33.5,29.97,WNW,303,8.0,10.0,25,0.00,,,0.00,76.00,VWS V14.01,2013-11-10 20:17:00,
2013-11-10 15:18:00,71.1,33.5,29.97,NW,314,0.0,8.0,25,0.00,,,0.00,79.00,VWS V14.01,2013-11-10 20:18:00,
2013-11-10 15:19:00,71.1,33.5,29.97,West,269,1.0,4.0,25,0.00,,,0.00,67.00,VWS V14.01,2013-11-10 20:19:00,
2013-11-10 15:20:00,71.1,32.5,29.97,NW,319,0.0,0.0,24,0.00,,,0.00,51.00,VWS V14.01,2013-11-10 20:20:00,
2013-11-10 15:21:00,70.9,32.3,29.97,WNW,302,5.0,12.0,24,0.00,,,0.00,51.00,VWS V14.01,2013-11-10 20:21:00,
2013-11-10 15:22:00,70.9,33.4,29.97,WNW,282,0.0,6.0,25,0.00,,,0.00,54.00,VWS V14.01,2013-11-10 20:22:00,
2013-11-10 15:23:00,70.9,33.4,29.97,West,274,9.0,9.0,25,0.00,,,0.00,79.00,VWS V14.01,2013-11-10 20:23:00,
2013-11-10 15:24:00,70.9,33.4,29.97,NW,319,3.0,9.0,25,0.00,,,0.00,84.00,VWS V14.01,2013-11-10 20:24:00,
2013-11-10 15:25:00,71.1,33.5,29.97,NNW,335,2.0,2.0,25,0.00,,,0.00,51.00,VWS V14.01,2013-11-10 20:25:00,
2013-11-10 15:26:00,70.9,33.4,29.97,WNW,287,3.0,7.0,25,0.00,,,0.00,47.00,VWS V14.01,2013-11-10 20:26:00,
2013-11-10 15:27:00,70.9,33.4,29.97,West,274,0.0,7.0,25,0.00,,,0.00,47.00,VWS V14.01,2013-11-10 20:27:00,
2013-11-10 15:28:00,70.9,33.4,29.97,North,351,10.0,12.0,25,0.00,,,0.00,49.00,VWS V14.01,2013-11-10 20:28:00,
2013-11-10 15:29:00,70.8,33.3,29.97,SW,224,4.0,12.0,25,0.00,,,0.00,49.00,VWS V14.01,2013-11-10 20:29:00,
2013-11-10 15:30:00,70.9,33.4,29.97,West,271,2.0,3.0,25,0.00,,,0.00,72.00,VWS V14.01,2013-11-10 20:30:00,
2013-11-10 15:31:00,70.8,33.3,29.97,North,351,10.0,12.0,25,0.00,,,0.00,63.00,VWS V14.01,2013-11-10 20:31:00,
2013-11-10 15:32:00,70.8,32.3,29.97,WNW,297,7.0,13.0,24,0.00,,,0.00,46.00,VWS V14.01,2013-11-10 20:32:00,
2013-11-10 15:33:00,70.8,33.3,29.97,West,281,5.0,7.0,25,0.00,,,0.00,46.00,VWS V14.01,2013-11-10 20:33:00,
2013-11-10 15:34:00,70.8,33.3,29.97,West,277,7.0,12.0,25,0.00,,,0.00,47.00,VWS V14.01,2013-11-10 20:34:00,
2013-11-10 15:35:00,70.8,33.3,29.97,West,280,2.0,4.0,25,0.00,,,0.00,72.00,VWS V14.01,2013-11-10 20:35:00,
2013-11-10 15:36:00,70.8,33.3,29.97,West,271,8.0,13.0,25,0.00,,,0.00,51.00,VWS V14.01,2013-11-10 20:36:00,
2013-11-10 15:37:00,70.8,33.3,29.97,WNW,285,7.0,15.0,25,0.00,,,0.00,46.00,VWS V14.01,2013-11-10 20:37:00,
2013-11-10 15:38:00,70.8,33.3,29.97,West,259,1.0,7.0,25,0.00,,,0.00,46.00,VWS V14.01,2013-11-10 20:38:00,
2013-11-10 15:39:00,70.8,33.3,29.97,SSW,212,5.0,13.0,25,0.00,,,0.00,46.00,VWS V14.01,2013-11-10 20:39:00,
2013-11-10 15:40:00,70.8,33.3,29.97,West,270,13.0,13.0,25,0.00,,,0.00,47.00,VWS V14.01,2013-11-10 20:40:00,
2013-11-10 15:41:00,70.6,33.1,29.97,West,278,13.0,15.0,25,0.00,,,0.00,44.00,VWS V14.01,2013-11-10 20:41:00,
2013-11-10 15:42:00,70.6,32.1,29.97,WNW,287,13.0,13.0,24,0.00,,,0.00,44.00,VWS V14.01,2013-11-10 20:42:00,
2013-11-10 15:43:00,70.6,33.1,29.97,WSW,258,4.0,16.0,25,0.00,,,0.00,44.00,VWS V14.01,2013-11-10 20:43:00,
2013-11-10 15:44:00,70.6,33.1,29.97,WSW,256,6.0,11.0,25,0.00,,,0.00,44.00,VWS V14.01,2013-11-10 20:44:00,
2013-11-10 15:45:00,70.6,33.1,29.97,SW,222,12.0,20.0,25,0.00,,,0.00,46.00,VWS V14.01,2013-11-10 20:45:00,
2013-11-10 15:46:00,70.4,31.9,29.97,NNW,333,9.0,16.0,24,0.00,,,0.00,44.00,VWS V14.01,2013-11-10 20:46:00,
2013-11-10 15:47:00,70.4,32.9,29.97,WNW,283,6.0,12.0,25,0.00,,,0.00,42.00,VWS V14.01,2013-11-10 20:47:00,
2013-11-10 15:48:00,70.3,31.8,29.97,West,269,12.0,19.0,24,0.00,,,0.00,42.00,VWS V14.01,2013-11-10 20:48:00,
2013-11-10 15:49:00,70.3,32.8,29.97,WNW,300,5.0,12.0,25,0.00,,,0.00,42.00,VWS V14.01,2013-11-10 20:49:00,
2013-11-10 15:50:00,70.4,32.9,29.97,WNW,286,7.0,10.0,25,0.00,,,0.00,44.00,VWS V14.01,2013-11-10 20:50:00,
2013-11-10 15:51:00,70.3,31.8,29.97,WNW,297,11.0,11.0,24,0.00,,,0.00,42.00,VWS V14.01,2013-11-10 20:51:00,
2013-11-10 15:52:00,70.1,32.7,29.97,NW,305,3.0,11.0,25,0.00,,,0.00,40.00,VWS V14.01,2013-11-10 20:52:00,
2013-11-10 15:53:00,70.1,32.7,29.97,West,271,5.0,7.0,25,0.00,,,0.00,40.00,VWS V14.01,2013-11-10 20:53:00,
2013-11-10 15:54:00,70.1,32.7,29.97,WNW,290,2.0,10.0,25,0.00,,,0.00,40.00,VWS V14.01,2013-11-10 20:54:00,
2013-11-10 15:55:00,70.3,32.8,29.97,West,264,15.0,15.0,25,0.00,,,0.00,42.00,VWS V14.01,2013-11-10 20:55:00,
2013-11-10 15:56:00,69.9,32.5,29.97,NW,304,3.0,9.0,25,0.00,,,0.00,39.00,VWS V14.01,2013-11-10 20:56:00,
2013-11-10 15:57:00,69.9,32.5,29.97,West,277,3.0,8.0,25,0.00,,,0.00,39.00,VWS V14.01,2013-11-10 20:57:00,
2013-11-10 15:58:00,69.9,32.5,29.97,West,274,5.0,5.0,25,0.00,,,0.00,39.00,VWS V14.01,2013-11-10 20:58:00,
2013-11-10 15:59:00,69.9,33.5,29.97,WNW,296,11.0,14.0,26,0.00,,,0.00,37.00,VWS V14.01,2013-11-10 20:59:00,
2013-11-10 16:00:00,70.1,32.7,29.97,WNW,290,2.0,2.0,25,0.00,,,0.00,40.00,VWS V14.01,2013-11-10 21:00:00,
2013-11-10 16:01:00,69.8,32.4,29.98,West,269,3.0,5.0,25,0.00,,,0.00,35.00,VWS V14.01,2013-11-10 21:01:00,
2013-11-10 16:02:00,69.8,32.4,29.98,West,271,3.0,6.0,25,0.00,,,0.00,35.00,VWS V14.01,2013-11-10 21:02:00,
2013-11-10 16:03:00,69.6,32.2,29.98,WNW,292,3.0,4.0,25,0.00,,,0.00,35.00,VWS V14.01,2013-11-10 21:03:00,
2013-11-10 16:04:00,69.6,32.2,29.98,West,264,0.0,3.0,25,0.00,,,0.00,33.00,VWS V14.01,2013-11-10 21:04:00,
2013-11-10 16:05:00,69.8,33.4,29.98,WNW,290,6.0,13.0,26,0.00,,,0.00,37.00,VWS V14.01,2013-11-10 21:05:00,
2013-11-10 16:06:00,69.6,33.2,29.98,West,263,5.0,6.0,26,0.00,,,0.00,33.00,VWS V14.01,2013-11-10 21:06:00,
2013-11-10 16:07:00,69.6,33.2,29.98,West,264,4.0,5.0,26,0.00,,,0.00,32.00,VWS V14.01,2013-11-10 21:07:00,
2013-11-10 16:08:00,69.4,33.1,29.98,West,260,0.0,5.0,26,0.00,,,0.00,30.00,VWS V14.01,2013-11-10 21:08:00,
2013-11-10 16:09:00,69.4,33.1,29.98,West,263,0.0,2.0,26,0.00,,,0.00,30.00,VWS V14.01,2013-11-10 21:09:00,
2013-11-10 16:10:00,69.6,33.2,29.98,SW,226,4.0,5.0,26,0.00,,,0.00,33.00,VWS V14.01,2013-11-10 21:10:00,
2013-11-10 16:11:00,69.3,33.9,29.98,NW,308,0.0,3.0,27,0.00,,,0.00,28.00,VWS V14.01,2013-11-10 21:11:00,
2013-11-10 16:12:00,69.3,33.9,29.98,NW,308,0.0,0.0,27,0.00,,,0.00,28.00,VWS V14.01,2013-11-10 21:12:00,
2013-11-10 16:13:00,69.3,33.0,29.98,West,268,1.0,2.0,26,0.00,,,0.00,26.00,VWS V14.01,2013-11-10 21:13:00,
2013-11-10 16:14:00,69.1,32.8,29.98,West,276,7.0,11.0,26,0.00,,,0.00,26.00,VWS V14.01,2013-11-10 21:14:00,
2013-11-10 16:15:00,69.4,33.1,29.98,WNW,288,5.0,5.0,26,0.00,,,0.00,30.00,VWS V14.01,2013-11-10 21:15:00,
2013-11-10 16:16:00,69.1,33.7,29.98,West,267,7.0,7.0,27,0.00,,,0.00,25.00,VWS V14.01,2013-11-10 21:16:00,
2013-11-10 16:17:00,68.9,33.6,29.98,WNW,292,10.0,10.0,27,0.00,,,0.00,25.00,VWS V14.01,2013-11-10 21:17:00,
2013-11-10 16:18:00,68.9,33.6,29.98,WSW,252,4.0,10.0,27,0.00,,,0.00,23.00,VWS V14.01,2013-11-10 21:18:00,
2013-11-10 16:19:00,68.9,33.6,29.98,West,270,2.0,6.0,27,0.00,,,0.00,23.00,VWS V14.01,2013-11-10 21:19:00,
2013-11-10 16:20:00,69.1,32.8,29.98,West,280,4.0,7.0,26,0.00,,,0.00,26.00,VWS V14.01,2013-11-10 21:20:00,
2013-11-10 16:21:00,68.9,33.6,29.98,WNW,302,5.0,10.0,27,0.00,,,0.00,21.00,VWS V14.01,2013-11-10 21:21:00,
2013-11-10 16:22:00,68.8,33.5,29.98,West,262,6.0,7.0,27,0.00,,,0.00,21.00,VWS V14.01,2013-11-10 21:22:00,
2013-11-10 16:23:00,68.8,33.5,29.98,West,265,4.0,7.0,27,0.00,,,0.00,21.00,VWS V14.01,2013-11-10 21:23:00,
2013-11-10 16:24:00,68.8,33.5,29.98,West,259,4.0,5.0,27,0.00,,,0.00,19.00,VWS V14.01,2013-11-10 21:24:00,
2013-11-10 16:25:00,68.9,33.6,29.98,West,270,0.0,2.0,27,0.00,,,0.00,23.00,VWS V14.01,2013-11-10 21:25:00,
2013-11-10 16:26:00,68.6,34.2,29.98,WNW,294,2.0,9.0,28,0.00,,,0.00,19.00,VWS V14.01,2013-11-10 21:26:00,
2013-11-10 16:27:00,68.6,33.3,29.98,West,269,8.0,8.0,27,0.00,,,0.00,18.00,VWS V14.01,2013-11-10 21:27:00,
2013-11-10 16:28:00,68.6,33.3,29.98,West,265,5.0,8.0,27,0.00,,,0.00,18.00,VWS V14.01,2013-11-10 21:28:00,
2013-11-10 16:29:00,68.4,33.2,29.98,West,259,4.0,7.0,27,0.00,,,0.00,18.00,VWS V14.01,2013-11-10 21:29:00,
2013-11-10 16:30:00,68.8,33.5,29.98,WSW,250,4.0,4.0,27,0.00,,,0.00,19.00,VWS V14.01,2013-11-10 21:30:00,
2013-11-10 16:31:00,68.4,33.2,29.98,WSW,250,2.0,6.0,27,0.00,,,0.00,16.00,VWS V14.01,2013-11-10 21:31:00,
2013-11-10 16:32:00,68.4,33.2,29.98,West,276,0.0,5.0,27,0.00,,,0.00,16.00,VWS V14.01,2013-11-10 21:32:00,
2013-11-10 16:33:00,68.3,34.0,29.98,West,276,2.0,2.0,28,0.00,,,0.00,16.00,VWS V14.01,2013-11-10 21:33:00,
2013-11-10 16:34:00,68.3,34.0,29.98,West,273,1.0,3.0,28,0.00,,,0.00,16.00,VWS V14.01,2013-11-10 21:34:00,
2013-11-10 16:35:00,68.4,33.1,29.98,West,261,4.0,4.0,27,0.00,,,0.00,18.00,VWS V14.01,2013-11-10 21:35:00,
2013-11-10 16:36:00,68.1,33.8,29.98,WNW,300,4.0,10.0,28,0.00,,,0.00,14.00,VWS V14.01,2013-11-10 21:36:00,
2013-11-10 16:37:00,68.1,33.8,29.98,WNW,282,0.0,6.0,28,0.00,,,0.00,14.00,VWS V14.01,2013-11-10 21:37:00,
2013-11-10 16:38:00,68.1,33.8,29.98,WSW,247,0.0,1.0,28,0.00,,,0.00,14.00,VWS V14.01,2013-11-10 21:38:00,
2013-11-10 16:39:00,68.1,33.8,29.98,WSW,253,0.0,0.0,28,0.00,,,0.00,14.00,VWS V14.01,2013-11-10 21:39:00,
2013-11-10 16:40:00,68.3,34.0,29.98,West,273,0.0,1.0,28,0.00,,,0.00,14.00,VWS V14.01,2013-11-10 21:40:00,
2013-11-10 16:41:00,67.9,33.6,29.98,West,270,1.0,5.0,28,0.00,,,0.00,12.00,VWS V14.01,2013-11-10 21:41:00,
2013-11-10 16:42:00,67.9,32.7,29.98,West,271,0.0,3.0,27,0.00,,,0.00,12.00,VWS V14.01,2013-11-10 21:42:00,
2013-11-10 16:43:00,67.8,32.6,29.98,West,259,3.0,4.0,27,0.00,,,0.00,12.00,VWS V14.01,2013-11-10 21:43:00,
2013-11-10 16:44:00,67.8,32.6,29.98,West,261,0.0,5.0,27,0.00,,,0.00,12.00,VWS V14.01,2013-11-10 21:44:00,
2013-11-10 16:45:00,67.9,33.6,29.98,WSW,253,0.0,3.0,28,0.00,,,0.00,12.00,VWS V14.01,2013-11-10 21:45:00,
2013-11-10 16:46:00,67.6,32.5,29.98,WSW,252,0.0,3.0,27,0.00,,,0.00,11.00,VWS V14.01,2013-11-10 21:46:00,
2013-11-10 16:47:00,67.6,33.4,29.98,WSW,252,0.0,0.0,28,0.00,,,0.00,11.00,VWS V14.01,2013-11-10 21:47:00,
2013-11-10 16:48:00,67.4,33.2,29.98,WSW,252,0.0,3.0,28,0.00,,,0.00,11.00,VWS V14.01,2013-11-10 21:48:00,
2013-11-10 16:49:00,67.3,33.1,29.98,WSW,252,0.0,0.0,28,0.00,,,0.00,11.00,VWS V14.01,2013-11-10 21:49:00,
2013-11-10 16:50:00,67.8,32.6,29.98,West,261,0.0,0.0,27,0.00,,,0.00,12.00,VWS V14.01,2013-11-10 21:50:00,
2013-11-10 16:51:00,67.1,33.8,29.98,WSW,252,0.0,1.0,29,0.00,,,0.00,9.00,VWS V14.01,2013-11-10 21:51:00,
2013-11-10 16:52:00,66.9,33.6,29.98,WSW,252,0.0,0.0,29,0.00,,,0.00,9.00,VWS V14.01,2013-11-10 21:52:00,
2013-11-10 16:53:00,66.9,34.5,29.98,WSW,252,0.0,0.0,30,0.00,,,0.00,9.00,VWS V14.01,2013-11-10 21:53:00,
2013-11-10 16:54:00,66.8,35.2,29.98,WSW,252,0.0,0.0,31,0.00,,,0.00,9.00,VWS V14.01,2013-11-10 21:54:00,
2013-11-10 16:55:00,67.3,33.1,29.98,WSW,252,0.0,0.0,28,0.00,,,0.00,11.00,VWS V14.01,2013-11-10 21:55:00,
2013-11-10 16:56:00,66.4,34.0,29.98,WSW,252,0.0,0.0,30,0.00,,,0.00,7.00,VWS V14.01,2013-11-10 21:56:00,
2013-11-10 16:57:00,66.3,34.8,29.98,WSW,252,0.0,0.0,31,0.00,,,0.00,7.00,VWS V14.01,2013-11-10 21:57:00,
2013-11-10 16:58:00,66.1,34.6,29.98,WSW,252,0.0,2.0,31,0.00,,,0.00,7.00,VWS V14.01,2013-11-10 21:58:00,
2013-11-10 16:59:00,66.1,34.6,29.98,WSW,252,0.0,1.0,31,0.00,,,0.00,7.00,VWS V14.01,2013-11-10 21:59:00,
2013-11-10 17:00:00,66.8,35.2,29.98,WSW,252,0.0,0.0,31,0.00,,,0.00,9.00,VWS V14.01,2013-11-10 22:00:00,
2013-11-10 17:01:00,65.6,34.2,29.99,WSW,252,0.0,3.0,31,0.00,,,0.00,5.00,VWS V14.01,2013-11-10 22:01:00,
2013-11-10 17:02:00,65.6,34.2,29.99,WSW,255,0.0,1.0,31,0.00,,,0.00,5.00,VWS V14.01,2013-11-10 22:02:00,
2013-11-10 17:03:00,65.5,34.1,29.99,WSW,255,0.0,0.0,31,0.00,,,0.00,5.00,VWS V14.01,2013-11-10 22:03:00,
2013-11-10 17:04:00,65.3,34.7,29.99,WSW,255,0.0,0.0,32,0.00,,,0.00,5.00,VWS V14.01,2013-11-10 22:04:00,
2013-11-10 17:05:00,66.0,34.5,29.99,WSW,252,0.0,0.0,31,0.00,,,0.00,7.00,VWS V14.01,2013-11-10 22:05:00,
2013-11-10 17:06:00,65.0,34.5,29.99,WSW,255,1.0,1.0,32,0.00,,,0.00,0.00,VWS V14.01,2013-11-10 22:06:00,
2013-11-10 17:07:00,64.8,35.0,29.99,WSW,255,0.0,1.0,33,0.00,,,0.00,0.00,VWS V14.01,2013-11-10 22:07:00,
2013-11-10 17:08:00,64.7,35.0,29.99,WSW,255,0.0,0.0,33,0.00,,,0.00,0.00,VWS V14.01,2013-11-10 22:08:00,
2013-11-10 17:09:00,64.5,35.5,29.99,WSW,255,0.0,0.0,34,0.00,,,0.00,0.00,VWS V14.01,2013-11-10 22:09:00,
2013-11-10 17:10:00,65.2,34.6,29.99,WSW,255,0.0,2.0,32,0.00,,,0.00,5.00,VWS V14.01,2013-11-10 22:10:00,
2013-11-10 17:11:00,64.3,35.4,29.99,WSW,255,0.0,0.0,34,0.00,,,0.00,0.00,VWS V14.01,2013-11-10 22:11:00,
2013-11-10 17:12:00,64.0,35.1,29.99,WSW,255,0.0,0.0,34,0.00,,,0.00,0.00,VWS V14.01,2013-11-10 22:12:00,
2013-11-10 17:13:00,63.9,35.0,29.99,WSW,255,0.0,0.0,34,0.00,,,0.00,0.00,VWS V14.01,2013-11-10 22:13:00,
2013-11-10 17:14:00,63.7,34.8,29.99,WSW,255,0.0,0.0,34,0.00,,,0.00,0.00,VWS V14.01,2013-11-10 22:14:00,
2013-11-10 17:15:00,64.5,35.5,29.99,WSW,255,0.0,0.0,34,0.00,,,0.00,0.00,VWS V14.01,2013-11-10 22:15:00,
2013-11-10 17:16:00,63.2,35.1,29.99,WSW,255,0.0,0.0,35,0.00,,,0.00,0.00,VWS V14.01,2013-11-10 22:16:00,
2013-11-10 17:17:00,63.1,35.0,29.99,WSW,255,0.0,0.0,35,0.00,,,0.00,0.00,VWS V14.01,2013-11-10 22:17:00,
2013-11-10 17:18:00,62.9,34.8,29.99,WSW,255,0.0,0.0,35,0.00,,,0.00,0.00,VWS V14.01,2013-11-10 22:18:00,
2013-11-10 17:19:00,62.7,35.4,29.99,WSW,255,0.0,0.0,36,0.00,,,0.00,0.00,VWS V14.01,2013-11-10 22:19:00,
2013-11-10 17:20:00,63.7,35.6,29.99,WSW,255,0.0,0.0,35,0.00,,,0.00,0.00,VWS V14.01,2013-11-10 22:20:00,
2013-11-10 17:21:00,62.4,35.1,29.99,WSW,255,0.0,0.0,36,0.00,,,0.00,0.00,VWS V14.01,2013-11-10 22:21:00,
2013-11-10 17:22:00,62.3,35.0,29.99,WSW,255,0.0,0.0,36,0.00,,,0.00,0.00,VWS V14.01,2013-11-10 22:22:00,
2013-11-10 17:23:00,62.1,35.5,29.99,WSW,255,0.0,0.0,37,0.00,,,0.00,0.00,VWS V14.01,2013-11-10 22:23:00,
2013-11-10 17:24:00,62.0,35.5,29.99,WSW,255,0.0,0.0,37,0.00,,,0.00,0.00,VWS V14.01,2013-11-10 22:24:00,
2013-11-10 17:25:00,62.7,35.4,29.99,WSW,255,0.0,0.0,36,0.00,,,0.00,0.00,VWS V14.01,2013-11-10 22:25:00,
2013-11-10 17:26:00,61.6,35.1,29.99,WSW,255,0.0,0.0,37,0.00,,,0.00,0.00,VWS V14.01,2013-11-10 22:26:00,
2013-11-10 17:27:00,61.5,35.7,29.99,WSW,255,0.0,0.0,38,0.00,,,0.00,0.00,VWS V14.01,2013-11-10 22:27:00,
2013-11-10 17:28:00,61.3,35.5,29.99,WSW,255,0.0,0.0,38,0.00,,,0.00,0.00,VWS V14.01,2013-11-10 22:28:00,
2013-11-10 17:29:00,61.0,35.2,29.99,WSW,255,0.0,0.0,38,0.00,,,0.00,0.00,VWS V14.01,2013-11-10 22:29:00,
2013-11-10 17:30:00,62.0,35.5,29.99,WSW,255,0.0,0.0,37,0.00,,,0.00,0.00,VWS V14.01,2013-11-10 22:30:00,
2013-11-10 17:31:00,60.7,35.0,30.00,WSW,255,0.0,0.0,38,0.00,,,0.00,0.00,VWS V14.01,2013-11-10 22:31:00,
2013-11-10 17:32:00,60.5,35.4,30.00,WSW,255,0.0,0.0,39,0.00,,,0.00,0.00,VWS V14.01,2013-11-10 22:32:00,
2013-11-10 17:33:00,60.4,35.3,30.00,WSW,255,0.0,0.0,39,0.00,,,0.00,0.00,VWS V14.01,2013-11-10 22:33:00,
2013-11-10 17:34:00,60.4,35.3,30.00,WSW,255,0.0,0.0,39,0.00,,,0.00,0.00,VWS V14.01,2013-11-10 22:34:00,
2013-11-10 17:35:00,61.0,35.2,30.00,WSW,255,0.0,0.0,38,0.00,,,0.00,0.00,VWS V14.01,2013-11-10 22:35:00,
2013-11-10 17:36:00,59.9,35.5,30.00,WSW,255,0.0,0.0,40,0.00,,,0.00,0.00,VWS V14.01,2013-11-10 22:36:00,
2013-11-10 17:37:00,59.9,36.2,30.00,WSW,255,0.0,0.0,41,0.00,,,0.00,0.00,VWS V14.01,2013-11-10 22:37:00,
2013-11-10 17:38:00,59.6,35.9,30.00,WSW,255,0.0,0.0,41,0.00,,,0.00,0.00,VWS V14.01,2013-11-10 22:38:00,
2013-11-10 17:39:00,59.5,36.4,30.00,WSW,255,0.0,0.0,42,0.00,,,0.00,0.00,VWS V14.01,2013-11-10 22:39:00,
2013-11-10 17:40:00,60.2,35.2,30.00,WSW,255,0.0,0.0,39,0.00,,,0.00,0.00,VWS V14.01,2013-11-10 22:40:00,
2013-11-10 17:41:00,59.2,36.7,30.00,WSW,255,0.0,0.0,43,0.00,,,0.00,0.00,VWS V14.01,2013-11-10 22:41:00,
2013-11-10 17:42:00,59.0,37.1,30.00,WSW,255,0.0,0.0,44,0.00,,,0.00,0.00,VWS V14.01,2013-11-10 22:42:00,
2013-11-10 17:43:00,58.9,36.5,30.00,WSW,255,0.0,0.0,43,0.00,,,0.00,0.00,VWS V14.01,2013-11-10 22:43:00,
2013-11-10 17:44:00,58.7,36.9,30.00,WSW,255,0.0,0.0,44,0.00,,,0.00,0.00,VWS V14.01,2013-11-10 22:44:00,
2013-11-10 17:45:00,59.5,36.4,30.00,WSW,255,0.0,0.0,42,0.00,,,0.00,0.00,VWS V14.01,2013-11-10 22:45:00,
2013-11-10 17:46:00,58.4,36.6,30.01,WSW,255,0.0,1.0,44,0.00,,,0.00,0.00,VWS V14.01,2013-11-10 22:46:00,
2013-11-10 17:47:00,58.3,36.5,30.01,WSW,255,0.0,0.0,44,0.00,,,0.00,0.00,VWS V14.01,2013-11-10 22:47:00,
2013-11-10 17:48:00,58.3,37.1,30.01,WSW,255,0.0,1.0,45,0.00,,,0.00,0.00,VWS V14.01,2013-11-10 22:48:00,
2013-11-10 17:49:00,58.1,36.9,30.01,WSW,255,0.0,0.0,45,0.00,,,0.00,0.00,VWS V14.01,2013-11-10 22:49:00,
2013-11-10 17:50:00,58.7,36.9,30.01,WSW,255,0.0,0.0,44,0.00,,,0.00,0.00,VWS V14.01,2013-11-10 22:50:00,
2013-11-10 17:51:00,57.8,36.6,30.01,WSW,255,0.0,0.0,45,0.00,,,0.00,0.00,VWS V14.01,2013-11-10 22:51:00,
2013-11-10 17:52:00,57.6,36.4,30.01,WSW,255,0.0,0.0,45,0.00,,,0.00,0.00,VWS V14.01,2013-11-10 22:52:00,
2013-11-10 17:53:00,57.6,37.0,30.01,WSW,255,0.0,0.0,46,0.00,,,0.00,0.00,VWS V14.01,2013-11-10 22:53:00,
2013-11-10 17:54:00,57.5,36.9,30.01,WSW,255,0.0,0.0,46,0.00,,,0.00,0.00,VWS V14.01,2013-11-10 22:54:00,
2013-11-10 17:55:00,58.1,36.9,30.01,WSW,255,0.0,0.0,45,0.00,,,0.00,0.00,VWS V14.01,2013-11-10 22:55:00,
2013-11-10 17:56:00,57.2,37.2,30.01,WSW,255,0.0,0.0,47,0.00,,,0.00,0.00,VWS V14.01,2013-11-10 22:56:00,
2013-11-10 17:57:00,57.2,37.2,30.01,WSW,255,0.0,0.0,47,0.00,,,0.00,0.00,VWS V14.01,2013-11-10 22:57:00,
2013-11-10 17:58:00,57.0,37.0,30.01,WSW,255,0.0,0.0,47,0.00,,,0.00,0.00,VWS V14.01,2013-11-10 22:58:00,
2013-11-10 17:59:00,56.9,36.9,30.01,WSW,255,0.0,0.0,47,0.00,,,0.00,0.00,VWS V14.01,2013-11-10 22:59:00,
2013-11-10 18:00:00,57.5,36.9,30.01,WSW,255,0.0,0.0,46,0.00,,,0.00,0.00,VWS V14.01,2013-11-10 23:00:00,
2013-11-10 18:01:00,56.6,36.6,30.02,WSW,255,0.0,0.0,47,0.00,,,0.00,0.00,VWS V14.01,2013-11-10 23:01:00,
2013-11-10 18:02:00,56.5,37.1,30.02,WSW,255,0.0,0.0,48,0.00,,,0.00,0.00,VWS V14.01,2013-11-10 23:02:00,
2013-11-10 18:03:00,56.5,37.1,30.02,WSW,255,0.0,0.0,48,0.00,,,0.00,0.00,VWS V14.01,2013-11-10 23:03:00,
2013-11-10 18:04:00,56.3,37.4,30.02,WSW,255,0.0,0.0,49,0.00,,,0.00,0.00,VWS V14.01,2013-11-10 23:04:00,
2013-11-10 18:05:00,56.9,36.9,30.02,WSW,255,0.0,0.0,47,0.00,,,0.00,0.00,VWS V14.01,2013-11-10 23:05:00,
2013-11-10 18:06:00,56.0,37.6,30.02,WSW,255,0.0,0.0,50,0.00,,,0.00,0.00,VWS V14.01,2013-11-10 23:06:00,
2013-11-10 18:07:00,55.9,37.5,30.02,WSW,255,0.0,0.0,50,0.00,,,0.00,0.00,VWS V14.01,2013-11-10 23:07:00,
2013-11-10 18:08:00,55.9,38.0,30.02,WSW,255,0.0,0.0,51,0.00,,,0.00,0.00,VWS V14.01,2013-11-10 23:08:00,
2013-11-10 18:09:00,55.7,38.4,30.02,WSW,255,0.0,1.0,52,0.00,,,0.00,0.00,VWS V14.01,2013-11-10 23:09:00,
2013-11-10 18:10:00,56.3,37.4,30.02,WSW,255,0.0,0.0,49,0.00,,,0.00,0.00,VWS V14.01,2013-11-10 23:10:00,
2013-11-10 18:11:00,55.4,38.1,30.02,WSW,255,0.0,0.0,52,0.00,,,0.00,0.00,VWS V14.01,2013-11-10 23:11:00,
2013-11-10 18:12:00,55.4,38.1,30.02,WSW,255,1.0,1.0,52,0.00,,,0.00,0.00,VWS V14.01,2013-11-10 23:12:00,
2013-11-10 18:13:00,55.3,38.5,30.02,WSW,255,0.0,3.0,53,0.00,,,0.00,0.00,VWS V14.01,2013-11-10 23:13:00,
2013-11-10 18:14:00,55.1,38.3,30.02,WSW,255,0.0,0.0,53,0.00,,,0.00,0.00,VWS V14.01,2013-11-10 23:14:00,
2013-11-10 18:15:00,55.7,38.4,30.02,WSW,255,0.0,0.0,52,0.00,,,0.00,0.00,VWS V14.01,2013-11-10 23:15:00,
2013-11-10 18:16:00,55.1,38.3,30.03,WSW,255,0.0,0.0,53,0.00,,,0.00,0.00,VWS V14.01,2013-11-10 23:16:00,
2013-11-10 18:17:00,54.8,38.0,30.03,WSW,255,0.0,2.0,53,0.00,,,0.00,0.00,VWS V14.01,2013-11-10 23:17:00,
2013-11-10 18:18:00,54.7,38.4,30.03,WSW,255,0.0,0.0,54,0.00,,,0.00,0.00,VWS V14.01,2013-11-10 23:18:00,
2013-11-10 18:19:00,54.7,38.4,30.03,WSW,255,0.0,1.0,54,0.00,,,0.00,0.00,VWS V14.01,2013-11-10 23:19:00,
2013-11-10 18:20:00,55.1,38.3,30.03,WSW,255,0.0,0.0,53,0.00,,,0.00,0.00,VWS V14.01,2013-11-10 23:20:00,
2013-11-10 18:21:00,54.5,38.2,30.03,WSW,255,0.0,0.0,54,0.00,,,0.00,0.00,VWS V14.01,2013-11-10 23:21:00,
2013-11-10 18:22:00,54.4,38.1,30.03,WSW,255,0.0,0.0,54,0.00,,,0.00,0.00,VWS V14.01,2013-11-10 23:22:00,
2013-11-10 18:23:00,54.4,38.1,30.03,WSW,255,0.0,0.0,54,0.00,,,0.00,0.00,VWS V14.01,2013-11-10 23:23:00,
2013-11-10 18:24:00,54.4,38.6,30.03,WSW,255,0.0,0.0,55,0.00,,,0.00,0.00,VWS V14.01,2013-11-10 23:24:00,
2013-11-10 18:25:00,54.7,38.4,30.03,WSW,255,0.0,0.0,54,0.00,,,0.00,0.00,VWS V14.01,2013-11-10 23:25:00,
2013-11-10 18:26:00,54.1,38.3,30.03,WSW,255,0.0,0.0,55,0.00,,,0.00,0.00,VWS V14.01,2013-11-10 23:26:00,
2013-11-10 18:27:00,54.1,38.3,30.03,WSW,255,0.0,0.0,55,0.00,,,0.00,0.00,VWS V14.01,2013-11-10 23:27:00,
2013-11-10 18:28:00,53.9,38.1,30.03,WSW,255,0.0,0.0,55,0.00,,,0.00,0.00,VWS V14.01,2013-11-10 23:28:00,
2013-11-10 18:29:00,53.8,38.0,30.03,WSW,255,0.0,0.0,55,0.00,,,0.00,0.00,VWS V14.01,2013-11-10 23:29:00,
2013-11-10 18:30:00,54.4,38.6,30.03,WSW,255,0.0,0.0,55,0.00,,,0.00,0.00,VWS V14.01,2013-11-10 23:30:00,
2013-11-10 18:31:00,53.6,37.8,30.03,WSW,255,0.0,0.0,55,0.00,,,0.00,0.00,VWS V14.01,2013-11-10 23:31:00,
2013-11-10 18:32:00,53.6,38.3,30.03,WSW,255,0.0,0.0,56,0.00,,,0.00,0.00,VWS V14.01,2013-11-10 23:32:00,
2013-11-10 18:33:00,53.5,38.2,30.03,WSW,255,0.0,0.0,56,0.00,,,0.00,0.00,VWS V14.01,2013-11-10 23:33:00,
2013-11-10 18:34:00,53.5,38.7,30.03,WSW,255,0.0,0.0,57,0.00,,,0.00,0.00,VWS V14.01,2013-11-10 23:34:00,
2013-11-10 18:35:00,53.8,38.0,30.03,WSW,255,0.0,0.0,55,0.00,,,0.00,0.00,VWS V14.01,2013-11-10 23:35:00,
2013-11-10 18:36:00,53.2,38.4,30.03,WSW,255,0.0,0.0,57,0.00,,,0.00,0.00,VWS V14.01,2013-11-10 23:36:00,
2013-11-10 18:37:00,53.2,38.8,30.03,WSW,255,0.0,0.0,58,0.00,,,0.00,0.00,VWS V14.01,2013-11-10 23:37:00,
2013-11-10 18:38:00,53.1,39.2,30.03,WSW,255,0.0,0.0,59,0.00,,,0.00,0.00,VWS V14.01,2013-11-10 23:38:00,
2013-11-10 18:39:00,53.1,39.6,30.03,WSW,255,0.0,0.0,60,0.00,,,0.00,0.00,VWS V14.01,2013-11-10 23:39:00,
2013-11-10 18:40:00,53.3,38.5,30.03,WSW,255,0.0,0.0,57,0.00,,,0.00,0.00,VWS V14.01,2013-11-10 23:40:00,
2013-11-10 18:41:00,52.9,39.8,30.03,WSW,255,0.0,0.0,61,0.00,,,0.00,0.00,VWS V14.01,2013-11-10 23:41:00,
2013-11-10 18:42:00,52.8,40.2,30.03,WSW,255,0.0,0.0,62,0.00,,,0.00,0.00,VWS V14.01,2013-11-10 23:42:00,
2013-11-10 18:43:00,52.8,40.6,30.03,WSW,255,0.0,0.0,63,0.00,,,0.00,0.00,VWS V14.01,2013-11-10 23:43:00,
2013-11-10 18:44:00,52.6,40.4,30.03,WSW,255,0.0,0.0,63,0.00,,,0.00,0.00,VWS V14.01,2013-11-10 23:44:00,
2013-11-10 18:45:00,52.9,39.4,30.03,WSW,255,0.0,0.0,60,0.00,,,0.00,0.00,VWS V14.01,2013-11-10 23:45:00,
2013-11-10 18:46:00,52.5,40.3,30.04,WSW,255,0.0,0.0,63,0.00,,,0.00,0.00,VWS V14.01,2013-11-10 23:46:00,
2013-11-10 18:47:00,52.3,40.1,30.04,WSW,255,0.0,0.0,63,0.00,,,0.00,0.00,VWS V14.01,2013-11-10 23:47:00,
2013-11-10 18:48:00,52.3,40.1,30.04,WSW,255,0.0,0.0,63,0.00,,,0.00,0.00,VWS V14.01,2013-11-10 23:48:00,
2013-11-10 18:49:00,52.2,40.4,30.04,WSW,255,0.0,0.0,64,0.00,,,0.00,0.00,VWS V14.01,2013-11-10 23:49:00,
2013-11-10 18:50:00,52.6,40.4,30.04,WSW,255,0.0,0.0,63,0.00,,,0.00,0.00,VWS V14.01,2013-11-10 23:50:00,
2013-11-10 18:51:00,52.0,40.2,30.04,WSW,255,0.0,0.0,64,0.00,,,0.00,0.00,VWS V14.01,2013-11-10 23:51:00,
2013-11-10 18:52:00,51.9,40.1,30.04,WSW,255,0.0,0.0,64,0.00,,,0.00,0.00,VWS V14.01,2013-11-10 23:52:00,
2013-11-10 18:53:00,51.7,39.9,30.04,WSW,255,0.0,0.0,64,0.00,,,0.00,0.00,VWS V14.01,2013-11-10 23:53:00,
2013-11-10 18:54:00,51.7,39.9,30.04,WSW,255,0.0,0.0,64,0.00,,,0.00,0.00,VWS V14.01,2013-11-10 23:54:00,
2013-11-10 18:55:00,52.2,40.4,30.04,WSW,255,0.0,0.0,64,0.00,,,0.00,0.00,VWS V14.01,2013-11-10 23:55:00,
2013-11-10 18:56:00,51.4,39.7,30.04,WSW,255,0.0,0.0,64,0.00,,,0.00,0.00,VWS V14.01,2013-11-10 23:56:00,
2013-11-10 18:57:00,51.4,39.7,30.04,WSW,255,0.0,0.0,64,0.00,,,0.00,0.00,VWS V14.01,2013-11-10 23:57:00,
2013-11-10 18:58:00,51.3,39.5,30.04,WSW,255,0.0,0.0,64,0.00,,,0.00,0.00,VWS V14.01,2013-11-10 23:58:00,
2013-11-10 18:59:00,51.3,40.0,30.04,WSW,255,0.0,0.0,65,0.00,,,0.00,0.00,VWS V14.01,2013-11-10 23:59:00,
2013-11-10 19:00:00,51.7,39.9,30.04,WSW,255,0.0,0.0,64,0.00,,,0.00,0.00,VWS V14.01,2013-11-11 00:00:00,
2013-11-10 19:01:00,51.0,39.7,30.04,WSW,255,0.0,0.0,65,0.00,,,0.00,0.00,VWS V14.01,2013-11-11 00:01:00,
2013-11-10 19:02:00,51.0,39.7,30.04,WSW,255,0.0,0.0,65,0.00,,,0.00,0.00,VWS V14.01,2013-11-11 00:02:00,
2013-11-10 19:03:00,50.8,39.5,30.04,WSW,255,0.0,0.0,65,0.00,,,0.00,0.00,VWS V14.01,2013-11-11 00:03:00,
2013-11-10 19:04:00,50.8,39.5,30.04,WSW,255,0.0,0.0,65,0.00,,,0.00,0.00,VWS V14.01,2013-11-11 00:04:00,
2013-11-10 19:05:00,51.1,39.8,30.04,WSW,255,0.0,0.0,65,0.00,,,0.00,0.00,VWS V14.01,2013-11-11 00:05:00,
2013-11-10 19:06:00,50.5,39.2,30.04,WSW,255,0.0,0.0,65,0.00,,,0.00,0.00,VWS V14.01,2013-11-11 00:06:00,
2013-11-10 19:07:00,50.5,39.6,30.04,WSW,255,0.0,0.0,66,0.00,,,0.00,0.00,VWS V14.01,2013-11-11 00:07:00,
2013-11-10 19:08:00,50.4,39.5,30.04,WSW,255,0.0,0.0,66,0.00,,,0.00,0.00,VWS V14.01,2013-11-11 00:08:00,
2013-11-10 19:09:00,50.4,39.5,30.04,WSW,255,0.0,0.0,66,0.00,,,0.00,0.00,VWS V14.01,2013-11-11 00:09:00,
2013-11-10 19:10:00,50.8,39.5,30.04,WSW,255,0.0,0.0,65,0.00,,,0.00,0.00,VWS V14.01,2013-11-11 00:10:00,
2013-11-10 19:11:00,50.2,39.7,30.04,WSW,255,0.0,0.0,67,0.00,,,0.00,0.00,VWS V14.01,2013-11-11 00:11:00,
2013-11-10 19:12:00,50.1,39.6,30.04,WSW,255,0.0,0.0,67,0.00,,,0.00,0.00,VWS V14.01,2013-11-11 00:12:00,
2013-11-10 19:13:00,50.1,39.6,30.04,WSW,255,0.0,0.0,67,0.00,,,0.00,0.00,VWS V14.01,2013-11-11 00:13:00,
2013-11-10 19:14:00,49.9,39.4,30.04,WSW,255,0.0,0.0,67,0.00,,,0.00,0.00,VWS V14.01,2013-11-11 00:14:00,
2013-11-10 19:15:00,50.4,39.5,30.04,WSW,255,0.0,0.0,66,0.00,,,0.00,0.00,VWS V14.01,2013-11-11 00:15:00,
2013-11-10 19:16:00,49.8,39.7,30.05,WSW,255,0.0,0.0,68,0.00,,,0.00,0.00,VWS V14.01,2013-11-11 00:16:00,
2013-11-10 19:17:00,49.8,40.0,30.05,WSW,255,0.0,0.0,69,0.00,,,0.00,0.00,VWS V14.01,2013-11-11 00:17:00,
2013-11-10 19:18:00,49.8,40.0,30.05,WSW,255,0.0,0.0,69,0.00,,,0.00,0.00,VWS V14.01,2013-11-11 00:18:00,
2013-11-10 19:19:00,49.8,40.0,30.05,WSW,255,0.0,0.0,69,0.00,,,0.00,0.00,VWS V14.01,2013-11-11 00:19:00,
2013-11-10 19:20:00,49.9,39.4,30.05,WSW,255,0.0,0.0,67,0.00,,,0.00,0.00,VWS V14.01,2013-11-11 00:20:00,
2013-11-10 19:21:00,49.6,39.9,30.05,WSW,255,0.0,0.0,69,0.00,,,0.00,0.00,VWS V14.01,2013-11-11 00:21:00,
2013-11-10 19:22:00,49.5,40.1,30.05,WSW,255,0.0,0.0,70,0.00,,,0.00,0.00,VWS V14.01,2013-11-11 00:22:00,
2013-11-10 19:23:00,49.5,40.1,30.05,WSW,255,0.0,0.0,70,0.00,,,0.00,0.00,VWS V14.01,2013-11-11 00:23:00,
2013-11-10 19:24:00,49.4,40.0,30.05,WSW,255,0.0,0.0,70,0.00,,,0.00,0.00,VWS V14.01,2013-11-11 00:24:00,
2013-11-10 19:25:00,49.6,39.9,30.05,WSW,255,0.0,0.0,69,0.00,,,0.00,0.00,VWS V14.01,2013-11-11 00:25:00,
2013-11-10 19:26:00,49.2,39.8,30.05,WSW,255,0.0,0.0,70,0.00,,,0.00,0.00,VWS V14.01,2013-11-11 00:26:00,
2013-11-10 19:27:00,49.2,39.8,30.05,WSW,255,0.0,0.0,70,0.00,,,0.00,0.00,VWS V14.01,2013-11-11 00:27:00,
2013-11-10 19:28:00,49.2,40.2,30.05,WSW,255,0.0,0.0,71,0.00,,,0.00,0.00,VWS V14.01,2013-11-11 00:28:00,
2013-11-10 19:29:00,49.1,40.5,30.05,WSW,255,0.0,0.0,72,0.00,,,0.00,0.00,VWS V14.01,2013-11-11 00:29:00,
2013-11-10 19:30:00,49.4,40.0,30.05,WSW,255,0.0,0.0,70,0.00,,,0.00,0.00,VWS V14.01,2013-11-11 00:30:00,
2013-11-10 19:31:00,48.9,40.3,30.05,WSW,255,0.0,0.0,72,0.00,,,0.00,0.00,VWS V14.01,2013-11-11 00:31:00,
2013-11-10 19:32:00,48.8,40.2,30.05,WSW,255,0.0,0.0,72,0.00,,,0.00,0.00,VWS V14.01,2013-11-11 00:32:00,
2013-11-10 19:33:00,48.8,40.5,30.05,WSW,255,0.0,0.0,73,0.00,,,0.00,0.00,VWS V14.01,2013-11-11 00:33:00,
2013-11-10 19:34:00,48.6,40.3,30.05,WSW,255,0.0,0.0,73,0.00,,,0.00,0.00,VWS V14.01,2013-11-11 00:34:00,
2013-11-10 19:35:00,49.1,40.5,30.05,WSW,255,0.0,0.0,72,0.00,,,0.00,0.00,VWS V14.01,2013-11-11 00:35:00,
2013-11-10 19:36:00,48.5,40.2,30.05,WSW,255,0.0,0.0,73,0.00,,,0.00,0.00,VWS V14.01,2013-11-11 00:36:00,
2013-11-10 19:37:00,48.5,40.2,30.05,WSW,255,0.0,1.0,73,0.00,,,0.00,0.00,VWS V14.01,2013-11-11 00:37:00,
2013-11-10 19:38:00,48.3,40.1,30.05,WSW,255,0.0,0.0,73,0.00,,,0.00,0.00,VWS V14.01,2013-11-11 00:38:00,
2013-11-10 19:39:00,48.3,40.4,30.05,WSW,255,2.0,3.0,74,0.00,,,0.00,0.00,VWS V14.01,2013-11-11 00:39:00,
2013-11-10 19:40:00,48.6,40.3,30.05,WSW,255,0.0,0.0,73,0.00,,,0.00,0.00,VWS V14.01,2013-11-11 00:40:00,
2013-11-10 19:41:00,48.2,40.3,30.05,West,264,0.0,0.0,74,0.00,,,0.00,0.00,VWS V14.01,2013-11-11 00:41:00,
2013-11-10 19:42:00,48.2,40.3,30.05,West,264,0.0,0.0,74,0.00,,,0.00,0.00,VWS V14.01,2013-11-11 00:42:00,
2013-11-10 19:43:00,48.0,40.1,30.05,West,264,0.0,0.0,74,0.00,,,0.00,0.00,VWS V14.01,2013-11-11 00:43:00,
2013-11-10 19:44:00,48.0,40.1,30.05,West,264,0.0,0.0,74,0.00,,,0.00,0.00,VWS V14.01,2013-11-11 00:44:00,
2013-11-10 19:45:00,48.3,40.4,30.05,WSW,255,0.0,2.0,74,0.00,,,0.00,0.00,VWS V14.01,2013-11-11 00:45:00,
2013-11-10 19:46:00,47.9,40.0,30.06,West,264,0.0,0.0,74,0.00,,,0.00,0.00,VWS V14.01,2013-11-11 00:46:00,
2013-11-10 19:47:00,47.9,40.0,30.06,West,264,0.0,0.0,74,0.00,,,0.00,0.00,VWS V14.01,2013-11-11 00:47:00,
2013-11-10 19:48:00,47.7,39.8,30.06,West,264,0.0,0.0,74,0.00,,,0.00,0.00,VWS V14.01,2013-11-11 00:48:00,
2013-11-10 19:49:00,47.7,39.8,30.06,West,264,0.0,0.0,74,0.00,,,0.00,0.00,VWS V14.01,2013-11-11 00:49:00,
2013-11-10 19:50:00,48.0,40.1,30.06,West,264,0.0,0.0,74,0.00,,,0.00,0.00,VWS V14.01,2013-11-11 00:50:00,
2013-11-10 19:51:00,47.6,39.7,30.06,West,264,0.0,0.0,74,0.00,,,0.00,0.00,VWS V14.01,2013-11-11 00:51:00,
2013-11-10 19:52:00,47.6,39.7,30.06,West,264,0.0,0.0,74,0.00,,,0.00,0.00,VWS V14.01,2013-11-11 00:52:00,
2013-11-10 19:53:00,47.4,39.9,30.06,West,264,0.0,0.0,75,0.00,,,0.00,0.00,VWS V14.01,2013-11-11 00:53:00,
2013-11-10 19:54:00,47.4,39.9,30.06,West,264,0.0,0.0,75,0.00,,,0.00,0.00,VWS V14.01,2013-11-11 00:54:00,
2013-11-10 19:55:00,47.7,39.8,30.06,West,264,0.0,0.0,74,0.00,,,0.00,0.00,VWS V14.01,2013-11-11 00:55:00,
2013-11-10 19:56:00,47.3,39.8,30.06,West,264,0.0,0.0,75,0.00,,,0.00,0.00,VWS V14.01,2013-11-11 00:56:00,
2013-11-10 19:57:00,47.3,39.8,30.06,West,264,0.0,0.0,75,0.00,,,0.00,0.00,VWS V14.01,2013-11-11 00:57:00,
2013-11-10 19:58:00,47.1,39.6,30.06,West,264,0.0,0.0,75,0.00,,,0.00,0.00,VWS V14.01,2013-11-11 00:58:00,
2013-11-10 19:59:00,47.1,39.6,30.06,West,264,0.0,0.0,75,0.00,,,0.00,0.00,VWS V14.01,2013-11-11 00:59:00,
2013-11-10 20:00:00,47.4,39.9,30.06,West,264,0.0,0.0,75,0.00,,,0.00,0.00,VWS V14.01,2013-11-11 01:00:00,
2013-11-10 20:01:00,47.0,39.8,30.06,West,264,0.0,0.0,76,0.00,,,0.00,0.00,VWS V14.01,2013-11-11 01:01:00,
2013-11-10 20:02:00,47.0,39.8,30.06,West,264,0.0,0.0,76,0.00,,,0.00,0.00,VWS V14.01,2013-11-11 01:02:00,
2013-11-10 20:03:00,46.8,39.7,30.06,West,264,0.0,0.0,76,0.00,,,0.00,0.00,VWS V14.01,2013-11-11 01:03:00,
2013-11-10 20:04:00,46.8,39.7,30.06,West,264,0.0,0.0,76,0.00,,,0.00,0.00,VWS V14.01,2013-11-11 01:04:00,
2013-11-10 20:05:00,47.1,39.6,30.06,West,264,0.0,0.0,75,0.00,,,0.00,0.00,VWS V14.01,2013-11-11 01:05:00,
2013-11-10 20:06:00,46.7,39.9,30.06,West,264,0.0,0.0,77,0.00,,,0.00,0.00,VWS V14.01,2013-11-11 01:06:00,
2013-11-10 20:07:00,46.7,39.9,30.06,West,264,0.0,1.0,77,0.00,,,0.00,0.00,VWS V14.01,2013-11-11 01:07:00,
2013-11-10 20:08:00,46.5,40.0,30.06,West,264,0.0,0.0,78,0.00,,,0.00,0.00,VWS V14.01,2013-11-11 01:08:00,
2013-11-10 20:09:00,46.5,40.0,30.06,West,264,0.0,0.0,78,0.00,,,0.00,0.00,VWS V14.01,2013-11-11 01:09:00,
2013-11-10 20:10:00,46.8,39.7,30.06,West,264,0.0,0.0,76,0.00,,,0.00,0.00,VWS V14.01,2013-11-11 01:10:00,
2013-11-10 20:11:00,46.4,39.9,30.06,West,264,0.0,0.0,78,0.00,,,0.00,0.00,VWS V14.01,2013-11-11 01:11:00,
2013-11-10 20:12:00,46.4,39.9,30.06,West,264,0.0,0.0,78,0.00,,,0.00,0.00,VWS V14.01,2013-11-11 01:12:00,
2013-11-10 20:13:00,46.4,39.9,30.06,West,265,1.0,3.0,78,0.00,,,0.00,0.00,VWS V14.01,2013-11-11 01:13:00,
2013-11-10 20:14:00,46.2,39.7,30.06,West,265,0.0,1.0,78,0.00,,,0.00,0.00,VWS V14.01,2013-11-11 01:14:00,
2013-11-10 20:15:00,46.5,40.0,30.06,West,264,0.0,0.0,78,0.00,,,0.00,0.00,VWS V14.01,2013-11-11 01:15:00,
2013-11-10 20:16:00,46.1,39.6,30.07,West,265,0.0,0.0,78,0.00,,,0.00,0.00,VWS V14.01,2013-11-11 01:16:00,
2013-11-10 20:17:00,46.1,39.6,30.07,North,0,0.0,3.0,78,0.00,,,0.00,0.00,VWS V14.01,2013-11-11 01:17:00,
2013-11-10 20:18:00,46.0,39.5,30.07,North,0,0.0,0.0,78,0.00,,,0.00,0.00,VWS V14.01,2013-11-11 01:18:00,
2013-11-10 20:19:00,46.0,39.5,30.07,North,0,0.0,0.0,78,0.00,,,0.00,0.00,VWS V14.01,2013-11-11 01:19:00,
2013-11-10 20:20:00,46.2,39.7,30.06,West,265,0.0,1.0,78,0.00,,,0.00,0.00,VWS V14.01,2013-11-11 01:20:00,
2013-11-10 20:21:00,45.8,39.3,30.07,North,0,0.0,0.0,78,0.00,,,0.00,0.00,VWS V14.01,2013-11-11 01:21:00,
2013-11-10 20:22:00,45.8,39.3,30.07,North,0,0.0,0.0,78,0.00,,,0.00,0.00,VWS V14.01,2013-11-11 01:22:00,
2013-11-10 20:23:00,45.8,39.3,30.07,North,0,0.0,0.0,78,0.00,,,0.00,0.00,VWS V14.01,2013-11-11 01:23:00,
2013-11-10 20:24:00,45.7,39.2,30.07,North,0,0.0,0.0,78,0.00,,,0.00,0.00,VWS V14.01,2013-11-11 01:24:00,
2013-11-10 20:25:00,46.0,39.5,30.07,North,0,0.0,0.0,78,0.00,,,0.00,0.00,VWS V14.01,2013-11-11 01:25:00,
2013-11-10 20:26:00,45.7,39.2,30.07,North,0,0.0,0.0,78,0.00,,,0.00,0.00,VWS V14.01,2013-11-11 01:26:00,
2013-11-10 20:27:00,45.7,39.2,30.07,North,0,0.0,0.0,78,0.00,,,0.00,0.00,VWS V14.01,2013-11-11 01:27:00,
2013-11-10 20:28:00,45.5,39.0,30.07,North,0,0.0,0.0,78,0.00,,,0.00,0.00,VWS V14.01,2013-11-11 01:28:00,
2013-11-10 20:29:00,45.5,39.0,30.07,North,0,0.0,0.0,78,0.00,,,0.00,0.00,VWS V14.01,2013-11-11 01:29:00,
2013-11-10 20:30:00,45.7,39.2,30.07,North,0,0.0,0.0,78,0.00,,,0.00,0.00,VWS V14.01,2013-11-11 01:30:00,
2013-11-10 20:31:00,45.4,39.0,30.08,North,0,0.0,0.0,78,0.00,,,0.00,0.00,VWS V14.01,2013-11-11 01:31:00,
2013-11-10 20:32:00,45.4,39.3,30.08,North,0,0.0,0.0,79,0.00,,,0.00,0.00,VWS V14.01,2013-11-11 01:32:00,
2013-11-10 20:33:00,45.4,39.3,30.08,North,0,0.0,0.0,79,0.00,,,0.00,0.00,VWS V14.01,2013-11-11 01:33:00,
2013-11-10 20:34:00,45.4,39.3,30.08,North,0,0.0,0.0,79,0.00,,,0.00,0.00,VWS V14.01,2013-11-11 01:34:00,
2013-11-10 20:35:00,45.5,39.0,30.07,North,0,0.0,0.0,78,0.00,,,0.00,0.00,VWS V14.01,2013-11-11 01:35:00,
2013-11-10 20:36:00,45.2,39.1,30.08,North,358,3.0,3.0,79,0.00,,,0.00,0.00,VWS V14.01,2013-11-11 01:36:00,
2013-11-10 20:37:00,45.2,39.1,30.08,North,357,1.0,4.0,79,0.00,,,0.00,0.00,VWS V14.01,2013-11-11 01:37:00,
2013-11-10 20:38:00,45.2,39.1,30.08,North,356,0.0,2.0,79,0.00,,,0.00,0.00,VWS V14.01,2013-11-11 01:38:00,
2013-11-10 20:39:00,45.2,39.1,30.08,North,356,0.0,1.0,79,0.00,,,0.00,0.00,VWS V14.01,2013-11-11 01:39:00,
2013-11-10 20:40:00,45.4,39.3,30.08,North,0,0.0,0.0,79,0.00,,,0.00,0.00,VWS V14.01,2013-11-11 01:40:00,
2013-11-10 20:41:00,45.2,39.1,30.08,North,356,0.0,0.0,79,0.00,,,0.00,0.00,VWS V14.01,2013-11-11 01:41:00,
2013-11-10 20:42:00,45.2,38.8,30.08,North,356,0.0,0.0,78,0.00,,,0.00,0.00,VWS V14.01,2013-11-11 01:42:00,
2013-11-10 20:43:00,45.2,38.8,30.08,North,356,0.0,1.0,78,0.00,,,0.00,0.00,VWS V14.01,2013-11-11 01:43:00,
2013-11-10 20:44:00,45.2,38.8,30.08,North,356,0.0,0.0,78,0.00,,,0.00,0.00,VWS V14.01,2013-11-11 01:44:00,
2013-11-10 20:45:00,45.2,39.1,30.08,North,356,0.0,0.0,79,0.00,,,0.00,0.00,VWS V14.01,2013-11-11 01:45:00,
2013-11-10 20:46:00,45.2,38.8,30.08,North,356,0.0,0.0,78,0.00,,,0.00,0.00,VWS V14.01,2013-11-11 01:46:00,
2013-11-10 20:47:00,45.2,38.8,30.08,North,356,0.0,0.0,78,0.00,,,0.00,0.00,VWS V14.01,2013-11-11 01:47:00,
2013-11-10 20:48:00,45.2,38.4,30.08,North,356,0.0,0.0,77,0.00,,,0.00,0.00,VWS V14.01,2013-11-11 01:48:00,
2013-11-10 20:49:00,45.1,38.3,30.08,North,356,0.0,2.0,77,0.00,,,0.00,0.00,VWS V14.01,2013-11-11 01:49:00,
2013-11-10 20:50:00,45.2,38.8,30.08,North,356,0.0,0.0,78,0.00,,,0.00,0.00,VWS V14.01,2013-11-11 01:50:00,
2013-11-10 20:51:00,45.1,38.3,30.08,North,356,0.0,0.0,77,0.00,,,0.00,0.00,VWS V14.01,2013-11-11 01:51:00,
2013-11-10 20:52:00,45.1,38.3,30.08,North,357,0.0,0.0,77,0.00,,,0.00,0.00,VWS V14.01,2013-11-11 01:52:00,
2013-11-10 20:53:00,45.1,38.3,30.08,North,356,1.0,1.0,77,0.00,,,0.00,0.00,VWS V14.01,2013-11-11 01:53:00,
2013-11-10 20:54:00,44.9,38.1,30.08,North,356,0.0,1.0,77,0.00,,,0.00,0.00,VWS V14.01,2013-11-11 01:54:00,
2013-11-10 20:55:00,45.1,38.3,30.08,North,356,0.0,2.0,77,0.00,,,0.00,0.00,VWS V14.01,2013-11-11 01:55:00,
2013-11-10 20:56:00,44.9,38.1,30.08,North,356,0.0,0.0,77,0.00,,,0.00,0.00,VWS V14.01,2013-11-11 01:56:00,
2013-11-10 20:57:00,44.9,38.1,30.08,North,356,0.0,0.0,77,0.00,,,0.00,0.00,VWS V14.01,2013-11-11 01:57:00,
2013-11-10 20:58:00,44.9,38.1,30.08,North,356,0.0,1.0,77,0.00,,,0.00,0.00,VWS V14.01,2013-11-11 01:58:00,
2013-11-10 20:59:00,44.9,38.1,30.08,North,356,3.0,3.0,77,0.00,,,0.00,0.00,VWS V14.01,2013-11-11 01:59:00,
2013-11-10 21:00:00,44.9,38.1,30.08,North,356,0.0,1.0,77,0.00,,,0.00,0.00,VWS V14.01,2013-11-11 02:00:00,
2013-11-10 21:01:00,44.9,38.5,30.09,North,356,2.0,4.0,78,0.00,,,0.00,0.00,VWS V14.01,2013-11-11 02:01:00,
2013-11-10 21:02:00,44.9,38.5,30.09,North,356,3.0,5.0,78,0.00,,,0.00,0.00,VWS V14.01,2013-11-11 02:02:00,
2013-11-10 21:03:00,44.9,38.1,30.09,North,356,0.0,3.0,77,0.00,,,0.00,0.00,VWS V14.01,2013-11-11 02:03:00,
2013-11-10 21:04:00,44.9,38.1,30.09,North,356,0.0,0.0,77,0.00,,,0.00,0.00,VWS V14.01,2013-11-11 02:04:00,
2013-11-10 21:05:00,44.9,38.1,30.08,North,356,3.0,3.0,77,0.00,,,0.00,0.00,VWS V14.01,2013-11-11 02:05:00,
2013-11-10 21:06:00,44.9,38.1,30.09,North,356,0.0,3.0,77,0.00,,,0.00,0.00,VWS V14.01,2013-11-11 02:06:00,
2013-11-10 21:07:00,44.9,37.8,30.09,North,356,0.0,0.0,76,0.00,,,0.00,0.00,VWS V14.01,2013-11-11 02:07:00,
2013-11-10 21:08:00,44.9,37.8,30.09,North,356,0.0,0.0,76,0.00,,,0.00,0.00,VWS V14.01,2013-11-11 02:08:00,
2013-11-10 21:09:00,45.1,38.0,30.09,North,356,0.0,1.0,76,0.00,,,0.00,0.00,VWS V14.01,2013-11-11 02:09:00,
2013-11-10 21:10:00,44.9,38.1,30.09,North,356,0.0,0.0,77,0.00,,,0.00,0.00,VWS V14.01,2013-11-11 02:10:00,
2013-11-10 21:11:00,45.1,37.7,30.09,North,356,0.0,1.0,75,0.00,,,0.00,0.00,VWS V14.01,2013-11-11 02:11:00,
2013-11-10 21:12:00,45.2,37.8,30.09,North,356,0.0,0.0,75,0.00,,,0.00,0.00,VWS V14.01,2013-11-11 02:12:00,
2013-11-10 21:13:00,45.2,37.8,30.09,North,356,0.0,0.0,75,0.00,,,0.00,0.00,VWS V14.01,2013-11-11 02:13:00,
2013-11-10 21:14:00,45.2,37.4,30.09,North,356,2.0,2.0,74,0.00,,,0.00,0.00,VWS V14.01,2013-11-11 02:14:00,
2013-11-10 21:15:00,45.1,38.0,30.09,North,356,1.0,1.0,76,0.00,,,0.00,0.00,VWS V14.01,2013-11-11 02:15:00,
2013-11-10 21:16:00,45.4,37.3,30.10,North,356,0.0,0.0,73,0.00,,,0.00,0.00,VWS V14.01,2013-11-11 02:16:00,
2013-11-10 21:17:00,45.4,37.3,30.10,North,356,0.0,0.0,73,0.00,,,0.00,0.00,VWS V14.01,2013-11-11 02:17:00,
2013-11-10 21:18:00,45.4,37.3,30.10,North,356,0.0,0.0,73,0.00,,,0.00,0.00,VWS V14.01,2013-11-11 02:18:00,
2013-11-10 21:19:00,45.5,37.4,30.10,North,356,0.0,3.0,73,0.00,,,0.00,0.00,VWS V14.01,2013-11-11 02:19:00,
2013-11-10 21:20:00,45.2,37.4,30.09,North,356,0.0,0.0,74,0.00,,,0.00,0.00,VWS V14.01,2013-11-11 02:20:00,
2013-11-10 21:21:00,45.5,37.0,30.10,NNE,17,0.0,4.0,72,0.00,,,0.00,0.00,VWS V14.01,2013-11-11 02:21:00,
2013-11-10 21:22:00,45.5,37.0,30.10,NNE,15,0.0,1.0,72,0.00,,,0.00,0.00,VWS V14.01,2013-11-11 02:22:00,
2013-11-10 21:23:00,45.5,37.0,30.10,NNE,15,0.0,0.0,72,0.00,,,0.00,0.00,VWS V14.01,2013-11-11 02:23:00,
2013-11-10 21:24:00,45.7,37.2,30.10,NNE,13,0.0,3.0,72,0.00,,,0.00,0.00,VWS V14.01,2013-11-11 02:24:00,
2013-11-10 21:25:00,45.5,37.4,30.10,North,356,1.0,3.0,73,0.00,,,0.00,0.00,VWS V14.01,2013-11-11 02:25:00,
2013-11-10 21:26:00,45.8,36.6,30.10,North,3,6.0,6.0,70,0.00,,,0.00,0.00,VWS V14.01,2013-11-11 02:26:00,
2013-11-10 21:27:00,45.8,36.2,30.10,NNW,334,2.0,7.0,69,0.00,,,0.00,0.00,VWS V14.01,2013-11-11 02:27:00,
2013-11-10 21:28:00,46.0,36.0,30.10,NNE,24,1.0,4.0,68,0.00,,,0.00,0.00,VWS V14.01,2013-11-11 02:28:00,
2013-11-10 21:29:00,46.2,36.2,30.10,NNE,18,0.0,1.0,68,0.00,,,0.00,0.00,VWS V14.01,2013-11-11 02:29:00,
2013-11-10 21:30:00,45.7,37.2,30.10,NNE,13,0.0,3.0,72,0.00,,,0.00,0.00,VWS V14.01,2013-11-11 02:30:00,
2013-11-10 21:31:00,46.5,33.8,30.10,North,355,7.0,7.0,61,0.00,,,0.00,0.00,VWS V14.01,2013-11-11 02:31:00,
2013-11-10 21:32:00,46.7,33.6,30.10,North,5,0.0,7.0,60,0.00,,,0.00,0.00,VWS V14.01,2013-11-11 02:32:00,
2013-11-10 21:33:00,47.0,33.4,30.10,North,358,6.0,6.0,59,0.00,,,0.00,0.00,VWS V14.01,2013-11-11 02:33:00,
2013-11-10 21:34:00,47.1,32.2,30.10,NNW,344,0.0,7.0,56,0.00,,,0.00,0.00,VWS V14.01,2013-11-11 02:34:00,
2013-11-10 21:35:00,46.1,36.1,30.10,NNE,18,0.0,1.0,68,0.00,,,0.00,0.00,VWS V14.01,2013-11-11 02:35:00,
2013-11-10 21:36:00,47.6,30.9,30.10,NE,43,4.0,9.0,52,0.00,,,0.00,0.00,VWS V14.01,2013-11-11 02:36:00,
2013-11-10 21:37:00,47.9,30.7,30.10,NNE,22,1.0,5.0,51,0.00,,,0.00,0.00,VWS V14.01,2013-11-11 02:37:00,
2013-11-10 21:38:00,48.2,30.9,30.10,North,7,1.0,3.0,51,0.00,,,0.00,0.00,VWS V14.01,2013-11-11 02:38:00,
2013-11-10 21:39:00,48.5,30.7,30.10,NNE,18,4.0,4.0,50,0.00,,,0.00,0.00,VWS V14.01,2013-11-11 02:39:00,
2013-11-10 21:40:00,47.1,32.2,30.10,NNW,344,0.0,7.0,56,0.00,,,0.00,0.00,VWS V14.01,2013-11-11 02:40:00,
2013-11-10 21:41:00,49.2,29.9,30.10,North,6,1.0,5.0,47,0.00,,,0.00,0.00,VWS V14.01,2013-11-11 02:41:00,
2013-11-10 21:42:00,49.5,30.6,30.10,North,9,2.0,6.0,48,0.00,,,0.00,0.00,VWS V14.01,2013-11-11 02:42:00,
2013-11-10 21:43:00,49.6,30.2,30.10,NNE,13,3.0,6.0,47,0.00,,,0.00,0.00,VWS V14.01,2013-11-11 02:43:00,
2013-11-10 21:44:00,49.8,29.9,30.10,North,8,0.0,5.0,46,0.00,,,0.00,0.00,VWS V14.01,2013-11-11 02:44:00,
2013-11-10 21:45:00,48.5,30.7,30.10,NNE,18,4.0,4.0,50,0.00,,,0.00,0.00,VWS V14.01,2013-11-11 02:45:00,
2013-11-10 21:46:00,50.2,29.7,30.11,North,1,1.0,1.0,45,0.00,,,0.00,0.00,VWS V14.01,2013-11-11 02:46:00,
2013-11-10 21:47:00,50.4,29.3,30.11,NNW,341,2.0,4.0,44,0.00,,,0.00,0.00,VWS V14.01,2013-11-11 02:47:00,
2013-11-10 21:48:00,50.4,29.9,30.11,NNW,341,0.0,2.0,45,0.00,,,0.00,0.00,VWS V14.01,2013-11-11 02:48:00,
2013-11-10 21:49:00,50.5,30.0,30.11,NNW,343,0.0,0.0,45,0.00,,,0.00,0.00,VWS V14.01,2013-11-11 02:49:00,
2013-11-10 21:50:00,49.8,29.9,30.10,North,8,0.0,5.0,46,0.00,,,0.00,0.00,VWS V14.01,2013-11-11 02:50:00,
2013-11-10 21:51:00,50.7,29.6,30.11,North,354,6.0,6.0,44,0.00,,,0.00,0.00,VWS V14.01,2013-11-11 02:51:00,
2013-11-10 21:52:00,50.8,29.7,30.11,NNW,345,0.0,6.0,44,0.00,,,0.00,0.00,VWS V14.01,2013-11-11 02:52:00,
2013-11-10 21:53:00,50.8,29.1,30.11,NNW,345,0.0,0.0,43,0.00,,,0.00,0.00,VWS V14.01,2013-11-11 02:53:00,
2013-11-10 21:54:00,50.8,29.1,30.11,North,8,0.0,4.0,43,0.00,,,0.00,0.00,VWS V14.01,2013-11-11 02:54:00,
2013-11-10 21:55:00,50.5,30.0,30.11,NNW,343,0.0,0.0,45,0.00,,,0.00,0.00,VWS V14.01,2013-11-11 02:55:00,
2013-11-10 21:56:00,51.0,29.3,30.11,North,7,1.0,1.0,43,0.00,,,0.00,0.00,VWS V14.01,2013-11-11 02:56:00,
2013-11-10 21:57:00,51.0,28.7,30.11,North,7,0.0,1.0,42,0.00,,,0.00,0.00,VWS V14.01,2013-11-11 02:57:00,
2013-11-10 21:58:00,51.0,28.7,30.11,North,8,0.0,1.0,42,0.00,,,0.00,0.00,VWS V14.01,2013-11-11 02:58:00,
2013-11-10 21:59:00,51.0,28.7,30.11,North,11,4.0,4.0,42,0.00,,,0.00,0.00,VWS V14.01,2013-11-11 02:59:00,
2013-11-10 22:00:00,50.8,29.1,30.11,North,8,0.0,4.0,43,0.00,,,0.00,0.00,VWS V14.01,2013-11-11 03:00:00,
2013-11-10 22:01:00,51.1,28.2,30.12,North,11,0.0,0.0,41,0.00,,,0.00,0.00,VWS V14.01,2013-11-11 03:01:00,
2013-11-10 22:02:00,51.1,28.8,30.12,North,11,0.0,0.0,42,0.00,,,0.00,0.00,VWS V14.01,2013-11-11 03:02:00,
2013-11-10 22:03:00,51.1,29.4,30.12,North,11,0.0,0.0,43,0.00,,,0.00,0.00,VWS V14.01,2013-11-11 03:03:00,
2013-11-10 22:04:00,51.1,29.4,30.12,NNW,333,6.0,6.0,43,0.00,,,0.00,0.00,VWS V14.01,2013-11-11 03:04:00,
2013-11-10 22:05:00,51.0,28.7,30.11,North,11,4.0,4.0,42,0.00,,,0.00,0.00,VWS V14.01,2013-11-11 03:05:00,
2013-11-10 22:06:00,51.1,29.4,30.12,NNW,332,3.0,3.0,43,0.00,,,0.00,0.00,VWS V14.01,2013-11-11 03:06:00,
2013-11-10 22:07:00,51.0,29.3,30.12,NNW,332,0.0,3.0,43,0.00,,,0.00,0.00,VWS V14.01,2013-11-11 03:07:00,
2013-11-10 22:08:00,51.0,28.7,30.12,North,356,2.0,3.0,42,0.00,,,0.00,0.00,VWS V14.01,2013-11-11 03:08:00,
2013-11-10 22:09:00,51.0,28.7,30.12,North,358,1.0,2.0,42,0.00,,,0.00,0.00,VWS V14.01,2013-11-11 03:09:00,
2013-11-10 22:10:00,51.1,29.4,30.12,NNW,341,6.0,6.0,43,0.00,,,0.00,0.00,VWS V14.01,2013-11-11 03:10:00,
2013-11-10 22:11:00,50.8,29.1,30.12,North,358,0.0,1.0,43,0.00,,,0.00,0.00,VWS V14.01,2013-11-11 03:11:00,
2013-11-10 22:12:00,50.7,29.0,30.12,North,358,0.0,0.0,43,0.00,,,0.00,0.00,VWS V14.01,2013-11-11 03:12:00,
2013-11-10 22:13:00,50.7,29.0,30.12,North,358,0.0,0.0,43,0.00,,,0.00,0.00,VWS V14.01,2013-11-11 03:13:00,
2013-11-10 22:14:00,50.5,28.9,30.12,North,358,0.0,0.0,43,0.00,,,0.00,0.00,VWS V14.01,2013-11-11 03:14:00,
2013-11-10 22:15:00,51.0,28.7,30.12,North,358,2.0,2.0,42,0.00,,,0.00,0.00,VWS V14.01,2013-11-11 03:15:00,
2013-11-10 22:16:00,50.4,28.2,30.12,North,358,0.0,3.0,42,0.00,,,0.00,0.00,VWS V14.01,2013-11-11 03:16:00,
2013-11-10 22:17:00,50.4,28.8,30.12,North,358,0.0,0.0,43,0.00,,,0.00,0.00,VWS V14.01,2013-11-11 03:17:00,
2013-11-10 22:18:00,50.2,28.6,30.12,North,358,0.0,0.0,43,0.00,,,0.00,0.00,VWS V14.01,2013-11-11 03:18:00,
2013-11-10 22:19:00,50.2,28.0,30.12,North,358,0.0,0.0,42,0.00,,,0.00,0.00,VWS V14.01,2013-11-11 03:19:00,
2013-11-10 22:20:00,50.5,28.3,30.12,North,358,0.0,0.0,42,0.00,,,0.00,0.00,VWS V14.01,2013-11-11 03:20:00,
2013-11-10 22:21:00,50.1,27.9,30.12,NNW,337,0.0,3.0,42,0.00,,,0.00,0.00,VWS V14.01,2013-11-11 03:21:00,
2013-11-10 22:22:00,49.9,27.2,30.12,NNW,337,0.0,1.0,41,0.00,,,0.00,0.00,VWS V14.01,2013-11-11 03:22:00,
2013-11-10 22:23:00,49.9,27.2,30.12,NNW,335,0.0,3.0,41,0.00,,,0.00,0.00,VWS V14.01,2013-11-11 03:23:00,
2013-11-10 22:24:00,49.9,27.7,30.12,North,0,1.0,4.0,42,0.00,,,0.00,0.00,VWS V14.01,2013-11-11 03:24:00,
2013-11-10 22:25:00,50.2,28.0,30.12,North,358,0.0,0.0,42,0.00,,,0.00,0.00,VWS V14.01,2013-11-11 03:25:00,
2013-11-10 22:26:00,49.9,27.7,30.12,North,0,0.0,0.0,42,0.00,,,0.00,0.00,VWS V14.01,2013-11-11 03:26:00,
2013-11-10 22:27:00,49.9,27.7,30.12,NNE,13,3.0,7.0,42,0.00,,,0.00,0.00,VWS V14.01,2013-11-11 03:27:00,
2013-11-10 22:28:00,49.9,27.2,30.12,NNE,15,0.0,3.0,41,0.00,,,0.00,0.00,VWS V14.01,2013-11-11 03:28:00,
2013-11-10 22:29:00,49.9,27.2,30.12,North,9,0.0,7.0,41,0.00,,,0.00,0.00,VWS V14.01,2013-11-11 03:29:00,
2013-11-10 22:30:00,49.9,27.7,30.12,North,0,2.0,4.0,42,0.00,,,0.00,0.00,VWS V14.01,2013-11-11 03:30:00,
2013-11-10 22:31:00,50.1,27.9,30.12,NNE,30,0.0,3.0,42,0.00,,,0.00,0.00,VWS V14.01,2013-11-11 03:31:00,
2013-11-10 22:32:00,50.1,27.9,30.12,North,11,5.0,5.0,42,0.00,,,0.00,0.00,VWS V14.01,2013-11-11 03:32:00,
2013-11-10 22:33:00,50.1,27.3,30.12,NNE,17,0.0,5.0,41,0.00,,,0.00,0.00,VWS V14.01,2013-11-11 03:33:00,
2013-11-10 22:34:00,50.1,26.7,30.12,North,355,0.0,5.0,40,0.00,,,0.00,0.00,VWS V14.01,2013-11-11 03:34:00,
2013-11-10 22:35:00,49.9,27.1,30.12,North,9,1.0,7.0,41,0.00,,,0.00,0.00,VWS V14.01,2013-11-11 03:35:00,
2013-11-10 22:36:00,50.2,26.8,30.12,NNE,29,0.0,3.0,40,0.00,,,0.00,0.00,VWS V14.01,2013-11-11 03:36:00,
2013-11-10 22:37:00,50.2,26.8,30.12,NNE,13,0.0,2.0,40,0.00,,,0.00,0.00,VWS V14.01,2013-11-11 03:37:00,
2013-11-10 22:38:00,50.4,27.6,30.12,North,6,0.0,3.0,41,0.00,,,0.00,0.00,VWS V14.01,2013-11-11 03:38:00,
2013-11-10 22:39:00,50.4,27.0,30.12,North,11,1.0,4.0,40,0.00,,,0.00,0.00,VWS V14.01,2013-11-11 03:39:00,
2013-11-10 22:40:00,50.1,26.7,30.12,North,354,3.0,5.0,40,0.00,,,0.00,0.00,VWS V14.01,2013-11-11 03:40:00,
2013-11-10 22:41:00,50.4,27.0,30.12,North,3,0.0,6.0,40,0.00,,,0.00,0.00,VWS V14.01,2013-11-11 03:41:00,
2013-11-10 22:42:00,50.5,27.1,30.12,North,11,4.0,5.0,40,0.00,,,0.00,0.00,VWS V14.01,2013-11-11 03:42:00,
2013-11-10 22:43:00,50.5,27.1,30.12,North,357,4.0,6.0,40,0.00,,,0.00,0.00,VWS V14.01,2013-11-11 03:43:00,
2013-11-10 22:44:00,50.7,26.7,30.12,North,0,0.0,5.0,39,0.00,,,0.00,0.00,VWS V14.01,2013-11-11 03:44:00,
2013-11-10 22:45:00,50.4,27.0,30.12,NNE,13,0.0,4.0,40,0.00,,,0.00,0.00,VWS V14.01,2013-11-11 03:45:00,
2013-11-10 22:46:00,50.7,27.3,30.13,NE,34,0.0,5.0,40,0.00,,,0.00,0.00,VWS V14.01,2013-11-11 03:46:00,
2013-11-10 22:47:00,50.8,26.8,30.13,North,10,0.0,5.0,39,0.00,,,0.00,0.00,VWS V14.01,2013-11-11 03:47:00,
2013-11-10 22:48:00,50.8,26.8,30.13,NNE,31,0.0,9.0,39,0.00,,,0.00,0.00,VWS V14.01,2013-11-11 03:48:00,
2013-11-10 22:49:00,51.0,26.9,30.13,NE,50,2.0,4.0,39,0.00,,,0.00,0.00,VWS V14.01,2013-11-11 03:49:00,
2013-11-10 22:50:00,50.5,27.1,30.12,North,0,0.0,5.0,40,0.00,,,0.00,0.00,VWS V14.01,2013-11-11 03:50:00,
2013-11-10 22:51:00,51.1,27.0,30.13,NNE,25,1.0,5.0,39,0.00,,,0.00,0.00,VWS V14.01,2013-11-11 03:51:00,
2013-11-10 22:52:00,51.3,26.6,30.13,North,7,0.0,6.0,38,0.00,,,0.00,0.00,VWS V14.01,2013-11-11 03:52:00,
2013-11-10 22:53:00,51.3,26.6,30.13,North,6,0.0,3.0,38,0.00,,,0.00,0.00,VWS V14.01,2013-11-11 03:53:00,
2013-11-10 22:54:00,51.4,26.7,30.13,North,0,6.0,6.0,38,0.00,,,0.00,0.00,VWS V14.01,2013-11-11 03:54:00,
2013-11-10 22:55:00,51.0,26.9,30.13,North,10,1.0,1.0,39,0.00,,,0.00,0.00,VWS V14.01,2013-11-11 03:55:00,
2013-11-10 22:56:00,51.6,26.2,30.13,ENE,58,3.0,4.0,37,0.00,,,0.00,0.00,VWS V14.01,2013-11-11 03:56:00,
2013-11-10 22:57:00,51.6,26.8,30.13,NNE,31,0.0,5.0,38,0.00,,,0.00,0.00,VWS V14.01,2013-11-11 03:57:00,
2013-11-10 22:58:00,51.6,26.8,30.13,NNE,29,0.0,0.0,38,0.00,,,0.00,0.00,VWS V14.01,2013-11-11 03:58:00,
2013-11-10 22:59:00,51.7,26.9,30.13,NE,48,4.0,4.0,38,0.00,,,0.00,0.00,VWS V14.01,2013-11-11 03:59:00,
2013-11-10 23:00:00,51.4,26.7,30.13,NNE,22,2.0,2.0,38,0.00,,,0.00,0.00,VWS V14.01,2013-11-11 04:00:00,
2013-11-10 23:01:00,51.6,26.8,30.13,North,5,1.0,2.0,38,0.00,,,0.00,0.00,VWS V14.01,2013-11-11 04:01:00,
2013-11-10 23:02:00,51.6,27.5,30.13,NNE,19,0.0,4.0,39,0.00,,,0.00,0.00,VWS V14.01,2013-11-11 04:02:00,
2013-11-10 23:03:00,51.6,27.5,30.13,North,354,0.0,5.0,39,0.00,,,0.00,0.00,VWS V14.01,2013-11-11 04:03:00,
2013-11-10 23:04:00,51.6,26.8,30.13,North,2,0.0,3.0,38,0.00,,,0.00,0.00,VWS V14.01,2013-11-11 04:04:00,
2013-11-10 23:05:00,51.7,26.9,30.13,NE,48,4.0,4.0,38,0.00,,,0.00,0.00,VWS V14.01,2013-11-11 04:05:00,
2013-11-10 23:06:00,51.4,26.7,30.13,NE,34,1.0,4.0,38,0.00,,,0.00,0.00,VWS V14.01,2013-11-11 04:06:00,
2013-11-10 23:07:00,51.4,27.3,30.13,North,358,2.0,3.0,39,0.00,,,0.00,0.00,VWS V14.01,2013-11-11 04:07:00,
2013-11-10 23:08:00,51.4,27.3,30.13,NNE,18,2.0,5.0,39,0.00,,,0.00,0.00,VWS V14.01,2013-11-11 04:08:00,
2013-11-10 23:09:00,51.4,27.3,30.13,NNE,14,3.0,5.0,39,0.00,,,0.00,0.00,VWS V14.01,2013-11-11 04:09:00,
2013-11-10 23:10:00,51.6,26.8,30.13,North,358,2.0,2.0,38,0.00,,,0.00,0.00,VWS V14.01,2013-11-11 04:10:00,
2013-11-10 23:11:00,51.3,27.2,30.13,NE,44,0.0,1.0,39,0.00,,,0.00,0.00,VWS V14.01,2013-11-11 04:11:00,
2013-11-10 23:12:00,51.3,26.6,30.13,North,11,0.0,0.0,38,0.00,,,0.00,0.00,VWS V14.01,2013-11-11 04:12:00,
2013-11-10 23:13:00,51.3,27.2,30.13,NNE,30,6.0,6.0,39,0.00,,,0.00,0.00,VWS V14.01,2013-11-11 04:13:00,
2013-11-10 23:14:00,51.3,26.6,30.13,NE,34,0.0,6.0,38,0.00,,,0.00,0.00,VWS V14.01,2013-11-11 04:14:00,
2013-11-10 23:15:00,51.4,27.3,30.13,NNE,16,5.0,5.0,39,0.00,,,0.00,0.00,VWS V14.01,2013-11-11 04:15:00,
2013-11-10 23:16:00,51.3,27.2,30.13,NNE,21,0.0,2.0,39,0.00,,,0.00,0.00,VWS V14.01,2013-11-11 04:16:00,
2013-11-10 23:17:00,51.1,27.0,30.13,NNE,18,0.0,1.0,39,0.00,,,0.00,0.00,VWS V14.01,2013-11-11 04:17:00,
2013-11-10 23:18:00,51.1,27.0,30.13,NNE,18,0.0,3.0,39,0.00,,,0.00,0.00,VWS V14.01,2013-11-11 04:18:00,
2013-11-10 23:19:00,51.1,27.0,30.13,North,0,0.0,4.0,39,0.00,,,0.00,0.00,VWS V14.01,2013-11-11 04:19:00,
2013-11-10 23:20:00,51.3,27.2,30.13,NE,34,0.0,6.0,39,0.00,,,0.00,0.00,VWS V14.01,2013-11-11 04:20:00,
2013-11-10 23:21:00,51.1,26.4,30.13,North,4,5.0,6.0,38,0.00,,,0.00,0.00,VWS V14.01,2013-11-11 04:21:00,
2013-11-10 23:22:00,51.0,26.9,30.13,North,358,0.0,5.0,39,0.00,,,0.00,0.00,VWS V14.01,2013-11-11 04:22:00,
2013-11-10 23:23:00,51.0,26.9,30.13,North,0,0.0,1.0,39,0.00,,,0.00,0.00,VWS V14.01,2013-11-11 04:23:00,
2013-11-10 23:24:00,51.0,26.9,30.13,North,0,0.0,0.0,39,0.00,,,0.00,0.00,VWS V14.01,2013-11-11 04:24:00,
2013-11-10 23:25:00,51.1,27.0,30.13,North,6,0.0,4.0,39,0.00,,,0.00,0.00,VWS V14.01,2013-11-11 04:25:00,
2013-11-10 23:26:00,51.0,26.9,30.13,North,4,3.0,4.0,39,0.00,,,0.00,0.00,VWS V14.01,2013-11-11 04:26:00,
2013-11-10 23:27:00,50.8,26.8,30.13,North,0,0.0,4.0,39,0.00,,,0.00,0.00,VWS V14.01,2013-11-11 04:27:00,
2013-11-10 23:28:00,50.8,26.8,30.13,North,0,0.0,0.0,39,0.00,,,0.00,0.00,VWS V14.01,2013-11-11 04:28:00,
2013-11-10 23:29:00,50.8,26.8,30.13,North,0,0.0,2.0,39,0.00,,,0.00,0.00,VWS V14.01,2013-11-11 04:29:00,
2013-11-10 23:30:00,51.0,26.9,30.13,North,0,0.0,0.0,39,0.00,,,0.00,0.00,VWS V14.01,2013-11-11 04:30:00,
2013-11-10 23:31:00,50.7,26.7,30.14,North,0,0.0,0.0,39,0.00,,,0.00,0.00,VWS V14.01,2013-11-11 04:31:00,
2013-11-10 23:32:00,50.7,26.7,30.14,NNE,15,1.0,5.0,39,0.00,,,0.00,0.00,VWS V14.01,2013-11-11 04:32:00,
2013-11-10 23:33:00,50.7,26.7,30.14,NNE,15,0.0,1.0,39,0.00,,,0.00,0.00,VWS V14.01,2013-11-11 04:33:00,
2013-11-10 23:34:00,50.5,26.5,30.14,NNE,15,0.0,0.0,39,0.00,,,0.00,0.00,VWS V14.01,2013-11-11 04:34:00,
2013-11-10 23:35:00,50.8,26.8,30.13,North,0,0.0,2.0,39,0.00,,,0.00,0.00,VWS V14.01,2013-11-11 04:35:00,
2013-11-10 23:36:00,50.5,27.1,30.14,NNE,15,0.0,0.0,40,0.00,,,0.00,0.00,VWS V14.01,2013-11-11 04:36:00,
2013-11-10 23:37:00,50.4,27.6,30.14,NNW,337,4.0,4.0,41,0.00,,,0.00,0.00,VWS V14.01,2013-11-11 04:37:00,
2013-11-10 23:38:00,50.4,27.6,30.14,NNW,334,0.0,4.0,41,0.00,,,0.00,0.00,VWS V14.01,2013-11-11 04:38:00,
2013-11-10 23:39:00,50.2,26.8,30.14,North,0,0.0,4.0,40,0.00,,,0.00,0.00,VWS V14.01,2013-11-11 04:39:00,
2013-11-10 23:40:00,50.7,26.7,30.14,NNE,15,0.0,0.0,39,0.00,,,0.00,0.00,VWS V14.01,2013-11-11 04:40:00,
2013-11-10 23:41:00,50.2,26.8,30.14,North,0,0.0,0.0,40,0.00,,,0.00,0.00,VWS V14.01,2013-11-11 04:41:00,
2013-11-10 23:42:00,50.1,26.7,30.14,NNW,342,0.0,0.0,40,0.00,,,0.00,0.00,VWS V14.01,2013-11-11 04:42:00,
2013-11-10 23:43:00,50.1,27.3,30.14,NNW,342,0.0,0.0,41,0.00,,,0.00,0.00,VWS V14.01,2013-11-11 04:43:00,
2013-11-10 23:44:00,49.9,27.2,30.14,NNW,342,0.0,2.0,41,0.00,,,0.00,0.00,VWS V14.01,2013-11-11 04:44:00,
2013-11-10 23:45:00,50.2,26.8,30.14,North,0,0.0,4.0,40,0.00,,,0.00,0.00,VWS V14.01,2013-11-11 04:45:00,
2013-11-10 23:46:00,49.8,27.1,30.15,NNW,342,0.0,0.0,41,0.00,,,0.00,0.00,VWS V14.01,2013-11-11 04:46:00,
2013-11-10 23:47:00,49.8,27.1,30.15,NNW,343,1.0,1.0,41,0.00,,,0.00,0.00,VWS V14.01,2013-11-11 04:47:00,
2013-11-10 23:48:00,49.6,27.5,30.15,NNW,346,0.0,3.0,42,0.00,,,0.00,0.00,VWS V14.01,2013-11-11 04:48:00,
2013-11-10 23:49:00,49.6,27.5,30.15,NNW,345,0.0,0.0,42,0.00,,,0.00,0.00,VWS V14.01,2013-11-11 04:49:00,
2013-11-10 23:50:00,49.9,27.1,30.14,NNW,342,0.0,2.0,41,0.00,,,0.00,0.00,VWS V14.01,2013-11-11 04:50:00,
2013-11-10 23:51:00,49.5,27.4,30.15,NNW,335,5.0,5.0,42,0.00,,,0.00,0.00,VWS V14.01,2013-11-11 04:51:00,
2013-11-10 23:52:00,49.4,27.3,30.15,NNW,348,0.0,5.0,42,0.00,,,0.00,0.00,VWS V14.01,2013-11-11 04:52:00,
2013-11-10 23:53:00,49.4,27.3,30.15,NNW,347,0.0,0.0,42,0.00,,,0.00,0.00,VWS V14.01,2013-11-11 04:53:00,
2013-11-10 23:54:00,49.2,27.1,30.15,NNW,347,0.0,0.0,42,0.00,,,0.00,0.00,VWS V14.01,2013-11-11 04:54:00,
2013-11-10 23:55:00,49.6,27.5,30.15,NNW,345,0.0,0.0,42,0.00,,,0.00,0.00,VWS V14.01,2013-11-11 04:55:00,
2013-11-10 23:56:00,49.2,27.7,30.15,NNW,347,0.0,0.0,43,0.00,,,0.00,0.00,VWS V14.01,2013-11-11 04:56:00,
2013-11-10 23:57:00,49.1,27.6,30.15,NNE,18,0.0,1.0,43,0.00,,,0.00,0.00,VWS V14.01,2013-11-11 04:57:00,
2013-11-10 23:58:00,49.1,27.6,30.15,NNE,17,0.0,0.0,43,0.00,,,0.00,0.00,VWS V14.01,2013-11-11 04:58:00,
2013-11-10 23:59:00,48.9,27.4,30.15,NNE,17,0.0,0.0,43,0.00,,,0.00,0.00,VWS V14.01,2013-11-11 04:59:00,